[[{"header":{"parameterUnit":"m.s-1","parameterCategory":1,"la1":30.6,"la2":29.2853,"lo1":-89.7004,"lo2":-87.6739,"dy":0.0162,"dx":0.0183,"nx":112,"ny":82,"refTime":"2023-09-16T00:00:00:Z","depth":0,"parameterNumber":2,"parameterNumberName":"U-component_of_WINDS"},"data":[0.0,0.0,0.0,0.0,0.0,0.0,0.0,0.0,0.0,0.0,0.0,0.0,0.0,0.0,0.0,0.0,0.0,0.0,0.0,0.0,0.0,0.0,0.0,0.0,0.0,0.0,0.0,0.0,0.0,0.0,0.0,0.0,0.0,0.0,0.0,0.0,0.0,0.0,0.0,0.0,0.0,0.0,0.0,0.0,0.0,0.0,0.0,0.0,0.0,0.0,0.0,0.0,0.0,0.0,0.0,0.0,0.0,0.0,0.0,0.0,0.0,0.0,0.0,0.0,0.0,0.0,0.0,0.0,0.0,0.0,0.0,0.0,0.0,0.0,0.0,0.0,0.0,0.0,0.0,0.0,0.0,0.0,0.0,0.0,0.0,0.0,0.0,0.0,0.0,0.0,2.4739,2.5525,2.6806,2.76,2.76,2.76,2.76,2.76,0.0,0.0,0.0,0.0,0.0,0.0,0.0,0.0,0.0,0.0,0.0,0.0,0.0,0.0,0.0,0.0,0.0,0.0,0.0,0.0,0.0,0.0,0.0,0.0,0.0,0.0,0.0,0.0,0.0,0.0,0.0,0.0,0.0,0.0,0.0,0.0,0.0,0.0,0.0,0.0,0.0,0.0,0.0,0.0,0.0,0.0,0.0,0.0,0.0,0.0,0.0,0.0,0.0,0.0,0.0,0.0,0.0,0.0,0.0,0.0,0.0,0.0,0.0,0.0,0.0,0.0,0.0,0.0,0.0,0.0,0.0,0.0,0.0,0.0,0.0,0.0,0.0,0.0,0.0,0.0,0.0,0.0,0.0,0.0,0.0,0.0,0.0,0.0,0.0,0.0,0.0,0.0,0.0,0.0,0.0,0.0,0.0,0.0,0.0,0.0,0.0,0.0,0.0,0.0,2.4238,2.548,2.6806,2.76,2.76,2.76,2.76,2.76,0.0,0.0,0.0,0.0,0.0,0.0,0.0,0.0,0.0,0.0,0.0,0.0,0.0,0.0,0.0,0.0,0.0,0.0,0.0,0.0,0.0,0.0,0.0,0.0,0.0,0.0,0.0,0.0,0.0,0.0,0.0,0.0,0.0,0.0,0.0,0.0,0.0,0.0,0.0,0.0,0.0,0.0,0.0,0.0,0.0,0.0,0.0,0.0,0.0,0.0,0.0,0.0,0.0,0.0,0.0,0.0,0.0,0.0,0.0,0.0,0.0,0.0,0.0,0.0,0.0,0.0,0.0,0.0,0.0,0.0,0.0,0.0,0.0,0.0,0.0,0.0,0.0,0.0,0.0,0.0,0.0,0.0,0.0,0.0,0.0,0.0,0.0,0.0,0.0,0.0,0.0,0.0,0.0,0.0,0.0,0.0,0.0,0.0,0.0,0.0,0.0,0.0,0.0,2.4687,2.5196,2.6527,2.724,2.76,2.76,2.76,2.76,2.76,2.727,0.0,0.0,0.0,0.0,0.0,0.0,0.0,0.0,0.0,0.0,0.0,0.0,0.0,0.0,0.0,0.0,0.0,0.0,0.0,0.0,0.0,0.0,0.0,0.0,0.0,0.0,0.0,0.0,0.0,0.0,0.0,0.0,0.0,0.0,0.0,0.0,0.0,0.0,0.0,0.0,0.0,0.0,0.0,0.0,0.0,0.0,0.0,0.0,0.0,0.0,0.0,0.0,0.0,0.0,0.0,0.0,0.0,0.0,0.0,0.0,0.0,0.0,0.0,0.0,0.0,0.0,0.0,0.0,0.0,0.0,0.0,0.0,0.0,0.0,0.0,0.0,0.0,0.0,0.0,0.0,0.0,0.0,0.0,0.0,0.0,0.0,0.0,0.0,0.0,0.0,0.0,0.0,0.0,0.0,0.0,0.0,0.0,0.0,0.0,0.0,0.0,0.0,2.5405,2.5989,2.7031,2.7405,2.76,2.76,2.76,2.76,2.76,2.6986,0.0,0.0,0.0,0.0,0.0,0.0,0.0,0.0,0.0,0.0,0.0,0.0,0.0,0.0,0.0,0.0,0.0,0.0,0.0,0.0,0.0,0.0,0.0,0.0,0.0,0.0,0.0,0.0,0.0,0.0,0.0,0.0,0.0,0.0,0.0,0.0,0.0,0.0,0.0,0.0,0.0,0.0,0.0,0.0,0.0,0.0,0.0,0.0,0.0,0.0,0.0,0.0,0.0,0.0,0.0,0.0,0.0,0.0,0.0,0.0,0.0,0.0,0.0,0.0,0.0,0.0,0.0,0.0,0.0,0.0,0.0,0.0,0.0,0.0,0.0,0.0,0.0,0.0,0.0,0.0,0.0,0.0,0.0,0.0,0.0,0.0,0.0,0.0,0.0,0.0,0.0,0.0,0.0,0.0,0.0,0.0,0.0,0.0,0.0,0.0,0.0,0.0,2.4837,2.5644,2.5734,2.6866,2.76,2.76,2.76,2.76,2.76,2.6986,0.0,0.0,0.0,0.0,0.0,0.0,0.0,0.0,0.0,0.0,0.0,0.0,0.0,0.0,0.0,0.0,0.0,0.0,0.0,0.0,0.0,0.0,0.0,0.0,0.0,0.0,0.0,0.0,0.0,0.0,0.0,0.0,0.0,0.0,0.0,0.0,0.0,0.0,0.0,0.0,0.0,0.0,0.0,0.0,0.0,0.0,0.0,0.0,0.0,0.0,0.0,0.0,0.0,0.0,0.0,0.0,0.0,0.0,0.0,0.0,0.0,0.0,0.0,0.0,0.0,0.0,0.0,0.0,0.0,0.0,0.0,0.0,0.0,0.0,0.0,0.0,0.0,0.0,0.0,0.0,0.0,0.0,0.0,0.0,0.0,0.0,0.0,0.0,0.0,0.0,0.0,0.0,0.0,0.0,0.0,0.0,0.0,0.0,0.0,0.0,0.0,0.0,2.5659,2.6378,2.6806,2.73,2.76,2.76,2.76,2.76,2.76,0.0,0.0,0.0,0.0,0.0,0.0,0.0,0.0,0.0,0.0,0.0,0.0,0.0,0.0,0.0,0.0,0.0,0.0,0.0,0.0,0.0,0.0,0.0,0.0,0.0,0.0,0.0,0.0,0.0,0.0,0.0,0.0,0.0,0.0,0.0,0.0,0.0,0.0,0.0,0.0,0.0,0.0,0.0,0.0,0.0,0.0,0.0,0.0,0.0,0.0,0.0,0.0,0.0,0.0,0.0,0.0,0.0,0.0,0.0,0.0,0.0,0.0,0.0,0.0,0.0,0.0,0.0,0.0,0.0,0.0,0.0,0.0,0.0,0.0,0.0,0.0,0.0,0.0,0.0,0.0,0.0,0.0,0.0,0.0,0.0,0.0,0.0,0.0,0.0,0.0,0.0,0.0,0.0,0.0,0.0,0.0,0.0,0.0,0.0,0.0,0.0,0.0,2.5217,2.6048,2.6791,2.724,2.7465,2.76,2.76,2.76,2.76,2.76,0.0,0.0,0.0,0.0,0.0,0.0,0.0,0.0,0.0,0.0,0.0,0.0,0.0,0.0,0.0,0.0,0.0,0.0,0.0,0.0,0.0,0.0,0.0,0.0,0.0,0.0,0.0,0.0,0.0,0.0,0.0,0.0,0.0,0.0,0.0,0.0,0.0,0.0,0.0,0.0,0.0,0.0,0.0,0.0,0.0,0.0,0.0,0.0,0.0,0.0,0.0,0.0,0.0,0.0,0.0,0.0,0.0,0.0,0.0,0.0,0.0,0.0,0.0,0.0,0.0,0.0,0.0,0.0,0.0,0.0,0.0,0.0,0.0,0.0,0.0,0.0,0.0,0.0,0.0,0.0,0.0,0.0,0.0,0.0,0.0,0.0,0.0,0.0,0.0,0.0,0.0,0.0,0.0,0.0,0.0,0.0,0.0,0.0,0.0,0.0,0.0,0.0,2.4634,2.5794,2.6602,2.6602,2.721,2.76,2.76,2.76,2.76,0.0,0.0,0.0,0.0,0.0,0.0,0.0,0.0,0.0,0.0,0.0,0.0,0.0,0.0,0.0,0.0,0.0,0.0,0.0,0.0,0.0,0.0,0.0,0.0,0.0,0.0,0.0,0.0,0.0,0.0,0.0,0.0,0.0,0.0,0.0,0.0,0.0,0.0,0.0,0.0,0.0,0.0,0.0,0.0,0.0,0.0,0.0,0.0,0.0,0.0,0.0,0.0,0.0,0.0,0.0,0.0,0.0,0.0,0.0,0.0,0.0,0.0,0.0,0.0,0.0,0.0,0.0,0.0,0.0,0.0,0.0,0.0,0.0,0.0,0.0,0.0,0.0,0.0,0.0,0.0,0.0,0.0,0.0,0.0,0.0,0.0,0.0,0.0,0.0,0.0,0.0,0.0,0.0,0.0,0.0,0.0,0.0,0.0,0.0,0.0,0.0,0.0,0.0,2.5959,2.6776,2.73,2.73,2.748,2.76,2.76,2.76,2.76,2.76,0.0,0.0,0.0,0.0,0.0,0.0,0.0,0.0,0.0,0.0,0.0,0.0,0.0,0.0,0.0,0.0,0.0,0.0,0.0,0.0,0.0,0.0,0.0,0.0,0.0,0.0,0.0,0.0,0.0,0.0,0.0,0.0,0.0,0.0,0.0,0.0,0.0,0.0,0.0,0.0,0.0,0.0,0.0,0.0,0.0,0.0,0.0,0.0,0.0,0.0,0.0,0.0,0.0,0.0,0.0,0.0,0.0,0.0,0.0,0.0,0.0,0.0,0.0,0.0,0.0,0.0,0.0,0.0,0.0,0.0,0.0,0.0,0.0,0.0,0.0,0.0,0.0,0.0,0.0,0.0,0.0,0.0,0.0,0.0,0.0,0.0,0.0,0.0,0.0,0.0,0.0,0.0,0.0,0.0,0.0,0.0,0.0,0.0,0.0,0.0,0.0,0.0,2.6497,2.7195,2.76,2.76,2.76,2.76,2.76,2.76,2.76,2.76,0.0,0.0,0.0,0.0,0.0,0.0,0.0,0.0,0.0,0.0,0.0,0.0,0.0,0.0,0.0,0.0,0.0,0.0,0.0,0.0,0.0,0.0,0.0,0.0,0.0,0.0,0.0,0.0,0.0,0.0,0.0,0.0,0.0,0.0,0.0,0.0,0.0,0.0,0.0,0.0,0.0,0.0,0.0,0.0,0.0,0.0,0.0,0.0,0.0,0.0,0.0,0.0,0.0,0.0,0.0,0.0,0.0,0.0,0.0,0.0,0.0,0.0,0.0,0.0,0.0,0.0,0.0,0.0,0.0,0.0,0.0,0.0,0.0,0.0,0.0,0.0,0.0,0.0,0.0,0.0,0.0,0.0,0.0,0.0,0.0,0.0,0.0,0.0,0.0,0.0,0.0,0.0,0.0,0.0,0.0,0.0,0.0,0.0,0.0,0.0,0.0,0.0,2.6602,2.7225,2.76,2.76,2.76,2.76,2.76,2.76,2.76,2.76,0.0,0.0,0.0,0.0,0.0,0.0,0.0,0.0,0.0,0.0,0.0,0.0,0.0,0.0,0.0,0.0,0.0,0.0,0.0,0.0,0.0,0.0,0.0,0.0,0.0,0.0,0.0,0.0,0.0,0.0,0.0,0.0,0.0,0.0,0.0,0.0,0.0,0.0,0.0,0.0,0.0,0.0,0.0,0.0,0.0,0.0,0.0,0.0,0.0,0.0,0.0,0.0,0.0,0.0,0.0,0.0,0.0,0.0,0.0,0.0,2.0998,2.043,0.0,0.0,0.0,0.0,0.0,0.0,0.0,0.0,0.0,0.0,0.0,0.0,0.0,0.0,0.0,0.0,0.0,0.0,0.0,0.0,0.0,0.0,0.0,0.0,0.0,0.0,0.0,0.0,0.0,0.0,0.0,0.0,0.0,0.0,0.0,0.0,0.0,0.0,0.0,0.0,2.73,2.751,2.76,2.76,2.76,2.76,2.76,2.76,2.76,2.76,2.76,0.0,0.0,0.0,0.0,0.0,0.0,0.0,0.0,0.0,0.0,0.0,0.0,0.0,0.0,0.0,0.0,0.0,0.0,0.0,0.0,0.0,0.0,0.0,0.0,0.0,0.0,0.0,0.0,0.0,0.0,0.0,0.0,0.0,0.0,0.0,0.0,0.0,0.0,0.0,0.0,0.0,0.0,0.0,0.0,0.0,0.0,0.0,0.0,0.0,0.0,0.0,0.0,0.0,0.0,0.0,0.0,0.0,0.0,0.0,2.2724,2.2264,0.0,0.0,0.0,0.0,0.0,0.0,0.0,0.0,0.0,0.0,0.0,0.0,0.0,0.0,0.0,0.0,0.0,0.0,0.0,0.0,0.0,0.0,0.0,0.0,0.0,0.0,0.0,0.0,0.0,0.0,0.0,0.0,0.0,0.0,0.0,0.0,0.0,0.0,0.0,0.0,2.751,2.76,2.76,2.76,2.76,2.76,2.76,2.76,2.76,2.76,2.76,0.0,0.0,0.0,0.0,0.0,0.0,0.0,0.0,0.0,0.0,0.0,0.0,0.0,0.0,0.0,0.0,0.0,0.0,0.0,0.0,0.0,0.0,0.0,0.0,0.0,0.0,0.0,0.0,0.0,0.0,0.0,0.0,0.0,0.0,0.0,0.0,0.0,0.0,0.0,0.0,0.0,0.0,0.0,0.0,0.0,0.0,0.0,0.0,0.0,0.0,0.0,0.0,0.0,2.4084,2.4309,2.3764,2.486,2.5131,2.4739,2.5021,2.4708,2.3961,2.3592,0.0,0.0,0.0,0.0,0.0,0.0,0.0,0.0,0.0,0.0,0.0,0.0,0.0,0.0,0.0,0.0,0.0,0.0,0.0,0.0,0.0,0.0,2.6617,2.6078,2.6363,2.6617,2.6063,0.0,0.0,0.0,0.0,0.0,0.0,0.0,0.0,0.0,0.0,0.0,2.769,2.7779,2.7824,2.7944,2.7944,2.7899,2.7779,2.7779,2.772,2.76,2.76,2.7896,0.0,0.0,0.0,0.0,0.0,0.0,0.0,0.0,0.0,0.0,0.0,0.0,0.0,0.0,0.0,0.0,0.0,0.0,0.0,0.0,0.0,0.0,0.0,0.0,0.0,0.0,0.0,0.0,0.0,0.0,0.0,0.0,1.9798,1.9798,0.0,0.0,0.0,0.0,0.0,0.0,0.0,0.0,0.0,0.0,0.0,0.0,0.0,2.2757,2.3439,2.4585,2.521,2.534,2.6046,2.6326,2.6213,2.6407,2.6769,2.7244,2.7273,0.0,2.4961,2.3267,0.0,0.0,0.0,0.0,0.0,0.0,0.0,0.0,0.0,0.0,0.0,0.0,0.0,0.0,0.0,0.0,0.0,0.0,0.0,0.0,0.0,0.0,2.745,2.736,2.7405,2.745,2.736,2.6881,2.6686,2.7345,2.7405,2.736,0.0,0.0,0.0,0.0,0.0,0.0,2.8368,2.8472,2.8682,2.9277,2.9352,2.9112,2.8517,2.8472,2.8203,2.763,2.76,2.7895,2.8572,2.9087,0.0,0.0,0.0,0.0,0.0,0.0,0.0,0.0,0.0,0.0,0.0,0.0,0.0,0.0,0.0,0.0,0.0,0.0,0.0,0.0,0.0,0.0,0.0,0.0,0.0,0.0,0.0,0.0,0.0,2.0075,2.0314,2.0314,2.0314,2.0314,0.0,0.0,0.0,0.0,0.0,0.0,0.0,0.0,0.0,2.3703,2.3923,2.4311,2.4883,2.5401,2.601,2.6649,2.6891,2.7193,2.7504,2.7504,2.7634,2.7936,2.7936,2.7584,2.6901,2.5113,2.401,2.3285,0.0,0.0,0.0,0.0,2.3648,2.4409,2.6172,2.6505,2.6283,2.7034,0.0,0.0,0.0,0.0,0.0,0.0,0.0,2.7255,2.7619,2.7934,2.8274,2.8633,2.8453,2.8143,2.8143,2.7645,2.7255,2.754,2.76,2.76,2.76,2.76,0.0,0.0,0.0,2.8382,2.9071,2.9146,2.9265,2.9577,2.9606,2.9487,2.9175,2.9146,2.9052,2.8738,2.9067,2.9394,2.9663,3.0351,3.0885,0.0,0.0,0.0,0.0,0.0,0.0,0.0,0.0,0.0,0.0,0.0,0.0,0.0,0.0,0.0,0.0,0.0,0.0,0.0,0.0,0.0,0.0,0.0,0.0,0.0,0.0,0.0,0.0,2.0453,2.0842,2.0717,2.0943,2.1056,0.0,0.0,0.0,0.0,0.0,0.0,2.371,2.4318,2.4883,2.5435,2.5553,2.5912,2.644,2.659,2.7092,2.7921,2.7921,2.8147,2.8536,2.8536,2.8536,2.8536,2.8536,2.8526,2.8403,2.6733,2.5388,2.4288,2.3153,2.3119,2.3811,2.4597,2.5448,2.6372,2.7854,2.8163,2.7952,2.8375,2.833,2.8109,2.8109,0.0,0.0,0.0,0.0,2.8229,2.8727,2.8846,2.8936,2.9277,2.9086,2.8801,2.8637,2.8323,2.8064,2.7899,2.7869,2.7914,2.8079,2.8109,0.0,2.8771,2.8846,2.9086,2.9744,2.9846,2.9906,3.0058,3.0088,3.0013,2.9834,2.9846,2.9853,2.9845,3.0335,3.0731,3.1045,3.1734,3.2309,3.2693,0.0,0.0,0.0,0.0,0.0,0.0,0.0,0.0,0.0,0.0,0.0,0.0,0.0,0.0,0.0,0.0,0.0,0.0,0.0,0.0,0.0,0.0,0.0,0.0,0.0,0.0,0.0,0.0,0.0,2.0754,2.1594,0.0,0.0,0.0,0.0,2.2945,2.4023,2.4921,2.5448,2.6059,2.6625,2.7178,2.767,2.8197,2.8712,2.9302,2.9616,2.9666,2.9666,2.9679,2.9704,2.9704,2.9704,2.9704,2.9704,2.9377,2.8749,2.7125,2.6832,2.7171,2.4823,2.5044,2.6648,2.6392,2.7116,2.8253,2.8297,2.8804,2.9357,2.8579,2.8843,2.9502,2.9502,2.9502,0.0,0.0,2.9502,2.9517,2.9547,2.9562,2.9412,2.8786,2.9101,2.9397,2.8742,2.9071,2.9322,2.8667,2.8547,2.8742,2.9397,0.0,2.9517,2.952,2.9562,2.9786,3.0372,3.0447,3.0717,3.1331,3.1406,3.1137,3.0507,3.0447,3.0492,3.0531,3.0586,3.1171,3.2437,3.3134,3.3508,3.3546,3.4795,0.0,0.0,0.0,0.0,0.0,0.0,0.0,0.0,0.0,0.0,0.0,0.0,0.0,0.0,0.0,0.0,0.0,0.0,0.0,0.0,0.0,0.0,0.0,0.0,0.0,0.0,0.0,0.0,2.2786,2.3766,0.0,2.4155,2.4305,2.4506,2.4707,2.5762,2.664,2.718,2.7745,2.831,2.8875,2.9089,2.9289,2.9478,2.9691,2.9792,2.9792,2.9792,2.9792,2.9792,2.9792,2.9792,2.9792,2.9792,2.9679,2.944,2.885,2.814,2.7322,2.6476,2.664,2.7387,2.7632,2.8411,2.9372,2.9909,2.9713,2.9122,2.8498,2.8889,2.9606,2.9606,2.9606,2.9606,2.9606,2.9606,2.9696,3.0073,3.0178,3.0223,3.0404,3.0328,3.0103,2.9879,2.9699,2.9624,2.9789,2.9505,2.931,2.9577,2.9606,2.9714,3.0118,3.0178,3.0417,3.1047,3.1137,3.1241,3.1481,3.1511,3.1406,3.1152,3.1137,3.1356,3.1874,3.23,3.2755,3.3223,3.4284,3.4675,3.4244,3.5138,3.5358,0.0,0.0,0.0,0.0,0.0,0.0,0.0,0.0,0.0,0.0,0.0,0.0,0.0,0.0,0.0,0.0,0.0,0.0,0.0,0.0,0.0,0.0,0.0,0.0,0.0,2.2774,2.3885,2.4469,2.5498,2.6088,2.59,2.605,2.6239,2.6427,2.7306,2.8084,2.8649,2.9026,2.9402,2.9779,2.9792,2.9792,2.9792,2.9792,2.9792,2.9792,2.9792,2.9792,2.9792,2.9792,2.9792,2.9792,2.9792,2.9792,2.9792,2.9792,2.9139,2.8109,2.7908,2.8116,2.847,2.8499,2.906,2.9905,3.0603,3.0043,2.899,2.8981,2.9548,3.0182,2.9902,3.0028,3.0238,3.0238,3.0238,3.0328,3.0746,3.0851,3.0883,3.1107,3.0987,3.0791,3.0552,3.0357,3.0357,3.0776,3.0328,2.9968,3.0193,3.0238,3.0372,3.0791,3.0851,3.0987,3.1451,3.1511,3.1511,3.1511,3.1511,3.1511,3.1511,3.1511,3.1894,3.2895,3.3365,3.3786,3.4252,3.5138,3.5519,3.5347,3.5772,3.5853,3.56,0.0,0.0,0.0,0.0,0.0,0.0,0.0,0.0,0.0,0.0,0.0,0.0,0.0,0.0,0.0,0.0,0.0,0.0,0.0,0.0,0.0,0.0,0.0,2.3158,2.4148,2.5096,2.5611,2.6678,2.719,2.665,2.7077,2.7582,2.8109,2.8612,2.9202,2.9767,2.9792,2.9792,2.9792,2.9792,2.9792,2.9792,2.9792,2.9792,2.9792,2.9792,2.9792,2.9792,2.9792,2.9792,2.9792,2.9792,2.9792,2.9792,2.9792,2.9779,2.9716,2.9126,2.9436,3.0059,2.8952,2.908,2.9845,3.0131,2.9704,2.9129,2.9981,3.0807,3.1322,3.0584,3.0866,3.1511,3.1511,3.1511,3.1511,3.1511,3.1511,3.1331,3.0702,3.1017,3.1316,3.0672,3.1032,3.1511,3.1511,3.0972,3.0746,3.1391,3.1511,3.1511,3.1511,3.1511,0.0,3.1511,3.1511,3.1511,3.1511,3.1511,3.1511,3.1524,3.1524,3.2117,3.3531,3.3633,3.4227,3.5554,3.56,3.5977,3.6745,3.6795,3.6417,3.5633,0.0,0.0,0.0,0.0,0.0,0.0,0.0,0.0,0.0,0.0,0.0,0.0,0.0,0.0,0.0,0.0,0.0,0.0,0.0,0.0,0.0,2.3597,2.4324,2.4324,2.5661,2.6804,2.7356,2.8411,2.9038,2.8888,2.9013,2.9164,2.9315,2.9465,2.9628,2.9779,2.9792,2.9792,2.9792,2.9792,2.9792,2.9792,2.9792,2.9792,2.9792,2.9792,2.9792,2.9792,2.9792,2.9792,2.9792,2.9792,2.9792,2.9792,2.9792,2.9541,2.9189,2.9453,2.9694,2.9872,2.9554,2.9463,2.9466,2.9247,2.9072,2.9034,2.9286,2.9919,3.0703,3.1058,3.1322,3.1511,3.1511,3.1511,3.1511,3.1511,3.1511,3.1451,3.1271,3.1376,3.1451,3.1256,3.1376,3.1511,3.1511,3.1346,3.1286,3.1466,3.1511,3.1511,3.1511,3.1511,3.1511,3.1511,3.1511,3.1511,3.1511,3.1511,3.171,3.2244,3.2299,3.2879,3.4235,3.4333,3.4712,3.556,3.56,3.5701,3.5943,3.6485,3.6694,0.0,0.0,0.0,0.0,0.0,0.0,0.0,0.0,0.0,0.0,0.0,0.0,0.0,0.0,0.0,0.0,0.0,0.0,0.0,0.0,0.0,0.0,2.5465,2.6593,2.6866,2.7519,2.826,2.9063,2.9729,3.0143,3.0143,3.0143,3.0231,3.0444,3.047,3.047,3.047,3.0256,3.0231,3.0457,3.003,2.9905,3.0131,2.9905,2.9792,2.9792,2.9792,2.9792,2.9792,2.9792,2.9792,2.9792,2.9792,2.9792,2.9792,2.9792,2.9591,2.9327,0.0,0.0,0.0,0.0,2.8524,2.8265,2.8679,2.8906,2.9066,2.9442,2.9889,3.0389,3.0866,3.0999,3.1058,3.1409,3.1511,3.1511,3.1511,3.1511,3.1511,3.1511,3.1511,3.1511,3.1511,3.1511,3.1511,3.1511,3.1511,0.0,3.1511,3.1511,3.1511,3.1511,3.1511,3.1511,3.1511,3.1511,3.1511,3.1511,3.1511,3.193,3.2974,3.2784,0.0,0.0,0.0,3.5051,3.6056,3.6705,0.0,0.0,0.0,3.7574,3.7246,3.7702,0.0,0.0,3.7178,3.7246,0.0,0.0,0.0,0.0,0.0,0.0,0.0,0.0,0.0,0.0,0.0,0.0,0.0,0.0,0.0,0.0,2.7645,2.9226,2.9967,2.9616,2.959,3.0468,3.067,3.0683,3.062,3.067,3.0896,3.1348,3.1386,3.1386,3.1386,3.0947,0.0,0.0,0.0,3.0206,3.0708,3.0156,2.988,2.988,2.9829,2.9792,2.9792,2.9792,2.9792,2.9792,2.9792,2.9792,2.9792,2.9792,2.9792,2.9779,2.9729,2.9076,2.8122,2.7507,2.7002,2.6802,2.8228,0.0,0.0,2.965,3.0015,3.0135,3.0096,3.0244,3.0569,3.1217,3.1451,3.1511,3.1511,3.1511,3.1511,3.1511,3.1511,3.1511,3.1511,3.1511,3.1511,3.1511,3.1511,3.1511,3.1511,3.1511,3.1511,3.1511,3.1511,3.1511,3.1511,3.1511,3.1511,3.1511,3.1582,0.0,3.3684,3.3267,3.3821,3.5811,3.5323,3.5554,3.6874,3.8176,3.8565,3.7922,3.8616,3.8667,3.8024,3.8108,3.8481,3.9106,3.8379,3.8075,0.0,0.0,0.0,0.0,0.0,0.0,0.0,0.0,0.0,0.0,0.0,0.0,0.0,0.0,0.0,2.7369,2.875,3.0118,3.1549,3.165,3.1336,3.0696,3.0984,3.1072,3.0658,3.0997,3.1286,3.1386,3.1386,3.1386,3.1386,3.1298,3.1286,3.1386,3.1185,3.1135,3.1235,3.0721,3.0457,3.0457,3.0005,0.0,2.9792,2.9792,2.9792,2.9792,2.9792,2.9792,2.9792,2.9792,2.9792,2.9741,2.9277,2.8925,2.8612,2.7657,2.7218,2.7125,2.7037,2.6973,2.7051,2.744,2.832,2.9198,2.887,2.9929,0.0,3.0795,3.1077,3.1511,3.1511,3.1511,3.1511,3.1511,3.1511,3.1511,3.1511,3.1511,3.1511,3.1511,3.1511,3.1511,3.1511,3.1511,3.1511,3.1511,3.1511,3.1511,3.1511,3.1511,3.1511,3.1511,3.2035,3.2959,3.4377,3.4865,3.577,3.7362,3.7326,3.7398,3.7686,3.7973,3.8058,3.7905,3.8616,3.892,3.8785,3.9377,3.9757,3.9876,3.9123,3.9106,0.0,0.0,0.0,0.0,0.0,0.0,0.0,0.0,0.0,0.0,0.0,2.413,2.4695,0.0,2.7632,2.8762,3.0105,3.1286,3.2102,3.2466,3.234,3.1512,3.165,3.17,3.1436,3.165,3.1926,3.2215,3.2227,3.2227,3.2227,3.17,3.165,3.2215,3.1436,3.1122,3.1386,3.0871,3.0482,3.0206,2.993,2.9792,2.9792,2.9792,2.9792,2.9792,2.9792,2.9792,2.9792,2.9792,2.9792,2.9704,2.885,2.8511,2.8411,2.7595,2.714,2.6933,2.7041,2.7384,2.7848,2.8437,2.9066,2.97,2.99,3.0411,3.0925,3.0991,3.1241,3.1511,3.1511,3.1511,3.1511,3.1511,3.1511,3.1511,3.1511,3.1511,3.1511,3.1511,3.1511,3.1511,3.1511,3.1511,3.1511,3.1511,3.1511,3.1511,3.1511,3.1511,3.163,3.1959,3.2693,3.3873,3.5598,3.6715,3.75,3.7882,3.8261,3.8447,3.8447,3.8802,3.8988,3.8988,3.9343,3.9554,3.9554,3.9926,4.0096,4.0096,3.9723,3.9757,0.0,0.0,0.0,0.0,0.0,0.0,0.0,0.0,2.3747,2.4356,2.5247,2.6126,2.6851,2.8122,2.9352,3.0131,3.1361,3.2252,3.2365,3.278,3.2867,3.2277,3.2303,3.234,3.2227,3.2215,3.2453,3.3031,3.2968,3.2998,3.3111,3.2215,3.2127,3.3056,3.1788,3.1235,3.1549,3.1022,3.0495,2.9942,2.9842,2.9792,2.9792,2.9792,2.9792,2.9792,2.9792,2.9792,2.9792,2.9792,2.9792,2.9704,2.8787,2.8298,2.8021,2.7369,2.6876,2.6589,2.7229,2.8019,2.8862,2.9456,2.9942,3.0376,3.0792,3.0734,3.0644,3.1158,3.1406,3.1511,3.1511,3.1511,3.1511,3.1511,3.1511,3.1511,3.1511,3.1511,3.1511,3.1511,3.1511,3.1511,3.1511,3.1511,3.1511,3.1511,3.1615,3.169,3.169,3.1809,3.2152,3.284,3.3624,3.4948,3.7036,3.8461,3.8954,3.8362,3.8886,3.9208,3.9208,3.9791,4.0096,4.0096,4.0096,4.0096,4.0096,4.0096,4.0096,4.0096,4.0096,4.0096,1.9698,1.971,2.0087,2.1644,2.2171,2.2811,0.0,0.0,2.5485,2.6097,2.67,2.7406,2.8461,2.9227,3.0193,3.17,3.2089,3.239,3.2905,3.3074,3.2867,3.2277,3.2667,3.278,3.2265,3.2215,3.2453,3.3031,3.2604,3.2528,3.3056,3.2998,3.2955,3.3124,3.2905,3.2579,3.2127,3.1574,3.1035,3.052,3.003,2.9792,2.9792,2.9792,2.9792,2.9792,2.9792,2.9792,2.9792,2.9792,2.9792,2.9779,2.9654,2.8988,2.7984,2.6964,2.6549,2.6499,2.6589,2.7162,2.7775,2.7418,2.8654,3.0113,2.9045,2.9971,3.1246,3.0763,3.1032,3.1511,3.1511,3.1511,3.1511,3.1511,3.1511,3.1511,3.1511,3.1511,3.1511,3.1511,3.1511,3.1511,3.1511,3.1511,3.1511,3.1511,3.2004,3.2378,3.2378,3.2916,3.3593,3.4378,3.5089,3.6362,3.8572,3.9505,3.9943,3.9859,3.9943,3.9977,3.9977,4.0062,4.0096,4.0096,4.0096,4.0096,4.0096,4.0096,4.0096,4.0096,4.0096,4.0096,2.069,2.1255,2.1879,0.0,2.3766,2.5003,2.5921,2.6603,2.7218,2.7783,2.8348,2.8988,2.9767,3.0357,3.1047,3.2051,3.2491,3.2805,3.3043,3.278,3.2478,3.224,3.2139,3.2001,3.1763,3.1738,3.1838,3.2077,3.2164,3.2315,3.2554,3.2265,3.224,3.2566,3.1964,3.1524,3.1286,3.106,3.067,3.0131,2.9905,2.9792,2.9792,2.9792,2.9792,2.9792,2.9792,2.9792,2.9792,2.9792,2.9792,2.9767,2.9415,2.88,2.8047,2.7595,2.7052,2.6499,2.6499,2.7351,2.8419,2.8207,2.9417,3.0896,3.0365,3.0803,3.1451,3.1152,3.1286,3.1511,3.1511,3.1511,3.1511,3.1511,3.1511,3.1511,3.1511,3.1511,3.1511,3.1511,3.1511,3.1511,3.1511,3.1824,3.2079,3.2079,3.2303,3.2647,3.3036,3.332,3.4106,3.5736,3.692,3.8124,3.9505,3.9926,4.0096,4.0096,4.0096,4.0096,4.0096,4.0096,4.0096,4.0096,4.0096,4.0096,4.0096,4.0096,4.0096,4.0096,4.0096,4.0096,2.1518,0.0,0.0,2.3822,2.5498,2.6989,2.714,2.7996,2.8863,2.9114,2.9503,2.9955,3.052,3.0922,3.1399,3.2102,3.2566,3.283,3.283,3.2478,3.2102,3.1813,3.1424,3.1122,3.0959,3.1085,3.1235,3.1386,3.1625,3.1901,3.219,3.1687,3.165,3.219,3.1311,3.0758,3.062,3.062,3.0331,2.9792,2.9792,2.9792,2.9792,2.9792,2.9792,2.9792,2.9792,2.9792,2.9792,2.9792,2.9792,2.9754,2.934,2.8737,2.8109,2.8109,2.7571,2.685,2.685,2.7953,2.9348,2.9348,3.0329,3.1511,3.1511,3.1511,3.1511,3.1511,3.1511,3.1511,3.1511,3.1511,3.1511,3.1511,3.1511,3.1511,3.1511,3.1511,3.1511,3.1511,3.1511,3.1511,3.1511,3.1899,3.2333,3.2736,3.2781,3.3021,3.3679,3.4319,3.5374,3.7182,3.8487,3.9463,4.0045,4.0096,4.0096,4.0096,4.0096,4.0096,4.0096,4.0096,4.0096,4.0096,4.0096,4.0096,4.0096,4.0096,4.0096,4.0096,4.0096,4.0096,2.1995,2.2309,2.2987,2.572,2.7218,2.8197,2.87,2.969,3.0394,2.988,2.9779,2.9955,3.052,3.062,3.0984,3.2039,3.2227,3.224,3.224,3.2227,3.1825,3.0783,3.0645,3.0432,2.9892,3.0331,3.0846,3.1348,3.0934,3.1122,3.2152,3.1687,3.165,3.219,3.1662,3.1122,3.062,3.062,3.0331,2.9792,2.9792,2.9792,2.9792,2.9792,2.9792,2.9792,2.9792,2.9792,2.9792,2.9792,2.9792,2.9792,2.9779,2.9089,2.8109,2.8109,2.7899,2.767,2.767,2.8812,3.0269,3.0269,3.0807,3.1511,3.1511,3.1511,3.1511,3.1511,3.1511,3.1511,3.1511,3.1511,3.1511,3.1511,3.1511,3.1511,3.1511,3.1511,3.1511,3.1511,3.1511,3.1511,3.1511,3.1525,3.1974,3.3275,3.3469,3.3709,3.4399,3.6347,3.7971,3.8767,3.9568,4.007,4.0096,4.0096,4.0096,4.0096,4.0096,4.0096,4.0096,4.0096,4.0096,4.0096,4.0096,4.0096,4.0096,4.0096,4.0096,4.0096,4.0096,4.0096,2.3547,2.4506,2.5493,2.7143,2.8398,2.9277,2.9465,3.008,3.0344,2.9415,2.8925,2.8725,2.8913,2.895,2.9315,3.0432,3.0922,3.1273,3.1625,3.1373,3.1022,3.0658,3.0294,2.9993,2.9817,2.9955,3.0143,3.0319,3.0821,3.1286,3.165,3.1486,3.1474,3.1662,3.0796,3.0244,3.0068,3.0068,2.998,2.9792,2.9792,2.9792,2.9792,2.9792,2.9792,2.9792,2.9792,2.9792,2.9792,2.9792,2.9792,2.9792,2.9792,2.9327,2.8612,2.8612,2.8827,2.8955,2.802,2.8844,3.0299,3.0299,3.0837,3.1511,3.1511,3.1511,3.1511,3.1511,3.1511,3.1511,3.1511,3.1511,3.1511,3.1511,3.1511,3.1511,3.1511,3.1511,3.1511,3.1511,3.1854,3.2153,3.2153,3.2901,3.3784,3.4696,3.5229,3.5646,3.586,3.7456,3.8635,3.8881,3.961,4.0096,4.0096,4.0096,4.0096,4.0096,4.0096,4.0096,4.0096,4.0096,4.0096,4.0096,4.0096,4.0096,4.0096,4.0096,4.0096,4.0096,4.0096,4.0096,2.4958,2.6063,2.7102,2.8386,2.9402,3.003,2.9829,3.0218,3.0231,2.8875,2.8197,2.7758,2.7557,2.7344,2.7645,2.8976,2.949,2.998,3.0721,3.0532,3.0319,3.0319,3.0005,2.9792,2.9792,2.9792,2.9792,2.9792,3.062,3.1198,3.1386,3.1386,3.1386,3.1386,3.0545,2.9993,2.9792,2.9792,2.9792,2.9792,2.9792,2.9792,2.9792,2.9792,2.9792,2.9792,2.9792,2.9792,2.9792,2.9792,2.9792,2.983,3.0177,2.9934,2.946,2.9803,3.0263,3.0462,2.8955,2.9435,3.0748,3.0748,3.1087,3.1511,3.1511,3.1511,3.1511,3.1511,3.1511,3.1555,3.1795,3.1854,3.1854,3.1854,3.1854,3.1795,3.1555,3.1511,3.1511,3.1511,3.2034,3.2512,3.2512,3.3604,3.4748,3.5439,3.6399,3.7024,3.7024,3.8101,3.9016,3.9289,3.9782,4.0096,4.0096,4.0096,4.0096,4.0096,4.0096,4.0096,4.0096,4.0096,4.0096,4.0096,4.0096,4.0096,4.0096,4.0096,4.0096,4.0096,4.0096,4.0096,2.6172,2.7027,2.7808,2.9428,3.0231,3.047,2.988,3.0131,3.0018,2.8323,2.7494,2.6939,0.0,2.5862,2.6063,2.7745,2.8072,2.8511,2.9679,2.9829,2.9842,2.9867,2.988,2.9867,2.9829,2.9867,2.9867,2.9829,3.0344,3.0871,3.1361,3.1386,3.1386,3.1348,3.0846,3.0319,2.9792,2.9792,2.9792,2.9792,2.9792,2.9792,2.9792,2.9792,2.9792,2.9792,2.9792,2.9779,2.9754,2.9779,2.9779,2.9857,3.0758,3.0863,3.0546,3.1437,3.1974,3.2033,3.0457,3.0614,3.1555,3.1511,3.1511,3.1511,3.1511,3.1511,3.1511,3.1511,3.1511,3.1645,3.2273,3.2452,3.2497,3.2452,3.2497,3.2303,3.1645,3.1511,3.1511,3.1511,3.2064,3.2557,3.2632,3.3725,3.4832,3.5565,3.6911,3.7863,3.7863,3.8497,3.9262,4.002,4.0096,4.0096,4.0096,4.0096,4.0096,4.0096,4.0096,4.0096,4.0096,4.0096,4.0096,4.0096,4.0096,4.0096,4.0096,4.0096,4.0096,4.0096,4.0096,4.0096,2.7846,2.8712,2.9352,3.0193,3.0507,3.0357,2.9327,2.8938,2.826,2.6578,2.5146,2.4123,2.3973,2.4217,2.4958,2.665,2.757,2.8649,3.0193,3.0407,3.0545,3.0934,3.0984,3.0834,3.0444,3.0758,3.0821,3.0432,3.0896,3.1248,3.1386,3.1386,3.121,3.0821,3.0281,2.993,2.9792,2.9792,2.9792,2.9792,2.9792,2.9792,2.9792,2.9792,2.9792,2.9792,2.9792,2.9553,2.9176,2.9616,2.9541,2.9189,2.9897,3.0505,3.1043,3.1273,3.1999,3.2723,3.1836,3.182,3.2153,3.166,3.1511,3.1511,3.1511,3.1511,3.1511,3.1511,3.1511,3.154,3.1705,3.2123,3.2363,3.1869,3.2123,3.2303,3.1645,3.1511,3.1511,3.1511,3.2422,3.3559,3.4577,3.5489,3.6122,3.6321,3.7646,3.8635,3.8635,3.9305,3.9859,4.007,4.0096,4.0096,4.0096,4.0096,4.0096,4.0096,4.0096,4.0096,4.0096,4.0096,4.0096,4.0096,4.0096,4.0096,4.0096,4.0096,4.0096,4.0096,4.0096,4.0096,2.8574,2.9352,2.9867,3.0181,3.0068,2.954,2.8461,2.777,2.6841,2.4908,2.3559,2.2669,2.2431,2.2673,2.3439,2.5141,2.6289,2.7595,2.9277,2.9942,3.0369,3.0658,3.1097,3.1185,3.067,3.0884,3.1122,3.1311,3.1587,3.165,3.1399,3.1625,3.1399,3.0633,3.0319,3.0043,2.9792,2.9792,2.9792,2.9792,2.9792,2.9792,2.9792,2.9792,2.9792,2.9779,2.9528,2.9365,2.9315,2.939,2.9365,2.9378,3.0113,3.0983,3.1852,3.2285,3.3148,3.4058,3.3384,3.3245,3.317,3.1914,3.1511,3.1511,3.1511,3.1511,3.1511,3.1511,3.1511,3.157,3.1854,3.2213,3.2422,3.2019,3.2213,3.2303,3.1645,3.1511,3.1675,3.2243,3.3215,3.4373,3.5761,3.6337,3.6843,3.7496,3.8342,3.9032,3.9368,3.9808,4.0096,4.0096,4.0096,4.0096,4.0096,4.0096,4.0096,4.0096,4.0096,4.0096,4.0096,4.0096,4.0096,4.0096,4.0096,4.0096,4.0096,4.0096,4.0096,4.0096,4.0096,4.0096,2.895,2.9465,2.9817,2.988,2.9352,2.8499,2.7419,2.6612,2.5468,2.3308,2.2393,2.1857,2.1455,2.1493,2.2146,2.3841,2.5008,2.6327,2.8084,2.9176,2.9842,2.9993,3.0896,3.1298,3.0771,3.0859,3.126,3.2051,3.2177,3.1976,3.1424,3.1775,3.1537,3.0545,3.0507,3.0281,2.9792,2.9792,2.9792,2.9792,2.9792,2.9792,2.9792,2.9792,2.9792,2.9767,2.9264,2.9289,2.9641,2.9353,2.9467,2.9973,3.0981,3.196,3.289,3.3705,3.4658,3.54,3.4711,3.4444,3.4084,3.2213,3.163,3.1615,3.1525,3.1511,3.1511,3.1511,3.1511,3.163,3.2213,3.2422,3.2497,3.2378,3.2452,3.2303,3.1645,3.157,3.1989,3.326,3.4116,3.5045,3.6369,3.6783,3.735,3.8701,3.8989,3.9315,4.002,4.0096,4.0096,4.0096,4.0096,4.0096,4.0096,4.0096,4.0096,4.0096,4.0096,4.0096,4.0096,4.0096,4.0096,4.0096,4.0096,4.0096,4.0096,4.0096,4.0096,4.0096,4.0096,4.0096,3.0004,3.0068,2.9905,3.0357,2.9352,2.7959,2.6889,2.5109,0.0,2.2046,2.0953,2.0351,2.0767,2.1556,2.2723,2.4374,2.5598,2.709,2.9202,2.9666,3.0118,3.1009,3.1675,3.1851,3.1311,3.2102,3.234,3.1587,3.1951,3.1976,3.1424,3.1072,3.0595,2.9955,2.993,2.9892,2.9792,2.9792,2.9792,2.9792,2.9792,2.9792,2.9792,2.9792,2.9792,2.9779,2.9691,2.9428,2.9139,3.031,3.0616,3.0414,3.1821,3.2925,3.3774,3.3945,3.4658,3.54,3.4711,3.4159,3.3514,3.2632,3.2318,3.2213,3.1675,3.1511,3.1511,3.1511,3.1511,3.1525,3.1645,3.2079,3.2348,3.1809,3.2093,3.2303,3.1645,3.1929,3.2572,3.335,3.4516,3.5674,3.6461,3.7671,3.8591,3.8854,3.9463,3.9952,4.007,4.0096,4.0096,4.0096,4.0096,4.0096,4.0096,4.0096,4.0096,4.0096,4.0096,4.0096,4.0096,4.0096,4.0096,4.0096,4.0096,4.0096,4.0096,4.0096,4.0096,4.0096,4.0096,4.0096,2.9955,2.9993,2.9854,3.0118,2.8712,2.6967,2.5862,0.0,0.0,2.084,2.0175,1.9886,2.0189,2.0918,2.1907,2.3288,2.4456,2.595,2.8172,2.8976,2.9654,3.047,3.1286,3.1574,3.1035,3.1474,3.1687,3.1411,3.1122,3.0959,3.0984,3.0482,3.0068,2.9804,2.9792,2.9792,2.9792,2.9792,2.9792,2.9792,2.9792,2.9792,2.9792,2.9792,2.9792,2.9779,2.9478,2.9365,2.9441,3.0379,3.0808,3.0957,3.214,3.3171,3.3993,3.3993,3.4658,3.5459,3.513,3.4562,3.3903,3.3245,3.2557,3.1974,3.2004,3.178,3.1511,3.1511,3.1511,3.1511,3.1511,3.1735,3.1899,3.1585,3.175,3.1884,3.157,3.2288,3.3125,3.344,3.462,3.5907,3.7037,3.7847,3.858,3.9394,3.9833,4.0096,4.0096,4.0096,4.0096,4.0096,4.0096,4.0096,4.0096,4.0096,4.0096,4.0096,4.0096,4.0096,4.0096,4.0096,4.0096,4.0096,4.0096,4.0096,4.0096,4.0096,4.0096,4.0096,4.0096,4.0096,2.9453,2.9691,2.9792,2.9792,2.8021,2.6047,2.5046,2.3,0.0,2.0012,1.9798,1.9798,1.9798,2.0302,2.1056,0.0,2.315,2.4582,2.6839,2.7959,2.8837,2.9528,3.057,3.106,3.0658,3.0721,3.0909,3.1198,3.0331,2.998,3.0419,3.003,2.9792,2.9792,2.9792,2.9792,2.9792,2.9792,2.9792,2.9792,2.9792,2.9792,2.9792,2.9792,2.9792,2.9767,2.9517,2.9644,3.0139,3.0864,3.1424,3.1888,3.2855,3.3671,3.4312,3.4312,3.4839,3.5489,3.534,3.4846,3.4219,3.3664,3.2706,3.1795,3.2168,3.1914,3.1511,3.1511,3.1511,3.1511,3.1511,3.1511,3.154,3.1675,3.1705,3.175,3.1899,3.2886,3.3709,3.3709,3.4935,3.6368,3.7589,3.8064,3.8707,3.9901,4.0096,4.0096,4.0096,4.0096,4.0096,4.0096,4.0096,4.0096,4.0096,4.0096,4.0096,4.0096,4.0096,4.0096,4.0096,4.0096,4.0096,4.0096,4.0096,4.0096,4.0096,4.0096,4.0096,4.0096,4.0096,4.0096,2.8825,2.939,2.9792,2.9792,2.772,2.5523,2.4913,0.0,2.0591,1.9924,1.9798,1.9798,1.9798,2.0302,2.1056,2.2133,0.0,2.3991,2.6248,2.709,2.7821,2.885,2.9966,3.067,3.058,3.1047,3.1135,3.0721,3.0131,2.9817,2.9867,2.9817,2.9792,2.9792,2.9792,2.9792,2.9792,2.9792,2.9792,2.9792,2.9792,2.9792,2.9792,2.9792,2.9792,2.9818,3.0631,3.1016,3.1217,3.294,3.3696,3.3842,3.4839,3.5279,3.5359,3.5359,3.5424,3.5415,3.4786,3.4143,3.3574,3.3514,3.3006,3.2317,3.1765,3.1555,3.1511,3.1511,3.1511,3.1511,3.1511,3.1511,3.1645,3.2243,3.2392,3.2557,3.3185,3.3873,3.4414,3.4414,3.6135,3.7648,3.7793,3.8968,3.9927,4.007,4.0096,4.0096,4.0096,4.0096,4.0096,4.0096,4.0096,4.0096,4.0096,4.0096,4.0096,4.0096,4.0096,4.0096,4.0096,4.0096,4.0096,4.0096,4.0096,4.0096,4.0096,4.0096,4.0096,4.0096,4.0096,4.0096,2.8097,2.9101,2.9704,2.9365,2.718,2.4996,2.4443,0.0,2.0075,1.9849,1.9798,1.9798,1.9798,2.0302,2.0943,2.1694,0.0,0.0,2.5209,2.5661,2.6465,2.8222,2.8837,2.9365,3.0055,3.0306,3.0344,3.0131,2.9917,2.9792,2.9792,2.9792,2.9792,2.9792,2.9792,2.9792,2.9792,2.9792,2.9792,2.9792,2.9792,2.9792,2.9792,2.9792,2.9792,2.9856,3.0796,3.1217,3.1352,3.3241,3.3993,3.4095,3.51,3.5504,3.5504,3.5504,3.5504,3.54,3.4711,3.4038,3.3425,3.3036,3.2422,3.1914,3.2049,3.1824,3.1511,3.1511,3.1511,3.1511,3.1511,3.1511,3.157,3.1824,3.2198,3.2557,3.2841,3.3724,3.4503,3.4503,3.5907,3.7249,3.7719,3.8679,3.9542,4.002,4.0096,4.0096,4.0096,4.0096,4.0096,4.0096,4.0096,4.0096,4.0096,4.0096,4.0096,4.0096,4.0096,4.0096,4.0096,4.0096,4.0096,4.0096,4.0096,4.0096,4.0096,4.0096,4.0096,4.0096,4.0096,4.0096,2.6477,2.7708,2.8461,2.8047,2.6092,2.4148,0.0,0.0,1.9798,1.9798,1.9798,1.9798,1.9798,2.0137,2.0679,0.0,0.0,2.2661,2.4343,2.4687,2.546,2.7155,2.7519,2.8168,2.9566,3.0024,3.0216,3.0216,3.0216,3.0216,3.0216,3.0216,3.0113,2.9792,2.9792,2.9792,2.9792,2.9792,2.9792,2.9792,2.9792,2.9792,2.9792,2.9792,2.9792,2.9869,3.1082,3.1609,3.1742,3.3671,3.4428,3.4509,3.5213,3.5504,3.5504,3.5504,3.537,3.51,3.4427,3.3754,3.3095,3.2407,3.1884,3.1585,3.2049,3.1869,3.1511,3.1511,3.1511,3.1555,3.175,3.1795,3.1899,3.2273,3.2766,3.3201,3.3608,3.4439,3.5198,3.5431,3.6456,3.7454,3.8019,3.8745,3.9463,4.002,4.0096,4.0096,4.0096,4.0096,4.0096,4.0096,4.0096,4.0096,4.0096,4.0096,4.0096,4.0096,4.0096,4.0096,4.0096,4.0096,4.0096,4.0096,4.0096,4.0096,4.0096,4.0096,4.0096,4.0096,4.0096,4.0096,2.3728,2.482,2.5636,2.5636,2.4381,2.2982,0.0,0.0,1.9798,1.9798,1.9798,1.9798,1.9798,1.9811,2.0175,2.1333,2.1493,0.0,2.3766,2.4481,2.5021,2.5561,2.616,2.7296,2.9302,3.0507,3.118,3.118,3.118,3.118,3.118,3.118,3.0758,2.983,2.9792,2.9792,2.9792,2.9792,2.9792,2.9792,2.9792,2.9792,2.9792,2.9792,2.9792,2.9895,3.1756,3.2593,3.2749,3.4673,3.5472,3.5504,3.5504,3.5504,3.5504,3.5504,3.507,3.4414,3.3724,3.308,3.2392,3.1735,3.1511,3.1511,3.1511,3.1511,3.1511,3.1511,3.1511,3.1645,3.2303,3.2497,3.2826,3.4159,3.4474,3.4859,3.6261,3.6553,3.6797,3.7616,3.8358,3.8881,3.8881,3.9558,4.0096,4.0096,4.0096,4.0096,4.0096,4.0096,4.0096,4.0096,4.0096,4.0096,4.0096,4.0096,4.0096,4.0096,4.0096,4.0096,4.0096,4.0096,4.0096,4.0096,4.0096,4.0096,4.0096,4.0096,4.0096,4.0096,4.0096,4.0096,2.2548,2.3929,2.4971,2.4607,2.3527,2.2393,2.1882,0.0,1.9798,1.9798,1.9798,1.9798,1.9798,2.0151,2.0654,2.1368,2.1807,0.0,0.0,2.3904,2.4976,2.6941,2.9244,3.0681,3.0659,3.1563,3.2177,3.2177,3.2177,3.2177,3.2177,3.2177,3.1439,2.9869,2.9792,3.0101,3.0758,3.0101,3.0101,3.0758,3.0101,2.9792,2.983,3.0444,3.0758,3.0871,3.2749,3.3567,3.3671,3.4953,3.5504,3.5504,3.5504,3.5504,3.5444,3.4981,3.4698,3.4354,3.3215,3.2691,3.2378,3.172,3.1511,3.1511,3.1511,3.1511,3.16,3.2049,3.2168,3.2228,3.2422,3.2841,3.317,3.314,3.3829,3.4753,3.5706,3.6274,3.6843,3.7632,3.8386,3.8908,3.8908,3.9584,4.0096,4.0096,4.0096,4.0096,4.0096,4.0096,4.0096,4.0096,4.0096,4.0096,4.0096,4.0096,4.0096,4.0096,4.0096,4.0096,4.0096,4.0096,4.0096,4.0096,4.0096,4.0096,4.0096,4.0096,4.0096,4.0096,4.0096,4.0096,0.0,2.182,2.2819,2.2498,2.2046,0.0,0.0,0.0,1.9798,1.9798,1.9798,1.9798,1.9798,2.01,2.0616,2.1395,2.1782,2.2346,2.3399,2.3988,2.5205,2.7617,3.0628,3.2173,3.1226,3.2331,3.3136,3.3136,3.3136,3.3136,3.3136,3.3136,3.2429,3.0884,3.0533,3.062,3.118,3.0279,3.0113,3.0658,3.0075,2.9792,2.983,3.0419,3.0871,3.1278,3.282,3.3671,0.0,3.51,3.5504,3.5504,3.5504,3.5355,3.5055,3.4668,3.4189,3.3619,3.2796,3.2318,3.2049,3.1645,3.1511,3.1511,3.1511,3.1511,3.1645,3.2303,3.2512,3.2632,3.3125,3.3559,3.3829,3.3679,3.4482,3.5492,3.6279,3.6977,3.7716,3.8513,3.9049,3.9342,3.9342,3.9782,4.0096,4.0096,4.0096,4.0096,4.0096,4.0096,4.0096,4.0096,4.0096,4.0096,4.0096,4.0096,4.0096,4.0096,4.0096,4.0096,4.0096,4.0096,4.0096,4.0096,4.0096,4.0096,4.0096,4.0096,4.0096,4.0096,4.0096,4.0096,0.0,1.8932,1.9748,1.9748,2.0175,2.049,0.0,0.0,0.0,1.9798,1.9798,1.9811,1.9861,1.9861,2.0238,2.1355,2.1543,2.2191,2.4048,2.4808,2.5929,2.7874,3.0791,3.2238,3.1249,3.2924,3.4095,3.4095,3.4095,3.4095,3.4095,3.4095,3.3705,3.282,3.1888,3.1389,3.1389,3.0457,3.0037,3.0113,3.0037,2.9998,2.9998,2.9998,3.0533,3.1462,3.2321,3.3241,3.4177,3.51,3.5504,3.5504,3.5444,3.504,3.4503,3.4399,3.3559,3.2497,3.2437,3.2019,3.1511,3.1511,3.1511,3.1511,3.1511,3.154,3.1705,3.2363,3.2617,3.2931,3.4189,3.4548,3.4728,3.5295,3.6024,3.6813,3.7632,3.8386,3.9139,3.9952,4.0096,4.0096,4.0096,4.0096,4.0096,4.0096,4.0096,4.0096,4.0096,4.0096,4.0096,4.0096,4.0096,4.0096,4.0096,4.0096,4.0096,4.0096,4.0096,4.0096,4.0096,4.0096,4.0096,4.0096,4.0096,4.0096,4.0096,4.0096,4.0096,4.0096,4.0096,4.0096,1.7413,0.0,1.9183,1.9183,1.961,1.9962,0.0,0.0,0.0,0.0,0.0,0.0,0.0,2.049,2.0855,2.1945,2.2121,2.2607,2.41,2.7056,2.9345,3.0033,3.2879,3.4206,3.2749,3.4138,3.5133,3.5133,3.5133,3.5133,3.5133,3.5133,3.5067,3.482,3.3856,3.3345,3.3345,3.2429,3.2285,3.2996,3.2299,3.1938,3.1938,3.1938,3.2464,3.3345,3.3602,3.4211,3.5166,3.5392,3.5504,3.5444,3.4921,3.4653,3.4384,3.335,3.2781,3.2437,3.1914,3.163,3.1511,3.1511,3.1511,3.1511,3.1511,3.1854,3.2392,3.308,3.3619,3.4114,3.4429,3.4861,3.5175,3.4801,3.569,3.6813,3.7632,3.8386,3.9139,3.9952,4.0096,4.0096,4.0096,4.0096,4.0096,4.0096,4.0096,4.0096,4.0096,4.0096,4.0096,4.0096,4.0096,4.0096,4.0096,4.0096,4.0096,4.0096,4.0096,4.0096,4.0096,4.0096,4.0096,4.0096,4.0096,4.0096,4.0096,4.0096,4.0096,4.0096,4.0096,4.0096,1.6898,1.7802,1.8694,1.8945,1.9384,1.9798,1.9798,0.0,0.0,0.0,0.0,0.0,0.0,2.0781,2.1374,2.1851,2.2706,2.3834,2.5327,2.838,3.0685,3.1326,3.3539,3.4803,3.424,3.4973,3.5504,3.5504,3.5504,3.5504,3.5504,3.5504,3.5355,3.504,3.4514,3.4155,3.3979,3.3066,3.2855,3.3345,3.2855,3.2455,3.2157,3.2469,3.2947,3.359,3.3863,3.4576,3.5489,3.516,3.504,3.4966,3.4292,3.3844,3.3484,3.2781,3.2317,3.1989,3.163,3.1511,3.1511,3.1511,3.1511,3.1511,3.1511,3.2168,3.3036,3.3395,3.3754,3.4158,3.4786,3.5235,3.5415,3.504,3.6076,3.7279,3.7706,3.8679,3.9584,4.002,4.0096,4.0096,4.0096,4.0096,4.0096,4.0096,4.0096,4.0096,4.0096,4.0096,4.0096,4.0096,4.0096,4.0096,4.0096,4.0096,4.0096,4.0096,4.0096,4.0096,4.0096,4.0096,4.0096,4.0096,4.0096,4.0096,4.0096,4.0343,4.0473,4.0473,4.0744,4.0885,1.6701,1.7531,1.8423,1.8781,1.9434,1.9952,1.9952,0.0,0.0,0.0,0.0,0.0,0.0,2.1172,2.2035,2.1964,2.3635,2.5591,2.7423,2.9479,3.1234,3.2338,3.3746,3.4848,3.5295,3.5444,3.5504,3.5504,3.5504,3.5459,3.5355,3.5355,3.504,3.4384,3.4354,3.4211,3.3941,3.3231,3.2891,3.2891,3.2891,3.2577,3.2053,3.2382,3.276,3.3184,3.3556,3.4284,3.516,3.4562,3.4354,3.4294,3.3604,3.3006,3.2497,3.2378,3.1989,3.1511,3.1511,3.1511,3.1511,3.1511,3.1511,3.1525,3.163,3.2437,3.338,3.3589,3.3724,3.4068,3.522,3.5504,3.5504,3.5504,3.6569,3.7661,3.7764,3.8914,3.9952,4.007,4.0096,4.0096,4.0096,4.0096,4.0096,4.0096,4.0096,4.0096,4.0096,4.0096,4.0096,4.0096,4.0096,4.0096,4.0096,4.0096,4.0096,4.0096,4.0096,4.0096,4.0096,4.0096,4.0096,4.0096,4.0179,4.0229,4.0229,4.0774,4.1041,4.1064,4.1556,4.181,1.7689,1.8446,1.8875,1.8434,1.9475,2.066,2.066,2.0194,0.0,0.0,0.0,0.0,0.0,2.2425,2.3463,2.3905,2.5684,2.7909,3.0366,3.1558,3.2661,3.3986,3.4857,3.516,3.4713,3.516,3.5504,3.5504,3.5504,3.525,3.4666,3.4668,3.4369,3.3664,3.3649,3.3632,3.3583,3.4006,3.4209,3.4209,3.4209,3.415,3.3999,3.276,3.2658,3.3386,3.2704,3.294,3.3799,3.3694,3.3649,3.3589,3.2916,3.2602,3.2437,3.1854,3.1585,3.1511,3.1511,3.1511,3.1511,3.1511,3.1511,3.1615,3.2168,3.2497,3.2901,3.4039,3.4756,3.525,3.5444,3.5504,3.5504,3.5504,3.6149,3.6964,3.7661,3.8486,3.9289,3.9969,4.0096,4.0096,4.0096,4.0096,4.0096,4.0096,4.0096,4.0096,4.0096,4.0096,4.0096,4.0096,4.0096,4.0096,4.0096,4.0096,4.0096,4.0096,4.0096,4.0096,4.0096,4.0096,4.0096,4.0096,4.0552,4.078,4.078,4.138,4.1664,4.1664,4.1768,4.181,1.7478,1.8385,1.9092,1.9132,2.0218,2.1293,2.1293,2.1051,0.0,0.0,0.0,0.0,0.0,2.3286,2.475,2.6404,2.7413,2.8551,3.0205,3.0995,3.1794,3.2766,3.3484,3.3903,3.3948,3.4233,3.4412,3.4412,3.4412,3.4277,3.3994,3.3948,3.3649,3.2976,3.2961,3.2617,3.1884,3.2901,3.3589,3.3948,3.3948,3.3769,3.3425,3.3038,3.2892,3.296,3.2905,3.3084,3.3469,3.311,3.2961,3.2901,3.2213,3.1959,3.1914,3.1615,3.1511,3.1511,3.1511,3.1511,3.1511,3.1511,3.1511,3.163,3.2288,3.2766,3.3245,3.4234,3.4728,3.504,3.5415,3.5814,3.6086,3.6086,3.6692,3.7469,3.8218,3.8663,3.9139,3.9952,4.0096,4.0096,4.0096,4.0096,4.0096,4.0096,4.0096,4.0096,4.0096,4.0096,4.0096,4.0096,4.0096,4.0096,4.0096,4.0096,4.0096,4.0096,4.0368,4.0528,4.0528,4.0861,4.103,4.103,4.1246,4.138,4.1402,4.1979,4.2282,4.2302,4.2581,4.2734,1.7203,1.8288,1.9426,1.9994,0.0,2.1741,2.1895,2.194,2.1979,0.0,0.0,0.0,0.0,2.4243,2.5962,2.8424,2.8758,2.9049,3.0138,3.0672,3.1225,3.1884,3.2407,3.2946,3.344,3.3499,3.3499,3.3499,3.3499,3.3425,3.3275,3.326,3.2961,3.2273,3.2093,3.1554,3.0507,3.139,3.2228,3.3036,3.3185,3.3006,3.2527,3.2706,3.2527,3.2063,3.2422,3.2662,3.2751,3.2243,3.2108,3.2198,3.1705,3.1511,3.1511,3.1511,3.1511,3.1511,3.1511,3.1511,3.1511,3.1511,3.1511,3.163,3.2288,3.2976,3.3634,3.4324,3.4623,3.4846,3.537,3.5926,3.6384,3.6554,3.6919,3.7573,3.8663,3.8772,3.8924,3.9901,4.0096,4.0096,4.0096,4.0096,4.0096,4.0096,4.0096,4.0096,4.0096,4.0096,4.0096,4.0096,4.0096,4.0096,4.0096,4.0096,4.0096,4.0096,4.0497,4.0709,4.0709,4.1268,4.1599,4.1599,4.1874,4.2,4.2,4.2598,4.2883,4.2902,4.3303,4.3515,1.7362,1.8598,1.9998,2.0673,2.126,2.1864,2.2497,2.2635,0.0,2.3416,0.0,0.0,2.4558,2.56,2.7146,2.919,2.9522,3.0152,3.2019,3.2347,3.2617,3.3275,3.3395,3.344,3.3499,3.3499,3.3499,3.3499,3.3499,3.323,3.2617,3.2557,3.2243,3.1585,3.0986,3.0597,3.0507,3.0028,3.0432,3.1645,3.2258,3.2557,3.2452,3.127,3.0687,3.0627,3.0088,3.0193,3.0717,3.0672,3.1002,3.157,3.1525,3.1511,3.1511,3.1511,3.1511,3.1511,3.1511,3.1511,3.1511,3.1511,3.1511,3.163,3.2288,3.2976,3.3634,3.4324,3.4936,3.5444,3.5489,3.5537,3.575,3.6446,3.6117,3.6243,3.8425,3.8358,3.8318,3.9825,4.0096,4.0096,4.0096,4.0096,4.0096,4.0096,4.0096,4.0096,4.0096,4.0096,4.0096,4.0096,4.0096,4.0096,4.0096,4.0096,4.0096,4.0096,4.0146,4.0171,4.0171,4.0679,4.0972,4.0972,4.2062,4.2635,4.2635,4.3178,4.3444,4.3444,4.3479,4.3515,1.7735,1.8857,2.0128,2.1154,2.1846,0.0,0.0,2.3588,2.3964,2.421,2.4796,0.0,2.5795,2.6946,2.8083,2.8846,2.9337,2.9983,3.1106,3.0926,3.1076,3.2123,3.1898,3.1809,3.2213,3.2243,3.2243,3.2243,3.2243,3.2138,3.1884,3.1466,3.115,3.0883,3.0268,2.9729,2.9325,2.9517,2.9624,2.9687,3.0372,3.0702,3.0672,3.0163,2.9924,2.9924,2.9711,2.9714,2.9924,2.9924,3.0313,3.0913,3.1331,3.1511,3.1511,3.1511,3.1511,3.1511,3.1511,3.1511,3.1511,3.1511,3.1511,3.163,3.2288,3.2691,3.3095,3.4173,3.4698,3.4966,3.5385,3.5831,3.6368,3.716,3.7145,3.7427,3.9236,3.9032,3.8816,3.9901,4.0096,4.0096,4.0096,4.0096,4.0096,4.0096,4.0096,4.0096,4.0096,4.0096,4.0096,4.0096,4.0096,4.0096,4.0096,4.0096,4.0096,4.0096,4.0417,4.0601,4.0601,4.1512,4.2021,4.2021,4.279,4.3196,4.3196,4.341,4.3515,4.3515,4.3515,4.3515,1.7747,1.8703,1.987,2.1138,0.0,0.0,2.3415,2.4276,2.4918,2.4918,2.563,2.6363,2.6836,2.7675,2.8353,2.8562,2.8981,2.949,3.0118,2.9849,2.9909,3.0806,3.0672,3.0612,3.0853,3.1256,3.1406,3.1197,3.1182,3.1182,3.1182,3.0567,3.0223,3.0223,2.9609,2.9056,2.8607,2.8858,2.8753,2.8278,2.8753,2.9202,2.9592,2.9397,2.9265,2.9265,2.9067,2.9097,2.9265,2.9265,2.9639,3.0253,3.0731,3.1017,3.1182,3.1182,3.1316,3.1511,3.1511,3.1511,3.1511,3.1511,3.1511,3.1585,3.2049,3.2318,3.2706,3.3604,3.4189,3.4623,3.5055,3.5728,3.6508,3.7544,3.7602,3.7905,3.9705,3.9463,3.9139,3.9952,4.0096,4.0096,4.0096,4.0096,4.0096,4.0096,4.0096,4.0096,4.0096,4.0096,4.0096,4.0096,4.0096,4.0096,4.0096,4.0096,4.0096,4.0096,4.0424,4.0655,4.0655,4.1617,4.2142,4.2142,4.2884,4.325,4.325,4.341,4.3515,4.3515,4.3515,4.3515,1.7312,1.8086,1.9243,2.0567,0.0,0.0,2.331,2.4642,2.5576,2.5615,2.6662,2.76,2.76,2.76,2.7824,2.8472,2.8592,2.8816,2.9517,2.9592,2.9592,2.9606,3.0118,3.0253,2.9666,3.0746,3.1212,3.0552,3.0492,3.0492,3.0492,2.9909,2.9592,2.9592,2.8936,2.8592,2.8592,2.7944,2.76,2.76,2.76,2.8304,2.9577,2.8891,2.8592,2.8547,2.7899,2.7989,2.8592,2.8607,2.8981,2.9592,2.9606,2.9968,3.0507,3.0492,3.0913,3.1511,3.1496,3.1496,3.1511,3.1511,3.1511,3.1511,3.1511,3.1959,3.2497,3.2512,3.3455,3.4488,3.4503,3.4981,3.5878,3.7442,3.7174,3.7247,3.9584,3.9463,3.9139,3.9952,4.0096,4.0096,4.0096,4.0096,4.0096,4.0096,4.0096,4.0096,4.0096,4.0096,4.0096,4.0096,4.0096,4.0096,4.0096,4.0096,4.0096,4.0096,4.0096,4.0096,4.0096,4.0625,4.0903,4.0903,4.2101,4.2693,4.2711,4.3232,4.3515,4.3515,4.3515,4.3515,1.7867,1.8991,0.0,2.1241,0.0,0.0,0.0,2.4261,0.0,0.0,2.7001,2.76,2.76,2.76,2.766,2.7869,2.7899,2.8139,2.8801,2.8498,2.8543,2.9502,2.934,2.928,2.9577,2.9939,3.0073,2.9864,2.9864,2.9864,2.9864,2.925,2.8891,2.8891,2.8259,2.7899,2.7899,2.7705,2.76,2.76,2.76,2.7809,2.8184,2.7989,2.7899,2.7899,2.769,2.7705,2.7944,2.8397,2.8712,2.8936,2.9427,2.9968,3.0447,3.0013,3.0567,3.1436,3.0943,3.1092,3.1511,3.1511,3.1511,3.1511,3.1511,3.1645,3.1884,3.2377,3.2796,3.3305,3.4264,3.4653,3.5304,3.7316,3.7632,3.7933,3.9731,3.9901,3.9808,4.0045,4.0096,4.0096,4.0096,4.0096,4.0096,4.0096,4.0096,4.0096,4.0096,4.0096,4.0096,4.0096,4.0096,4.0096,4.0096,4.0096,4.0096,4.0096,4.0096,4.0096,4.0096,4.0625,4.111,4.1534,4.2302,4.2883,4.3268,4.3427,4.3515,4.3515,4.3515,4.3515,1.7987,1.8892,0.0,2.1038,2.1821,2.2526,2.3405,0.0,0.0,2.6378,2.7136,2.76,2.76,2.76,2.76,2.76,2.76,2.775,2.8154,2.7854,2.7899,2.8708,2.8667,2.8652,2.8798,2.9292,2.9502,2.9205,2.919,2.919,2.919,2.8562,2.8188,2.8188,2.7809,2.76,2.76,2.76,2.76,2.76,2.76,2.76,2.76,2.76,2.76,2.76,2.76,2.76,2.763,2.8049,2.8188,2.8233,2.8663,2.9175,2.9699,2.9325,2.9864,3.0731,3.0567,3.0612,3.0823,3.1331,3.1316,3.1152,3.1421,3.1511,3.1585,3.1989,3.2288,3.2706,3.3499,3.4114,3.4984,3.6883,3.7573,3.8121,3.9358,3.9859,4.0096,4.0096,4.0096,4.0096,4.0096,4.0096,4.0096,4.0096,4.0096,4.0096,4.0096,4.0096,4.0096,4.0096,4.0096,4.0096,4.0096,4.0096,4.0096,4.0096,4.0096,4.0096,4.0096,4.0625,4.1064,4.1446,4.2282,4.2864,4.3178,4.3392,4.3515,4.3515,4.3515,4.3515,1.7767,1.8165,1.8647,2.0225,2.1205,2.2098,2.3331,2.4597,2.5689,2.6288,2.7061,2.7555,2.7435,2.751,2.757,2.7525,2.7555,2.76,2.76,2.76,2.76,2.76,2.8154,2.8263,2.766,2.8708,2.9172,2.8547,2.8502,2.8502,2.8502,2.7944,2.76,2.76,2.76,2.76,2.76,2.76,2.76,2.76,2.76,2.76,2.76,2.76,2.76,2.76,2.76,2.76,2.76,2.76,2.76,2.76,2.76,2.8019,2.8592,2.8532,2.8966,2.9696,3.0223,3.0088,2.9864,3.1092,3.1077,3.0717,3.1316,3.1511,3.1511,3.1511,3.1929,3.2407,3.2467,3.3395,3.4662,3.5999,3.7035,3.7921,3.8718,3.9463,4.002,4.007,4.0096,4.0096,4.0096,4.0096,4.0096,4.0096,4.0096,4.0096,4.0096,4.0096,4.0096,4.0096,4.0096,4.0096,4.0096,4.0096,4.0096,4.0096,4.0096,4.0096,4.0096,4.0577,4.0833,4.0903,4.1979,4.2596,4.2711,4.3196,4.3444,4.3515,4.3515,4.3515,1.7415,1.8133,0.0,1.9852,2.1302,2.2693,2.3435,2.4216,2.4859,2.4993,2.6393,2.7285,2.6213,2.6896,2.742,2.6911,2.727,2.76,2.76,2.76,2.76,2.76,2.772,2.7764,2.76,2.7854,2.7974,2.7824,2.7824,2.7824,2.7824,2.7675,2.76,2.76,2.76,2.76,2.76,2.76,2.76,2.76,2.76,2.76,2.76,2.76,2.76,2.76,2.76,2.76,2.76,2.76,2.76,2.76,2.76,2.8019,2.8532,2.8019,2.8573,2.9636,2.9756,3.0013,3.0447,3.1241,3.1406,3.1316,3.1466,3.1511,3.1511,3.1511,3.16,3.1839,3.2348,3.2721,3.3126,3.3985,3.5554,3.7217,3.8591,3.9032,3.9342,3.9978,4.0096,4.0096,4.0096,4.0096,4.0096,4.0096,4.0096,4.0096,4.0096,4.0096,4.0096,4.0096,4.0096,4.0096,4.0096,4.0096,4.0096,4.0096,4.0096,4.0096,4.0096,4.0204,4.0473,4.088,4.1155,4.175,4.2711,4.2826,4.3105,4.3515,4.3515,4.3515,1.7229,1.7943,0.0,2.003,0.0,2.2035,2.2965,2.3679,2.4256,2.4537,2.5944,2.6926,2.6213,2.6632,2.7016,2.6647,2.6896,2.724,2.754,2.76,2.76,2.76,2.76,2.76,2.76,2.76,2.76,2.76,2.76,2.76,2.76,2.76,2.76,2.76,2.76,2.76,2.76,2.76,2.76,2.76,2.76,2.76,2.76,2.76,2.76,2.76,2.76,2.76,2.76,2.76,2.76,2.76,2.76,2.7809,2.8094,2.7735,2.8049,2.8693,2.8996,2.9325,2.9759,3.0703,3.1017,3.1077,3.1406,3.1511,3.1511,3.1511,3.1511,3.1585,3.1929,3.2243,3.2602,3.2946,3.4607,3.6433,3.7628,3.8428,3.9139,3.9952,4.0096,4.0096,4.0096,4.0096,4.0096,4.0096,4.0096,4.0096,4.0096,4.0096,4.0096,4.0096,4.0096,4.0096,4.0096,4.0096,4.0096,4.0096,4.0096,4.0096,4.0096,4.0096,4.0343,4.088,4.1468,4.208,4.2711,4.2958,4.3232,4.3515,4.3515,4.3515,1.7034,1.767,1.8597,2.0253,2.0729,0.0,2.2267,2.2958,2.3524,2.4135,2.5429,2.6422,2.6422,2.6422,2.6422,2.6422,2.6512,2.6806,2.7345,2.7525,2.76,2.76,2.76,2.76,2.76,2.76,2.76,2.76,2.76,2.76,2.76,2.76,2.76,2.76,2.76,2.76,2.76,2.76,2.76,2.76,2.76,2.76,2.76,2.76,2.76,2.76,2.76,2.76,2.76,2.76,2.76,2.76,2.76,2.76,2.76,2.76,2.76,2.7705,2.8368,2.8607,2.8786,2.9953,3.0417,3.0612,3.1152,3.1406,3.1511,3.1511,3.1511,3.1511,3.1511,3.1914,3.2318,3.2318,3.3711,3.5371,3.6386,3.7535,3.8675,3.9725,4.0011,4.0096,4.0096,4.0096,4.0096,4.0096,4.0096,4.0096,4.0096,4.0096,4.0096,4.0096,4.0096,4.0096,4.0096,4.0096,4.0096,4.0096,4.0096,4.0096,4.0096,4.0096,4.0311,4.0756,4.1832,4.2382,4.2382,4.2922,4.3214,4.3214,4.3303,4.3375,1.6595,0.0,1.8508,0.0,2.045,2.0979,2.1687,2.1884,2.2154,2.2808,2.4437,2.5734,2.5734,2.5734,2.5734,2.5734,2.6213,2.6617,2.6707,2.724,2.76,2.76,2.76,2.76,2.76,2.76,2.76,2.76,2.76,2.76,2.76,2.76,2.76,2.76,2.76,2.76,2.76,2.76,2.76,2.76,2.76,2.76,2.76,2.76,2.76,2.76,2.76,2.76,2.76,2.76,2.76,2.76,2.76,2.76,2.76,2.76,2.76,2.7705,2.8368,2.8607,2.8727,2.946,3.0058,3.0522,3.0612,3.1032,3.1511,3.1511,3.1511,3.1511,3.1511,3.157,3.163,3.163,3.2287,3.3436,3.5435,3.5984,3.6744,3.8748,3.9673,4.0096,4.0096,4.0096,4.0096,4.0096,4.0096,4.0096,4.0096,4.0096,4.0096,4.0096,4.0096,4.0096,4.0096,4.0096,4.0096,4.0096,4.0096,4.0096,4.0096,4.0096,4.0146,4.0204,4.0821,4.1155,4.1155,4.175,4.2041,4.2041,4.2559,4.2807,1.6262,1.68,1.7562,0.0,1.9628,2.0046,2.0973,2.121,2.1469,2.2501,2.3092,2.3639,2.4408,2.4529,2.4661,2.4992,2.5277,2.5749,2.6482,2.6866,2.718,2.7555,2.76,2.76,2.76,2.76,2.76,2.76,2.76,2.76,2.76,2.76,2.76,2.76,2.76,2.76,2.76,2.76,2.76,2.76,2.76,2.7405,2.7046,2.7046,2.724,2.76,2.76,2.76,2.76,2.76,2.76,2.76,2.76,2.76,2.76,2.76,2.76,2.7645,2.7944,2.8278,2.8652,2.8936,2.946,2.9983,2.9983,3.0193,3.0447,3.0447,3.0687,3.0928,3.0928,3.1212,3.1511,3.1511,3.1735,3.2309,3.367,3.4593,3.5669,3.7426,3.8361,3.887,3.887,3.9191,3.9486,3.9486,3.9842,3.996,3.9554,3.9842,3.9943,3.9537,3.9859,4.0096,4.0096,4.0096,4.0096,4.0096,4.0096,4.0096,4.0096,4.0096,4.0096,4.0096,4.0631,4.0903,4.0903,4.1512,4.181,4.181,4.208,4.238,1.5926,0.0,1.675,1.8236,1.8795,1.9257,2.0136,2.0455,2.0814,2.1776,2.158,2.1561,2.2756,2.3103,2.3396,2.4005,2.4103,2.4464,2.5482,2.6032,2.653,2.703,2.7227,2.7382,2.7575,2.7433,2.7408,2.76,2.76,2.76,2.76,2.76,2.76,2.76,2.76,2.76,2.76,2.76,2.751,2.7345,2.7345,2.7091,2.6587,2.6422,2.6529,2.6877,2.7016,2.7195,2.7345,2.7345,2.745,2.76,2.76,2.76,2.757,2.7405,2.745,2.757,2.7405,2.7794,2.8338,2.8338,2.8786,2.9367,2.9367,2.9472,2.9606,2.9606,3.0028,3.0507,3.0507,3.0987,3.1511,3.1511,3.1511,3.1682,3.2437,3.3727,3.5015,3.6043,3.687,3.7426,3.759,3.8092,3.8495,3.8676,3.9174,3.9419,3.9039,3.9486,3.969,3.9334,3.9774,4.0096,4.0096,4.0096,4.0096,4.0096,4.0096,4.0096,4.0096,4.0096,4.0096,4.0096,4.0497,4.0703,4.0703,4.1291,4.149,4.1375,4.1682,4.2041,0.0,1.6015,0.0,1.7302,1.8254,1.9008,1.9082,1.9497,1.9862,1.9939,1.9914,2.0105,2.081,2.142,2.2017,2.27,2.2797,2.2825,2.2881,2.448,2.5658,2.5702,2.62,2.6826,2.7534,2.6956,2.6852,2.7549,2.76,2.76,2.76,2.76,2.76,2.76,2.76,2.76,2.76,2.76,2.7285,2.6632,2.6632,2.6617,2.6572,2.5944,2.5375,2.4878,2.5453,2.6063,2.6632,2.6632,2.7031,2.76,2.76,2.76,2.7525,2.6896,2.7061,2.751,2.6881,2.7106,2.7645,2.7645,2.8124,2.8652,2.8652,2.9086,2.9606,2.9606,3.0028,3.0507,3.0507,3.0987,3.1511,3.1511,3.1511,3.1682,3.2437,3.3702,3.4718,3.4781,3.5391,3.6108,3.6734,3.6894,3.7161,3.7843,3.799,3.8261,3.8903,3.9022,3.9292,3.9977,4.0079,4.0096,4.0096,4.0096,4.0096,4.0096,4.0096,4.0096,4.0096,4.0096,4.0096,4.0096,4.0121,4.0146,4.0146,4.0679,4.0679,4.0204,4.1286,4.1832,0.0,0.0,0.0,1.6417,1.7058,1.7629,1.8734,1.9146,1.9371,1.9736,1.9798,1.9875,2.0105,2.0683,2.1326,2.1966,2.2066,2.2204,2.2643,2.3297,2.3906,2.4326,2.488,2.5325,2.5574,2.5733,2.6095,2.6826,2.6878,2.7086,2.7575,2.76,2.76,2.76,2.718,2.6761,2.6318,2.6318,2.6198,2.5959,2.5959,2.553,2.4731,2.4891,2.4397,2.3447,2.4007,2.4898,2.5975,2.599,2.6638,2.7555,2.7136,2.6971,2.6941,2.6701,2.6761,2.7001,2.718,2.7405,2.76,2.76,2.7764,2.7959,2.7959,2.8139,2.8319,2.8319,2.9097,2.9909,2.9909,3.0717,3.1391,3.0943,3.1182,3.1462,3.1278,3.2353,3.3336,3.3336,3.3911,3.4465,3.4681,3.5495,3.6199,3.6455,3.7287,3.8007,3.8261,3.87,3.9089,3.9385,3.9825,4.0096,4.0096,4.0096,4.0096,4.0096,4.0096,4.0096,4.0096,4.0096,4.0096,4.0096,4.0096,4.0096,4.0096,4.0286,4.0286,4.0121,4.0868,4.1424,1.3647,0.0,0.0,1.5487,1.6126,1.6691,1.7848,1.8573,1.9096,1.9447,1.9673,1.9798,1.9798,2.0144,2.0597,2.0988,2.1062,2.1233,2.1661,2.2129,2.2576,2.2999,2.3547,2.4038,2.4458,2.4641,2.5232,2.6416,2.651,2.6826,2.756,2.76,2.7495,2.727,2.6602,2.5944,2.5262,2.5495,2.5495,2.5247,2.5247,2.4716,2.3701,2.4103,2.3455,2.2072,2.2644,2.3778,2.5239,2.551,2.6115,2.6857,2.6654,2.645,2.6234,2.626,2.6408,2.6647,2.7121,2.7405,2.76,2.76,2.76,2.76,2.76,2.76,2.76,2.76,2.8408,2.925,2.925,3.0208,3.0987,3.0357,3.0853,3.1316,3.0657,3.141,3.2216,3.2216,3.2598,3.2971,3.3209,3.4034,3.4801,3.5251,3.6154,3.6959,3.7476,3.7956,3.8447,3.8937,3.9453,3.9842,4.0079,4.0096,4.0096,4.0096,4.0096,4.0096,4.0096,4.0096,4.0096,4.0096,4.0096,4.0096,4.0096,4.0096,4.0096,4.0121,4.0655,4.1206,0.0,0.0,0.0,1.4514,1.551,1.6325,1.636,1.7677,1.8908,1.897,1.9396,1.976,1.9798,1.9798,1.9798,1.9798,1.9798,1.9798,1.9798,2.0914,2.173,2.173,2.222,2.3031,2.4255,2.3742,2.419,2.6236,2.6414,2.6745,2.7454,2.7545,2.723,2.6572,2.5929,2.5247,2.459,2.5217,2.5202,2.4575,2.4575,2.425,2.3634,2.3592,2.2552,2.082,2.1452,2.273,2.4472,2.5124,2.5364,2.5425,2.618,2.6041,2.5438,2.5533,2.5965,2.6557,2.6572,2.7046,2.76,2.76,2.76,2.76,2.76,2.76,2.76,2.76,2.8094,2.8607,2.8622,2.9549,3.0313,2.9726,3.0552,3.1286,3.0627,3.1002,3.1511,3.1511,3.1511,3.171,3.2437,3.2602,3.3071,3.4415,3.4609,3.5169,3.6635,3.6812,3.7371,3.8802,3.8988,3.9276,4.0011,4.0096,4.0096,4.0096,4.0096,4.0096,4.0096,4.0096,4.0096,4.0096,4.0096,4.0096,4.0096,4.0096,4.0096,4.0121,4.0655,4.1206,1.3104,0.0,0.0,0.0,0.0,0.0,1.5562,1.6134,1.6819,1.8088,1.8468,1.8814,1.9646,1.9798,1.9798,1.9798,1.9798,1.9798,1.9798,2.013,2.0348,2.0348,2.0871,2.136,2.1716,2.1926,2.2498,2.3608,2.4512,2.5135,2.5346,2.5827,2.6021,2.5875,2.5217,2.4545,2.3879,2.4059,2.4059,2.3879,2.3879,2.3302,2.2268,2.2729,2.2161,2.0822,2.1382,2.1919,2.2407,2.2697,2.3351,2.4133,2.3875,2.3955,2.4197,2.4214,2.4935,2.5959,2.6422,2.7046,2.76,2.76,2.76,2.76,2.76,2.76,2.76,2.76,2.8094,2.8712,2.919,2.9564,2.9669,2.9026,2.9849,3.0612,2.9968,3.0731,3.1511,3.1511,3.1511,3.1553,3.1768,3.2599,3.3572,3.4533,3.5043,3.5876,3.7388,3.7134,3.7168,3.8108,3.8684,3.9073,3.9276,3.9791,4.0096,4.0096,4.0096,4.0096,4.0096,4.0096,4.0096,4.0096,4.0096,4.0096,4.0096,4.0096,4.0096,4.0121,4.0655,4.1206,0.0,0.0,0.0,1.3334,0.0,0.0,1.4631,1.5172,1.586,1.7145,1.7602,1.8066,1.8971,1.9044,1.9116,1.9421,1.9391,1.9449,1.9747,1.9798,1.9798,1.9798,2.01,2.0427,2.0666,2.0981,2.1573,2.2524,2.3299,2.3944,2.4458,2.4875,2.5094,2.5134,2.4528,2.4014,2.3595,2.3355,2.3209,2.3209,2.2935,2.2285,2.1342,2.1983,2.1582,2.0422,2.1,2.1106,2.0875,2.0939,2.1668,2.2777,2.2709,2.2748,2.2846,2.3162,2.3741,2.4534,2.5482,2.6243,2.6855,2.7106,2.7375,2.76,2.76,2.76,2.76,2.76,2.7884,2.8263,2.8663,2.8978,2.8996,2.8323,2.937,3.0328,2.9714,3.0612,3.1511,3.1511,3.1511,3.1511,3.1511,3.2382,3.3352,3.4101,3.5027,3.6076,3.7261,3.7047,3.7202,3.8244,3.8464,3.8785,3.9419,3.9859,4.0096,4.0096,4.0096,4.0096,4.0096,4.0096,4.0096,4.0096,4.0096,4.0096,4.0096,4.0096,4.0096,4.0096,4.0417,4.075,0.0,0.0,0.0,1.2905,1.331,0.0,1.3708,1.4478,1.5394,1.6068,1.6633,1.7207,1.7894,1.7835,1.7958,1.8672,1.8695,1.8919,1.9683,1.9798,1.9798,1.9798,1.9798,1.9999,2.0541,2.0591,2.1074,2.2207,2.2365,2.2991,2.4347,2.432,2.4294,2.4294,2.3842,2.3573,2.3508,2.2965,2.2694,2.2694,2.2016,2.139,2.082,2.1366,2.0953,1.9824,2.0421,2.0346,1.9798,1.9798,2.0388,2.138,2.2105,2.203,2.1586,2.2256,2.257,2.2867,2.4069,2.4962,2.5676,2.6273,2.6882,2.739,2.7465,2.748,2.7495,2.757,2.76,2.76,2.76,2.8049,2.8323,2.775,2.8992,3.0163,2.9711,3.0552,3.1406,3.1496,3.1511,3.1511,3.1511,3.2049,3.2749,3.353,3.4723,3.5857,3.6605,3.6757,3.7303,3.8616,3.8311,3.8548,3.9876,4.0045,4.0096,4.0096,4.0096,4.0096,4.0096,4.0096,4.0096,4.0096,4.0096,4.0096,4.0096,4.0096,4.0096,4.0096,4.0096,4.0096,1.2749,1.2905,1.2905,1.2905,1.2992,0.0,1.3079,1.3246,1.3703,1.4744,1.5042,1.5449,1.6545,1.6731,1.685,1.7304,1.7857,1.8586,1.9658,1.9798,1.9798,1.9798,1.9798,1.9849,1.9962,1.9974,2.009,2.0321,2.0791,2.1877,2.3776,2.3298,2.3003,2.3052,2.3403,2.3377,2.2875,2.2762,2.2694,2.2694,2.2016,2.139,2.0795,2.0906,2.0547,1.9798,1.9927,1.9927,1.9798,1.9798,1.9924,2.0151,2.0297,2.0615,2.0967,2.1116,2.1819,2.2737,2.301,2.3879,2.4978,2.56,2.5884,2.6093,2.6617,2.6806,2.6926,2.745,2.76,2.76,2.76,2.7705,2.7764,2.763,2.8319,2.9086,2.9517,3.0178,3.0838,3.1406,3.1511,3.1511,3.1511,3.2049,3.2944,3.4266,3.4672,3.5277,3.6556,3.6757,3.6914,3.7202,3.8142,3.8903,3.9174,3.9757,4.0096,4.0096,4.0096,4.0096,4.0096,4.0096,4.0096,4.0096,4.0096,4.0096,4.0096,4.0096,4.0096,4.0096,4.0096,4.0096,1.2236,1.2344,1.2452,1.2798,1.2608,0.0,0.0,1.2905,1.3149,1.4024,1.4211,1.4478,1.538,1.5479,1.5587,1.6157,1.6469,1.6999,1.7969,1.9091,1.9669,1.9293,1.9579,1.9798,1.9798,1.9798,1.9798,1.9798,2.0365,2.114,2.2154,2.2147,2.2125,2.215,2.2494,2.2515,2.2193,2.1903,2.1752,2.1752,2.1075,2.0595,2.0295,2.0295,2.0131,1.9798,1.9798,1.9798,1.9798,1.9798,1.9798,1.9798,1.9798,2.0003,2.0295,2.0295,2.0704,2.1305,2.1643,2.2396,2.3348,2.3971,2.4605,2.5202,2.555,2.61,2.6746,2.7405,2.76,2.76,2.76,2.76,2.76,2.76,2.8124,2.8786,2.9472,3.0058,3.0717,3.1376,3.1511,3.1511,3.1511,3.2049,3.2736,3.3496,3.419,3.5038,3.6076,3.6216,3.6662,3.778,3.8227,3.8751,3.9503,3.9893,4.0096,4.0096,4.0096,4.0096,4.0096,4.0096,4.0096,4.0096,4.0096,4.0096,4.0096,4.0096,4.0096,4.0096,4.0096,4.0096,1.1639,1.1706,1.1822,1.2357,1.2138,1.1922,0.0,0.0,0.0,1.314,1.3226,1.3416,1.4029,1.4003,1.4132,1.4884,1.5053,1.5263,1.5777,1.7759,1.8935,1.8312,1.8995,1.9482,1.9482,1.9658,1.9798,1.9798,2.0264,2.0528,2.0528,2.1095,2.1392,2.1263,2.1537,2.1625,2.152,2.1053,2.0795,2.0795,2.0131,1.9798,1.9798,1.9798,1.9798,1.9798,1.9798,1.9798,1.9798,1.9798,1.9798,1.9798,1.9798,1.9798,1.9798,1.9798,1.9798,1.9875,2.0421,2.1102,2.1859,2.2351,2.3428,2.4505,2.4505,2.5408,2.6542,2.7225,2.7495,2.76,2.76,2.76,2.76,2.76,2.8019,2.8622,2.9442,2.9968,3.0567,3.1346,3.1511,3.1511,3.1511,3.1944,3.2333,3.2497,3.3521,3.4588,3.5404,3.5593,3.6481,3.856,3.8379,3.865,3.9994,4.0096,4.0096,4.0096,4.0096,4.0096,4.0096,4.0096,4.0096,4.0096,4.0096,4.0096,4.0096,4.0096,4.0096,4.0096,4.0096,4.0096,1.1054,1.1353,1.1304,1.1099,1.1416,1.1665,1.1149,0.0,1.1765,1.1266,0.0,1.1333,1.2003,0.0,0.0,1.3076,1.4006,1.447,1.3896,1.5531,1.6773,1.6672,1.7637,1.8304,1.8304,1.9204,1.9798,1.9798,1.9861,1.9899,1.9899,2.0525,2.0626,2.0015,2.1102,2.1424,2.0919,2.082,2.0795,2.0795,2.0131,1.9798,1.9798,1.9798,1.9798,1.9798,1.9798,1.9798,1.9798,1.9798,1.9798,1.9798,1.9798,1.9798,1.9798,1.9798,1.9798,1.9798,1.9901,2.0669,2.1666,2.1833,2.2765,2.3817,2.3817,2.4684,2.5854,2.6512,2.7151,2.76,2.76,2.76,2.76,2.76,2.766,2.8064,2.9337,2.9666,3.0058,3.1271,3.1511,3.1511,3.1511,3.157,3.1809,3.2392,3.2697,3.3295,3.458,3.5284,3.6298,3.7851,3.8531,3.9191,4.0028,4.0096,4.0096,4.0096,4.0096,4.0096,4.0096,4.0096,4.0096,4.0096,4.0096,4.0096,4.0096,4.0096,4.0096,4.0096,4.0096,4.0096,1.0809,1.0596,1.0333,1.0954,1.064,1.029,1.0702,1.1015,1.1141,1.0864,0.0,0.0,0.0,0.0,0.0,0.0,1.2075,1.2435,1.2513,1.3223,1.4214,1.5542,1.6534,1.7264,1.7613,1.84,1.8882,1.8882,1.9146,1.9334,1.9334,1.9914,2.0105,1.9798,2.032,2.0471,2.022,2.022,2.022,2.0232,1.9927,1.9798,1.9798,1.9798,1.9798,1.9798,1.9798,1.9798,1.9798,1.9798,1.9798,1.9798,1.9798,1.9798,1.9798,1.9798,1.9798,1.9798,1.9798,2.013,2.063,2.1076,2.178,2.2625,2.344,2.4568,2.5688,2.64,2.7091,2.76,2.76,2.76,2.76,2.76,2.76,2.7959,2.9322,2.9606,2.9968,3.1256,3.1511,3.1511,3.1511,3.1511,3.16,3.1869,3.1949,3.2323,3.3313,3.4056,3.5019,3.6479,3.7672,3.865,3.9394,3.9859,4.0096,4.0096,4.0096,4.0096,4.0096,4.0096,4.0096,4.0096,4.0096,4.0096,4.0096,4.0096,4.0096,4.0096,4.0096,4.0096,0.9652,0.9376,0.9182,1.0529,1.0172,0.9618,1.0219,1.0532,1.0585,1.031,1.0236,0.0,0.0,0.0,0.0,0.0,0.0,1.0931,1.1302,1.1619,1.2498,1.4363,1.5372,1.6217,1.6973,1.7448,1.7774,1.7941,1.8313,1.8685,1.897,1.9359,1.966,1.9798,1.9798,1.9798,1.9798,1.9798,1.9798,1.9798,1.9798,1.9798,1.9798,1.9798,1.9798,1.9798,1.9798,1.9798,1.9798,1.9798,1.9798,1.9798,1.9798,1.9798,1.9798,1.9798,1.9798,1.9798,1.9798,1.9798,1.9901,2.0565,2.104,2.1568,2.2595,2.3883,2.5145,2.5874,2.6653,2.7357,2.7549,2.76,2.76,2.76,2.76,2.7959,2.9322,2.9606,2.9968,3.1256,3.1511,3.1511,3.1511,3.1511,3.1511,3.1511,3.1511,3.1768,3.252,3.3013,3.3947,3.5523,3.6652,3.7747,3.8903,3.9503,3.9893,4.0096,4.0096,4.0096,4.0096,4.0096,4.0096,4.0096,4.0096,4.0096,4.0096,4.0096,4.0096,4.0096,4.0096,4.0096,0.6991,0.7567,0.7919,0.9398,1.0193,1.0413,0.9452,0.9816,1.0048,0.907,0.8857,0.9061,0.971,0.0,0.0,0.0,0.0,0.0,0.0,1.1157,1.2089,1.2886,1.3961,1.5109,1.6305,1.6462,1.67,1.7278,1.7339,1.7836,1.8945,1.902,1.9259,1.9786,1.9798,1.9798,1.9798,1.9798,1.9798,1.9798,1.9798,1.9798,1.9798,1.9798,1.9798,1.9798,1.9798,1.9798,1.9798,1.9798,1.9798,1.9798,1.9798,1.9798,1.9798,1.9798,1.9798,1.9798,1.9798,1.9798,1.9886,2.0504,2.0759,2.0822,2.0871,2.22,2.3796,2.4536,2.5607,2.6695,2.7408,2.76,2.76,2.76,2.76,2.7959,2.9322,2.9606,2.9968,3.1256,3.1511,3.1511,3.1511,3.1511,3.1511,3.1511,3.1511,3.1768,3.252,3.2614,3.3414,3.5473,3.5745,3.6646,3.8821,3.9005,3.9326,4.0062,4.0096,4.0096,4.0096,4.0096,4.0096,4.0096,4.0096,4.0096,4.0096,4.0096,4.0096,4.0096,4.0096,4.0096,0.6523,0.6486,0.6549,0.8604,0.8717,0.8463,0.9075,0.9248,0.9211,0.8877,0.8804,0.8857,0.908,0.0,0.0,0.0,0.0,0.0,0.0,1.1006,1.1898,1.2138,1.3304,1.423,1.4642,1.5403,1.5973,1.6146,1.6921,1.7542,1.7928,1.8607,1.9083,1.9259,1.9623,1.9798,1.9798,1.9798,1.9798,1.9798,1.9798,1.9798,1.9798,1.9798,1.9798,1.9798,1.9798,1.9798,1.9798,1.9798,1.9798,1.9798,1.9798,1.9798,1.9798,1.9798,1.9798,1.9798,1.9798,1.9798,1.9836,2.0024,2.0396,2.0733,2.0803,2.2059,2.3528,2.3879,2.4829,2.5837,2.6081,2.6522,2.6878,2.6878,2.7255,2.7854,2.8727,2.9307,2.9834,3.0687,3.1197,3.1511,3.1511,3.1511,3.1511,3.1511,3.1511,3.1582,3.1853,3.2299,3.3026,3.4115,3.5118,3.6368,3.8065,3.9143,3.9842,4.0079,4.0096,4.0096,4.0096,4.0096,4.0096,4.0096,4.0096,4.0096,4.0096,4.0096,4.0096,4.0096,4.0096,4.0096,0.4862,0.5006,0.5343,0.743,0.7629,0.7573,0.8617,0.8709,0.8575,0.8487,0.8658,0.8672,0.8199,0.8491,0.0,0.0,0.0,0.0,0.0,1.0542,1.1266,1.174,1.2788,1.3552,1.3779,1.4318,1.4915,1.5543,1.6113,1.6796,1.7629,1.8342,1.8882,1.9271,1.9623,1.9798,1.9798,1.9798,1.9798,1.9798,1.9798,1.9798,1.9798,1.9798,1.9798,1.9798,1.9798,1.9798,1.9798,1.9798,1.9798,1.9798,1.9798,1.9798,1.9798,1.9798,1.9798,1.9798,1.9798,1.9798,1.9798,1.9798,2.0049,2.0393,2.0437,2.151,2.2792,2.3137,2.4109,2.5063,2.5315,2.5755,2.6176,2.6457,2.6852,2.7532,2.8689,2.928,2.9834,3.0702,3.1197,3.1511,3.1511,3.1511,3.1511,3.1511,3.1511,3.1511,3.1511,3.1894,3.2545,3.3429,3.4356,3.5584,3.7275,3.8795,3.9662,3.9662,3.9952,4.0096,4.0096,4.0096,4.0096,4.0096,4.0096,4.0096,4.0096,4.0096,4.0096,4.0096,4.0096,4.0096]},{"header":{"parameterUnit":"m.s-1","parameterCategory":1,"la1":30.6,"la2":29.2853,"lo1":-89.7004,"lo2":-87.6739,"dy":0.0162,"dx":0.0183,"nx":112,"ny":82,"refTime":"2023-09-16T00:00:00:Z","depth":0,"parameterNumber":3,"parameterNumberName":"V-component_of_WINDS"},"data":[0.0,0.0,0.0,0.0,0.0,0.0,0.0,0.0,0.0,0.0,0.0,0.0,0.0,0.0,0.0,0.0,0.0,0.0,0.0,0.0,0.0,0.0,0.0,0.0,0.0,0.0,0.0,0.0,0.0,0.0,0.0,0.0,0.0,0.0,0.0,0.0,0.0,0.0,0.0,0.0,0.0,0.0,0.0,0.0,0.0,0.0,0.0,0.0,0.0,0.0,0.0,0.0,0.0,0.0,0.0,0.0,0.0,0.0,0.0,0.0,0.0,0.0,0.0,0.0,0.0,0.0,0.0,0.0,0.0,0.0,0.0,0.0,0.0,0.0,0.0,0.0,0.0,0.0,0.0,0.0,0.0,0.0,0.0,0.0,0.0,0.0,0.0,0.0,0.0,0.0,2.0805,2.1418,2.2443,2.3108,2.3108,2.3108,2.3108,2.3108,0.0,0.0,0.0,0.0,0.0,0.0,0.0,0.0,0.0,0.0,0.0,0.0,0.0,0.0,0.0,0.0,0.0,0.0,0.0,0.0,0.0,0.0,0.0,0.0,0.0,0.0,0.0,0.0,0.0,0.0,0.0,0.0,0.0,0.0,0.0,0.0,0.0,0.0,0.0,0.0,0.0,0.0,0.0,0.0,0.0,0.0,0.0,0.0,0.0,0.0,0.0,0.0,0.0,0.0,0.0,0.0,0.0,0.0,0.0,0.0,0.0,0.0,0.0,0.0,0.0,0.0,0.0,0.0,0.0,0.0,0.0,0.0,0.0,0.0,0.0,0.0,0.0,0.0,0.0,0.0,0.0,0.0,0.0,0.0,0.0,0.0,0.0,0.0,0.0,0.0,0.0,0.0,0.0,0.0,0.0,0.0,0.0,0.0,0.0,0.0,0.0,0.0,0.0,0.0,2.0338,2.138,2.2443,2.3108,2.3108,2.3108,2.3108,2.3108,0.0,0.0,0.0,0.0,0.0,0.0,0.0,0.0,0.0,0.0,0.0,0.0,0.0,0.0,0.0,0.0,0.0,0.0,0.0,0.0,0.0,0.0,0.0,0.0,0.0,0.0,0.0,0.0,0.0,0.0,0.0,0.0,0.0,0.0,0.0,0.0,0.0,0.0,0.0,0.0,0.0,0.0,0.0,0.0,0.0,0.0,0.0,0.0,0.0,0.0,0.0,0.0,0.0,0.0,0.0,0.0,0.0,0.0,0.0,0.0,0.0,0.0,0.0,0.0,0.0,0.0,0.0,0.0,0.0,0.0,0.0,0.0,0.0,0.0,0.0,0.0,0.0,0.0,0.0,0.0,0.0,0.0,0.0,0.0,0.0,0.0,0.0,0.0,0.0,0.0,0.0,0.0,0.0,0.0,0.0,0.0,0.0,0.0,0.0,0.0,0.0,0.0,0.0,2.0715,2.1142,2.2259,2.2807,2.3108,2.3108,2.3108,2.3108,2.3108,2.2832,0.0,0.0,0.0,0.0,0.0,0.0,0.0,0.0,0.0,0.0,0.0,0.0,0.0,0.0,0.0,0.0,0.0,0.0,0.0,0.0,0.0,0.0,0.0,0.0,0.0,0.0,0.0,0.0,0.0,0.0,0.0,0.0,0.0,0.0,0.0,0.0,0.0,0.0,0.0,0.0,0.0,0.0,0.0,0.0,0.0,0.0,0.0,0.0,0.0,0.0,0.0,0.0,0.0,0.0,0.0,0.0,0.0,0.0,0.0,0.0,0.0,0.0,0.0,0.0,0.0,0.0,0.0,0.0,0.0,0.0,0.0,0.0,0.0,0.0,0.0,0.0,0.0,0.0,0.0,0.0,0.0,0.0,0.0,0.0,0.0,0.0,0.0,0.0,0.0,0.0,0.0,0.0,0.0,0.0,0.0,0.0,0.0,0.0,0.0,0.0,0.0,0.0,2.1317,2.1807,2.2631,2.2945,2.3108,2.3108,2.3108,2.3108,2.3108,2.2594,0.0,0.0,0.0,0.0,0.0,0.0,0.0,0.0,0.0,0.0,0.0,0.0,0.0,0.0,0.0,0.0,0.0,0.0,0.0,0.0,0.0,0.0,0.0,0.0,0.0,0.0,0.0,0.0,0.0,0.0,0.0,0.0,0.0,0.0,0.0,0.0,0.0,0.0,0.0,0.0,0.0,0.0,0.0,0.0,0.0,0.0,0.0,0.0,0.0,0.0,0.0,0.0,0.0,0.0,0.0,0.0,0.0,0.0,0.0,0.0,0.0,0.0,0.0,0.0,0.0,0.0,0.0,0.0,0.0,0.0,0.0,0.0,0.0,0.0,0.0,0.0,0.0,0.0,0.0,0.0,0.0,0.0,0.0,0.0,0.0,0.0,0.0,0.0,0.0,0.0,0.0,0.0,0.0,0.0,0.0,0.0,0.0,0.0,0.0,0.0,0.0,0.0,2.084,2.1518,2.1594,2.2493,2.3108,2.3108,2.3108,2.3108,2.3108,2.2594,0.0,0.0,0.0,0.0,0.0,0.0,0.0,0.0,0.0,0.0,0.0,0.0,0.0,0.0,0.0,0.0,0.0,0.0,0.0,0.0,0.0,0.0,0.0,0.0,0.0,0.0,0.0,0.0,0.0,0.0,0.0,0.0,0.0,0.0,0.0,0.0,0.0,0.0,0.0,0.0,0.0,0.0,0.0,0.0,0.0,0.0,0.0,0.0,0.0,0.0,0.0,0.0,0.0,0.0,0.0,0.0,0.0,0.0,0.0,0.0,0.0,0.0,0.0,0.0,0.0,0.0,0.0,0.0,0.0,0.0,0.0,0.0,0.0,0.0,0.0,0.0,0.0,0.0,0.0,0.0,0.0,0.0,0.0,0.0,0.0,0.0,0.0,0.0,0.0,0.0,0.0,0.0,0.0,0.0,0.0,0.0,0.0,0.0,0.0,0.0,0.0,0.0,2.1531,2.2133,2.2443,2.2857,2.3108,2.3108,2.3108,2.3108,2.3108,0.0,0.0,0.0,0.0,0.0,0.0,0.0,0.0,0.0,0.0,0.0,0.0,0.0,0.0,0.0,0.0,0.0,0.0,0.0,0.0,0.0,0.0,0.0,0.0,0.0,0.0,0.0,0.0,0.0,0.0,0.0,0.0,0.0,0.0,0.0,0.0,0.0,0.0,0.0,0.0,0.0,0.0,0.0,0.0,0.0,0.0,0.0,0.0,0.0,0.0,0.0,0.0,0.0,0.0,0.0,0.0,0.0,0.0,0.0,0.0,0.0,0.0,0.0,0.0,0.0,0.0,0.0,0.0,0.0,0.0,0.0,0.0,0.0,0.0,0.0,0.0,0.0,0.0,0.0,0.0,0.0,0.0,0.0,0.0,0.0,0.0,0.0,0.0,0.0,0.0,0.0,0.0,0.0,0.0,0.0,0.0,0.0,0.0,0.0,0.0,0.0,0.0,2.1207,2.1857,2.2431,2.2807,2.2995,2.3108,2.3108,2.3108,2.3108,2.3108,0.0,0.0,0.0,0.0,0.0,0.0,0.0,0.0,0.0,0.0,0.0,0.0,0.0,0.0,0.0,0.0,0.0,0.0,0.0,0.0,0.0,0.0,0.0,0.0,0.0,0.0,0.0,0.0,0.0,0.0,0.0,0.0,0.0,0.0,0.0,0.0,0.0,0.0,0.0,0.0,0.0,0.0,0.0,0.0,0.0,0.0,0.0,0.0,0.0,0.0,0.0,0.0,0.0,0.0,0.0,0.0,0.0,0.0,0.0,0.0,0.0,0.0,0.0,0.0,0.0,0.0,0.0,0.0,0.0,0.0,0.0,0.0,0.0,0.0,0.0,0.0,0.0,0.0,0.0,0.0,0.0,0.0,0.0,0.0,0.0,0.0,0.0,0.0,0.0,0.0,0.0,0.0,0.0,0.0,0.0,0.0,0.0,0.0,0.0,0.0,0.0,0.0,2.0717,2.1644,2.2322,2.2322,2.2782,2.3108,2.3108,2.3108,2.3108,0.0,0.0,0.0,0.0,0.0,0.0,0.0,0.0,0.0,0.0,0.0,0.0,0.0,0.0,0.0,0.0,0.0,0.0,0.0,0.0,0.0,0.0,0.0,0.0,0.0,0.0,0.0,0.0,0.0,0.0,0.0,0.0,0.0,0.0,0.0,0.0,0.0,0.0,0.0,0.0,0.0,0.0,0.0,0.0,0.0,0.0,0.0,0.0,0.0,0.0,0.0,0.0,0.0,0.0,0.0,0.0,0.0,0.0,0.0,0.0,0.0,0.0,0.0,0.0,0.0,0.0,0.0,0.0,0.0,0.0,0.0,0.0,0.0,0.0,0.0,0.0,0.0,0.0,0.0,0.0,0.0,0.0,0.0,0.0,0.0,0.0,0.0,0.0,0.0,0.0,0.0,0.0,0.0,0.0,0.0,0.0,0.0,0.0,0.0,0.0,0.0,0.0,0.0,2.1782,2.2418,2.2857,2.2857,2.3007,2.3108,2.3108,2.3108,2.3108,2.3108,0.0,0.0,0.0,0.0,0.0,0.0,0.0,0.0,0.0,0.0,0.0,0.0,0.0,0.0,0.0,0.0,0.0,0.0,0.0,0.0,0.0,0.0,0.0,0.0,0.0,0.0,0.0,0.0,0.0,0.0,0.0,0.0,0.0,0.0,0.0,0.0,0.0,0.0,0.0,0.0,0.0,0.0,0.0,0.0,0.0,0.0,0.0,0.0,0.0,0.0,0.0,0.0,0.0,0.0,0.0,0.0,0.0,0.0,0.0,0.0,0.0,0.0,0.0,0.0,0.0,0.0,0.0,0.0,0.0,0.0,0.0,0.0,0.0,0.0,0.0,0.0,0.0,0.0,0.0,0.0,0.0,0.0,0.0,0.0,0.0,0.0,0.0,0.0,0.0,0.0,0.0,0.0,0.0,0.0,0.0,0.0,0.0,0.0,0.0,0.0,0.0,0.0,2.2234,2.2769,2.3108,2.3108,2.3108,2.3108,2.3108,2.3108,2.3108,2.3108,0.0,0.0,0.0,0.0,0.0,0.0,0.0,0.0,0.0,0.0,0.0,0.0,0.0,0.0,0.0,0.0,0.0,0.0,0.0,0.0,0.0,0.0,0.0,0.0,0.0,0.0,0.0,0.0,0.0,0.0,0.0,0.0,0.0,0.0,0.0,0.0,0.0,0.0,0.0,0.0,0.0,0.0,0.0,0.0,0.0,0.0,0.0,0.0,0.0,0.0,0.0,0.0,0.0,0.0,0.0,0.0,0.0,0.0,0.0,0.0,0.0,0.0,0.0,0.0,0.0,0.0,0.0,0.0,0.0,0.0,0.0,0.0,0.0,0.0,0.0,0.0,0.0,0.0,0.0,0.0,0.0,0.0,0.0,0.0,0.0,0.0,0.0,0.0,0.0,0.0,0.0,0.0,0.0,0.0,0.0,0.0,0.0,0.0,0.0,0.0,0.0,0.0,2.2322,2.2794,2.3108,2.3108,2.3108,2.3108,2.3108,2.3108,2.3108,2.3108,0.0,0.0,0.0,0.0,0.0,0.0,0.0,0.0,0.0,0.0,0.0,0.0,0.0,0.0,0.0,0.0,0.0,0.0,0.0,0.0,0.0,0.0,0.0,0.0,0.0,0.0,0.0,0.0,0.0,0.0,0.0,0.0,0.0,0.0,0.0,0.0,0.0,0.0,0.0,0.0,0.0,0.0,0.0,0.0,0.0,0.0,0.0,0.0,0.0,0.0,0.0,0.0,0.0,0.0,0.0,0.0,0.0,0.0,0.0,0.0,1.9581,1.9472,0.0,0.0,0.0,0.0,0.0,0.0,0.0,0.0,0.0,0.0,0.0,0.0,0.0,0.0,0.0,0.0,0.0,0.0,0.0,0.0,0.0,0.0,0.0,0.0,0.0,0.0,0.0,0.0,0.0,0.0,0.0,0.0,0.0,0.0,0.0,0.0,0.0,0.0,0.0,0.0,2.2857,2.3032,2.3108,2.3108,2.3108,2.3108,2.3108,2.3108,2.3108,2.3108,2.3108,0.0,0.0,0.0,0.0,0.0,0.0,0.0,0.0,0.0,0.0,0.0,0.0,0.0,0.0,0.0,0.0,0.0,0.0,0.0,0.0,0.0,0.0,0.0,0.0,0.0,0.0,0.0,0.0,0.0,0.0,0.0,0.0,0.0,0.0,0.0,0.0,0.0,0.0,0.0,0.0,0.0,0.0,0.0,0.0,0.0,0.0,0.0,0.0,0.0,0.0,0.0,0.0,0.0,0.0,0.0,0.0,0.0,0.0,0.0,2.1052,2.0223,0.0,0.0,0.0,0.0,0.0,0.0,0.0,0.0,0.0,0.0,0.0,0.0,0.0,0.0,0.0,0.0,0.0,0.0,0.0,0.0,0.0,0.0,0.0,0.0,0.0,0.0,0.0,0.0,0.0,0.0,0.0,0.0,0.0,0.0,0.0,0.0,0.0,0.0,0.0,0.0,2.3032,2.3108,2.3108,2.3108,2.3108,2.3108,2.3108,2.3108,2.3108,2.3108,2.3108,0.0,0.0,0.0,0.0,0.0,0.0,0.0,0.0,0.0,0.0,0.0,0.0,0.0,0.0,0.0,0.0,0.0,0.0,0.0,0.0,0.0,0.0,0.0,0.0,0.0,0.0,0.0,0.0,0.0,0.0,0.0,0.0,0.0,0.0,0.0,0.0,0.0,0.0,0.0,0.0,0.0,0.0,0.0,0.0,0.0,0.0,0.0,0.0,0.0,0.0,0.0,0.0,0.0,2.5771,2.6069,2.758,2.6543,2.6368,2.6763,2.3486,2.2004,2.1957,2.2097,0.0,0.0,0.0,0.0,0.0,0.0,0.0,0.0,0.0,0.0,0.0,0.0,0.0,0.0,0.0,0.0,0.0,0.0,0.0,0.0,0.0,0.0,2.2334,2.1882,2.2121,2.2334,2.187,0.0,0.0,0.0,0.0,0.0,0.0,0.0,0.0,0.0,0.0,0.0,2.3183,2.3258,2.3296,2.3396,2.3396,2.3358,2.3258,2.3258,2.3208,2.3108,2.3108,2.2842,0.0,0.0,0.0,0.0,0.0,0.0,0.0,0.0,0.0,0.0,0.0,0.0,0.0,0.0,0.0,0.0,0.0,0.0,0.0,0.0,0.0,0.0,0.0,0.0,0.0,0.0,0.0,0.0,0.0,0.0,0.0,0.0,2.3595,2.3595,0.0,0.0,0.0,0.0,0.0,0.0,0.0,0.0,0.0,0.0,0.0,0.0,0.0,2.718,2.7934,2.7849,2.7998,2.8328,2.7627,2.7441,2.7683,2.7525,2.772,2.8212,2.7692,0.0,2.3378,2.4042,0.0,0.0,0.0,0.0,0.0,0.0,0.0,0.0,0.0,0.0,0.0,0.0,0.0,0.0,0.0,0.0,0.0,0.0,0.0,0.0,0.0,0.0,2.2982,2.2907,2.2945,2.2982,2.2907,2.2506,2.2343,2.2895,2.2945,2.2907,0.0,0.0,0.0,0.0,0.0,0.0,2.3803,2.3891,2.4067,2.4512,2.4575,2.4374,2.3929,2.3891,2.3665,2.3133,2.3108,2.3303,2.371,2.2982,0.0,0.0,0.0,0.0,0.0,0.0,0.0,0.0,0.0,0.0,0.0,0.0,0.0,0.0,0.0,0.0,0.0,0.0,0.0,0.0,0.0,0.0,0.0,0.0,0.0,0.0,0.0,0.0,0.0,2.3924,2.4156,2.4156,2.4156,2.4156,0.0,0.0,0.0,0.0,0.0,0.0,0.0,0.0,0.0,2.8248,2.8573,2.9037,2.9654,2.9676,3.0054,3.0792,3.0529,3.0601,3.0951,3.0951,3.1097,3.1299,3.1299,3.0037,2.7918,2.7108,2.5974,2.4753,0.0,0.0,0.0,0.0,2.5029,2.4947,2.4513,2.4182,2.3874,2.3141,0.0,0.0,0.0,0.0,0.0,0.0,0.0,2.2819,2.3175,2.3439,2.3672,2.3973,2.3822,2.3615,2.3615,2.3145,2.2819,2.3058,2.3108,2.3108,2.3108,2.3108,0.0,0.0,0.0,2.3816,2.4393,2.4456,2.4556,2.4763,2.4788,2.4687,2.4481,2.4456,2.4324,2.4061,2.3538,2.3381,2.3701,2.2716,2.2285,0.0,0.0,0.0,0.0,0.0,0.0,0.0,0.0,0.0,0.0,0.0,0.0,0.0,0.0,0.0,0.0,0.0,0.0,0.0,0.0,0.0,0.0,0.0,0.0,0.0,0.0,0.0,0.0,2.4321,2.4784,2.4634,2.4903,2.5038,0.0,0.0,0.0,0.0,0.0,0.0,2.8319,2.8981,2.9654,3.0313,3.052,3.0881,3.1509,3.1689,3.2287,3.3275,3.3275,3.3544,3.4008,3.4008,3.4008,3.4008,3.4008,3.3326,3.2034,3.0017,2.8258,2.6857,2.7049,2.6537,2.5759,2.6147,2.5953,2.5578,2.586,2.5581,2.5058,2.4666,2.409,2.3534,2.3534,0.0,0.0,0.0,0.0,2.3634,2.4104,2.4205,2.428,2.4512,2.4406,2.4167,2.4029,2.3766,2.3496,2.3358,2.3333,2.3371,2.3509,2.3534,0.0,2.4142,2.4205,2.4406,2.4958,2.4988,2.5039,2.5222,2.5247,2.5184,2.5034,2.4988,2.4828,2.4439,2.3701,2.3315,2.3288,2.2272,2.164,2.1485,0.0,0.0,0.0,0.0,0.0,0.0,0.0,0.0,0.0,0.0,0.0,0.0,0.0,0.0,0.0,0.0,0.0,0.0,0.0,0.0,0.0,0.0,0.0,0.0,0.0,0.0,0.0,0.0,0.0,2.4679,2.5734,0.0,0.0,0.0,0.0,2.7405,2.8693,2.9699,3.0328,3.0987,3.166,3.2318,3.2976,3.3604,3.4294,3.4921,3.5295,3.5355,3.5355,3.537,3.54,3.54,3.54,3.54,3.54,3.5011,3.4186,3.2184,3.0866,3.0044,2.8936,2.8746,2.8828,2.6915,2.6072,2.5889,2.6043,2.554,2.4963,2.5733,2.5407,2.47,2.47,2.47,0.0,0.0,2.47,2.4713,2.4738,2.475,2.4625,2.4155,2.4418,2.4612,2.4117,2.4393,2.455,2.4054,2.3954,2.4117,2.4612,0.0,2.4713,2.477,2.475,2.4938,2.5485,2.5548,2.5774,2.6348,2.6411,2.6185,2.5598,2.5548,2.4913,2.348,2.3311,2.3118,2.2766,2.1775,2.1917,2.3326,2.1532,0.0,0.0,0.0,0.0,0.0,0.0,0.0,0.0,0.0,0.0,0.0,0.0,0.0,0.0,0.0,0.0,0.0,0.0,0.0,0.0,0.0,0.0,0.0,0.0,0.0,0.0,0.0,0.0,2.7156,2.8323,0.0,2.8786,2.8966,2.9205,2.9445,3.0702,3.1749,3.2392,3.3066,3.3739,3.4412,3.4666,3.4906,3.513,3.5385,3.5504,3.5504,3.5504,3.5504,3.5504,3.5504,3.5504,3.5504,3.5504,3.537,3.5085,3.4382,3.3167,3.1708,3.1275,3.0645,2.9953,2.9567,2.9038,2.8488,2.7952,2.7647,2.7335,2.6401,2.5503,2.4788,2.4788,2.4788,2.4788,2.4788,2.4788,2.4863,2.5234,2.5322,2.536,2.5569,2.5448,2.5259,2.5071,2.4921,2.4858,2.4996,2.4757,2.4594,2.4763,2.4788,2.4933,2.5272,2.5322,2.5523,2.6109,2.6185,2.6273,2.6474,2.6499,2.6411,2.6197,2.6185,2.5676,2.4457,2.3792,2.3364,2.3209,2.1684,2.1353,2.2504,2.127,2.0672,0.0,0.0,0.0,0.0,0.0,0.0,0.0,0.0,0.0,0.0,0.0,0.0,0.0,0.0,0.0,0.0,0.0,0.0,0.0,0.0,0.0,0.0,0.0,0.0,0.0,2.7141,2.8528,2.916,3.0387,3.1091,3.0866,3.1046,3.127,3.1495,3.2542,3.3469,3.4143,3.4592,3.504,3.5489,3.5504,3.5504,3.5504,3.5504,3.5504,3.5504,3.5504,3.5504,3.5504,3.5504,3.5504,3.5504,3.5504,3.5504,3.5504,3.5504,3.4726,3.3499,3.326,3.2415,3.1344,3.1238,3.069,2.984,2.8726,2.8635,2.8738,2.7143,2.6084,2.5438,2.5708,2.559,2.5372,2.5372,2.5372,2.5448,2.5799,2.5887,2.5971,2.616,2.6059,2.5837,2.5636,2.5473,2.5473,2.5824,2.5448,2.5146,2.5335,2.5372,2.5485,2.5837,2.5887,2.6059,2.6449,2.6499,2.6499,2.6499,2.6499,2.6499,2.6499,2.6499,2.5943,2.4564,2.3854,2.322,2.2563,2.127,2.0975,2.1714,2.1124,2.0752,2.0605,0.0,0.0,0.0,0.0,0.0,0.0,0.0,0.0,0.0,0.0,0.0,0.0,0.0,0.0,0.0,0.0,0.0,0.0,0.0,0.0,0.0,0.0,0.0,2.766,2.8843,2.9909,3.0522,3.1794,3.2333,3.169,3.2198,3.2871,3.3499,3.4174,3.4801,3.5474,3.5504,3.5504,3.5504,3.5504,3.5504,3.5504,3.5504,3.5504,3.5504,3.5504,3.5504,3.5504,3.5504,3.5504,3.5504,3.5504,3.5504,3.5504,3.5504,3.5489,3.5415,3.4788,3.4011,3.3093,3.1804,3.0779,2.9845,2.8344,2.8312,2.8876,2.8019,2.7196,2.6692,2.7417,2.7129,2.6499,2.6499,2.6499,2.6499,2.6499,2.6499,2.6348,2.5762,2.6084,2.6336,2.5737,2.6097,2.6499,2.6499,2.6047,2.5799,2.6399,2.6499,2.6499,2.6499,2.6499,0.0,2.6499,2.6499,2.6499,2.6499,2.6499,2.6499,2.6452,2.6452,2.5604,2.3588,2.3441,2.2601,2.0683,2.0605,2.0771,2.1161,2.119,2.1025,2.0625,0.0,0.0,0.0,0.0,0.0,0.0,0.0,0.0,0.0,0.0,0.0,0.0,0.0,0.0,0.0,0.0,0.0,0.0,0.0,0.0,0.0,2.8184,2.9052,2.9052,3.0582,3.1943,3.2602,3.3858,3.4607,3.4427,3.4577,3.4756,3.4936,3.5115,3.531,3.5489,3.5504,3.5504,3.5504,3.5504,3.5504,3.5504,3.5504,3.5504,3.5504,3.5504,3.5504,3.5504,3.5504,3.5504,3.5504,3.5504,3.5504,3.5504,3.5504,3.5205,3.4786,3.51,3.5076,3.4821,3.4451,3.3156,3.1461,3.0485,2.9648,2.8971,2.8716,2.8084,2.7284,2.6939,2.6692,2.6499,2.6499,2.6499,2.6499,2.6499,2.6499,2.6449,2.6298,2.6386,2.6449,2.6285,2.6386,2.6499,2.6499,2.6361,2.6311,2.6461,2.6499,2.6499,2.6499,2.6499,2.6499,2.6499,2.6499,2.6499,2.6499,2.6499,2.6198,2.5476,2.5406,2.4552,2.2553,2.2403,2.1849,2.0634,2.0605,2.0664,2.0752,2.1064,2.1132,0.0,0.0,0.0,0.0,0.0,0.0,0.0,0.0,0.0,0.0,0.0,0.0,0.0,0.0,0.0,0.0,0.0,0.0,0.0,0.0,0.0,0.0,3.0415,3.1763,3.2018,3.2796,3.3679,3.4637,3.5429,3.5923,3.5923,3.5923,3.6028,3.6282,3.6312,3.6312,3.6312,3.6058,3.6028,3.6297,3.5789,3.5639,3.5908,3.5639,3.5504,3.5504,3.5504,3.5504,3.5504,3.5504,3.5504,3.5504,3.5504,3.5504,3.5504,3.5504,3.5265,3.4951,0.0,0.0,0.0,0.0,3.325,3.1738,3.062,2.9673,2.8939,2.8556,2.8117,2.7604,2.7129,2.7007,2.6939,2.6589,2.6499,2.6499,2.6499,2.6499,2.6499,2.6499,2.6499,2.6499,2.6499,2.6499,2.6499,2.6499,2.6499,0.0,2.6499,2.6499,2.6499,2.6499,2.6499,2.6499,2.6499,2.6499,2.6499,2.6499,2.6499,2.6146,2.5302,2.5099,0.0,0.0,0.0,2.1637,2.0869,2.1191,0.0,0.0,0.0,2.1639,2.1504,2.1768,0.0,0.0,2.1465,2.1504,0.0,0.0,0.0,0.0,0.0,0.0,0.0,0.0,0.0,0.0,0.0,0.0,0.0,0.0,0.0,0.0,3.2946,3.4908,3.5714,3.5295,3.5342,3.639,3.6552,3.6567,3.6492,3.6552,3.6821,3.736,3.7404,3.7404,3.7404,3.6881,0.0,0.0,0.0,3.5998,3.6596,3.5938,3.5609,3.5609,3.5549,3.5504,3.5504,3.5504,3.5504,3.5504,3.5504,3.5504,3.5504,3.5504,3.5504,3.5489,3.5429,3.4651,3.3514,3.2781,3.2108,3.1382,2.9811,0.0,0.0,2.8198,2.7867,2.7795,2.7578,2.7532,2.7404,2.6603,2.6449,2.6499,2.6499,2.6499,2.6499,2.6499,2.6499,2.6499,2.6499,2.6499,2.6499,2.6499,2.6499,2.6499,2.6499,2.6499,2.6499,2.6499,2.6499,2.6499,2.6499,2.6499,2.6499,2.6499,2.6383,0.0,2.5498,2.5012,2.4124,2.2705,2.2234,2.1788,2.1289,2.2041,2.2266,2.1894,2.2295,2.2324,2.1953,2.2002,2.2217,2.2578,2.2158,2.1982,0.0,0.0,0.0,0.0,0.0,0.0,0.0,0.0,0.0,0.0,0.0,0.0,0.0,0.0,0.0,3.2617,3.4262,3.5893,3.7599,3.7719,3.7345,3.6582,3.6926,3.703,3.6537,3.6941,3.7285,3.7404,3.7404,3.7404,3.7404,3.73,3.7285,3.7404,3.7165,3.7105,3.7225,3.6611,3.6297,3.6297,3.5759,0.0,3.5504,3.5504,3.5504,3.5504,3.5504,3.5504,3.5504,3.5504,3.5504,3.5444,3.4891,3.4548,3.4174,3.2961,3.2437,3.2184,3.1309,3.1029,3.0778,2.9425,2.8881,2.8443,2.6746,2.6479,0.0,2.5954,2.6135,2.6499,2.6499,2.6499,2.6499,2.6499,2.6499,2.6499,2.6499,2.6499,2.6499,2.6499,2.6499,2.6499,2.6499,2.6499,2.6499,2.6499,2.6499,2.6499,2.6499,2.6499,2.6499,2.6499,2.5769,2.5063,2.4521,2.3683,2.2843,2.2118,2.1987,2.1864,2.1758,2.1924,2.1973,2.1885,2.2295,2.2471,2.2393,2.2734,2.2896,2.2964,2.2588,2.2578,0.0,0.0,0.0,0.0,0.0,0.0,0.0,0.0,0.0,0.0,0.0,2.8757,2.943,0.0,3.2931,3.4277,3.5878,3.7285,3.8257,3.8691,3.8542,3.7554,3.7719,3.7778,3.7464,3.7719,3.8048,3.8392,3.8407,3.8407,3.8407,3.7778,3.7719,3.8392,3.7464,3.709,3.7404,3.6791,3.6327,3.5998,3.5669,3.5504,3.5504,3.5504,3.5504,3.5504,3.5504,3.5504,3.5504,3.5504,3.5504,3.54,3.4382,3.3978,3.3858,3.2886,3.2273,3.1885,3.1176,3.0614,3.006,2.8875,2.8438,2.8061,2.6629,2.6611,2.6942,2.6236,2.6273,2.6499,2.6499,2.6499,2.6499,2.6499,2.6499,2.6499,2.6499,2.6499,2.6499,2.6499,2.6499,2.6499,2.6499,2.6499,2.6499,2.6499,2.6499,2.6499,2.6499,2.6499,2.66,2.6876,2.5947,2.518,2.4926,2.3503,2.2421,2.1926,2.209,2.2197,2.2197,2.2402,2.251,2.251,2.2715,2.2779,2.2779,2.2994,2.3091,2.3091,2.2877,2.2896,0.0,0.0,0.0,0.0,0.0,0.0,0.0,0.0,2.8364,2.9026,3.0088,3.1135,3.1929,3.3514,3.4981,3.5908,3.7375,3.8437,3.8571,3.9065,3.917,3.8467,3.8497,3.8542,3.8407,3.8392,3.8676,3.9364,3.929,3.9239,3.9373,3.8392,3.8287,3.9394,3.7883,3.7225,3.7599,3.6971,3.6342,3.5684,3.5564,3.5504,3.5504,3.5504,3.5504,3.5504,3.5504,3.5504,3.5504,3.5504,3.5504,3.54,3.4307,3.3724,3.3395,3.2617,3.1959,3.1409,3.0777,2.9981,2.9115,2.826,2.786,2.7531,2.6649,2.6894,2.7291,2.6553,2.6411,2.6499,2.6499,2.6499,2.6499,2.6499,2.6499,2.6499,2.6499,2.6499,2.6499,2.6499,2.6499,2.6499,2.6499,2.6499,2.6499,2.6499,2.6587,2.665,2.665,2.6751,2.6919,2.7131,2.6152,2.5333,2.504,2.3511,2.249,2.2148,2.2451,2.2637,2.2637,2.2916,2.3091,2.3091,2.3091,2.3091,2.3091,2.3091,2.3091,2.3091,2.3091,2.3091,2.3475,2.349,2.3939,2.5794,2.6422,2.7186,0.0,0.0,3.0372,3.1032,3.175,3.2662,3.3918,3.4831,3.5983,3.7778,3.8242,3.8601,3.9215,3.9328,3.917,3.8467,3.8931,3.9065,3.8452,3.8392,3.8676,3.9364,3.8856,3.8766,3.9394,3.9239,3.9275,3.9388,3.9215,3.8826,3.8287,3.7629,3.6985,3.6372,3.5789,3.5504,3.5504,3.5504,3.5504,3.5504,3.5504,3.5504,3.5504,3.5504,3.5504,3.5489,3.534,3.4547,3.335,3.2064,3.157,3.1511,3.1409,3.0837,3.0047,2.9338,2.8467,2.7473,2.6325,2.6284,2.651,2.5871,2.6097,2.6499,2.6499,2.6499,2.6499,2.6499,2.6499,2.6499,2.6499,2.6499,2.6499,2.6499,2.6499,2.6499,2.6499,2.6499,2.6499,2.6499,2.6914,2.7228,2.7228,2.762,2.7569,2.6678,2.567,2.4469,2.2948,2.2981,2.3003,2.2955,2.3003,2.3023,2.3023,2.3071,2.3091,2.3091,2.3091,2.3091,2.3091,2.3091,2.3091,2.3091,2.3091,2.3091,2.4657,2.533,2.6132,0.0,2.8323,2.9732,3.0823,3.1704,3.2437,3.311,3.3784,3.4547,3.5474,3.6178,3.7,3.8197,3.8721,3.9095,3.9379,3.9065,3.8706,3.8422,3.8302,3.8138,3.7853,3.7823,3.7943,3.8227,3.8332,3.8512,3.8796,3.8452,3.8422,3.8811,3.8093,3.7569,3.7285,3.7015,3.6552,3.5908,3.5639,3.5504,3.5504,3.5504,3.5504,3.5504,3.5504,3.5504,3.5504,3.5504,3.5504,3.5474,3.5055,3.4322,3.3425,3.2886,3.2168,3.1511,3.1511,3.0644,2.9493,2.9209,2.816,2.6917,2.6396,2.6367,2.6449,2.6197,2.6311,2.6499,2.6499,2.6499,2.6499,2.6499,2.6499,2.6499,2.6499,2.6499,2.6499,2.6499,2.6499,2.6499,2.6499,2.6763,2.6977,2.6977,2.7165,2.7394,2.772,2.7959,2.7557,2.6143,2.5315,2.4346,2.2981,2.2994,2.3091,2.3091,2.3091,2.3091,2.3091,2.3091,2.3091,2.3091,2.3091,2.3091,2.3091,2.3091,2.3091,2.3091,2.3091,2.3091,2.5644,0.0,0.0,2.8453,3.0387,3.2093,3.2273,3.3365,3.4397,3.4696,3.516,3.5699,3.6372,3.6851,3.7419,3.8257,3.8811,3.9125,3.9125,3.8706,3.8257,3.7913,3.7449,3.709,3.6896,3.7045,3.7225,3.7404,3.7689,3.8018,3.8362,3.7764,3.7719,3.8362,3.7315,3.6656,3.6492,3.6492,3.6148,3.5504,3.5504,3.5504,3.5504,3.5504,3.5504,3.5504,3.5504,3.5504,3.5504,3.5504,3.5504,3.5459,3.4966,3.4247,3.3499,3.3499,3.2497,3.1161,3.1161,3.0042,2.8652,2.8652,2.767,2.6499,2.6499,2.6499,2.6499,2.6499,2.6499,2.6499,2.6499,2.6499,2.6499,2.6499,2.6499,2.6499,2.6499,2.6499,2.6499,2.6499,2.6499,2.6499,2.6499,2.6826,2.719,2.7469,2.7507,2.7708,2.826,2.7915,2.7082,2.5555,2.4756,2.4006,2.3178,2.3091,2.3091,2.3091,2.3091,2.3091,2.3091,2.3091,2.3091,2.3091,2.3091,2.3091,2.3091,2.3091,2.3091,2.3091,2.3091,2.3091,2.6213,2.6587,2.7395,3.0584,3.2437,3.3604,3.4279,3.5462,3.6222,3.5609,3.5489,3.5699,3.6372,3.6492,3.6926,3.8182,3.8407,3.8422,3.8422,3.8407,3.7928,3.6686,3.6522,3.6267,3.5624,3.6148,3.6761,3.736,3.6866,3.709,3.8317,3.7764,3.7719,3.8362,3.7734,3.709,3.6492,3.6492,3.6148,3.5504,3.5504,3.5504,3.5504,3.5504,3.5504,3.5504,3.5504,3.5504,3.5504,3.5504,3.5504,3.5504,3.5489,3.4666,3.3499,3.3499,3.2164,3.0329,3.0329,2.9192,2.7736,2.7736,2.7196,2.6499,2.6499,2.6499,2.6499,2.6499,2.6499,2.6499,2.6499,2.6499,2.6499,2.6499,2.6499,2.6499,2.6499,2.6499,2.6499,2.6499,2.6499,2.6499,2.6499,2.6512,2.6889,2.7921,2.8084,2.8285,2.88,2.7514,2.6097,2.4935,2.3833,2.3135,2.3091,2.3091,2.3091,2.3091,2.3091,2.3091,2.3091,2.3091,2.3091,2.3091,2.3091,2.3091,2.3091,2.3091,2.3091,2.3091,2.3091,2.3091,2.8124,2.9205,3.0315,3.2347,3.3844,3.4891,3.5115,3.5848,3.6163,3.5055,3.4472,3.4233,3.4457,3.4502,3.4936,3.6267,3.6851,3.727,3.7689,3.7389,3.6971,3.6537,3.6103,3.5744,3.5534,3.5699,3.5923,3.6133,3.6731,3.7285,3.7719,3.7524,3.7509,3.7734,3.6701,3.6043,3.5833,3.5833,3.5729,3.5504,3.5504,3.5504,3.5504,3.5504,3.5504,3.5504,3.5504,3.5504,3.5504,3.5504,3.5504,3.5504,3.5504,3.4951,3.4174,3.4174,3.2441,3.0115,3.0246,2.916,2.7703,2.7703,2.7162,2.6499,2.6499,2.6499,2.6499,2.6499,2.6499,2.6499,2.6499,2.6499,2.6499,2.6499,2.6499,2.6499,2.6499,2.6499,2.6499,2.6499,2.6788,2.704,2.704,2.7607,2.8348,2.9114,2.8591,2.8164,2.8334,2.6594,2.521,2.483,2.38,2.3091,2.3091,2.3091,2.3091,2.3091,2.3091,2.3091,2.3091,2.3091,2.3091,2.3091,2.3091,2.3091,2.3091,2.3091,2.3091,2.3091,2.3091,2.3091,2.9744,3.1061,3.2228,3.3829,3.504,3.5789,3.5549,3.6013,3.6028,3.4488,3.3604,3.308,3.2841,3.2587,3.2946,3.4532,3.5145,3.5729,3.6611,3.6387,3.6133,3.6133,3.5759,3.5504,3.5504,3.5504,3.5504,3.5504,3.6492,3.718,3.7404,3.7404,3.7404,3.7404,3.6402,3.5744,3.5504,3.5504,3.5504,3.5504,3.5504,3.5504,3.5504,3.5504,3.5504,3.5504,3.5504,3.5504,3.5504,3.5504,3.5504,3.5472,3.51,3.4587,3.3965,3.3612,3.1891,2.9804,3.0115,2.8926,2.7263,2.7263,2.6905,2.6499,2.6499,2.6499,2.6499,2.6499,2.6499,2.6537,2.6738,2.6788,2.6788,2.6788,2.6788,2.6738,2.6537,2.6499,2.6499,2.6499,2.6939,2.7281,2.7281,2.8197,2.89,2.889,2.812,2.7522,2.7522,2.5942,2.4617,2.4253,2.3551,2.3091,2.3091,2.3091,2.3091,2.3091,2.3091,2.3091,2.3091,2.3091,2.3091,2.3091,2.3091,2.3091,2.3091,2.3091,2.3091,2.3091,2.3091,2.3091,3.1122,3.2138,3.314,3.507,3.6028,3.6312,3.5609,3.5908,3.5774,3.3754,3.2766,3.2034,0.0,3.0821,3.1061,3.3066,3.3455,3.3978,3.537,3.5549,3.5564,3.5594,3.5609,3.5594,3.5549,3.5594,3.5594,3.5549,3.6163,3.6791,3.7375,3.7404,3.7404,3.736,3.6761,3.6133,3.5504,3.5504,3.5504,3.5504,3.5504,3.5504,3.5504,3.5504,3.5504,3.5504,3.5504,3.5489,3.5459,3.5489,3.5489,3.5347,3.4461,3.3681,3.3044,3.2061,3.0742,2.9482,2.9865,2.8485,2.6537,2.6499,2.6499,2.6499,2.6499,2.6499,2.6499,2.6499,2.6499,2.6612,2.714,2.7291,2.7268,2.7291,2.7268,2.7165,2.6612,2.6499,2.6499,2.6499,2.6964,2.7379,2.7442,2.8236,2.8522,2.7475,2.6818,2.6389,2.6389,2.542,2.4296,2.3222,2.3091,2.3091,2.3091,2.3091,2.3091,2.3091,2.3091,2.3091,2.3091,2.3091,2.3091,2.3091,2.3091,2.3091,2.3091,2.3091,2.3091,2.3091,2.3091,2.3091,3.3185,3.4218,3.4981,3.5983,3.6357,3.6178,3.5028,3.4487,3.3679,3.1674,2.9968,2.8813,2.8633,2.8861,2.9744,3.169,3.2856,3.4143,3.5983,3.6237,3.6402,3.6866,3.6926,3.6746,3.6282,3.6656,3.6731,3.6267,3.6821,3.724,3.7404,3.7404,3.7195,3.6731,3.6088,3.5669,3.5504,3.5504,3.5504,3.5504,3.5504,3.5504,3.5504,3.5504,3.5504,3.5504,3.5504,3.522,3.4771,3.5295,3.5205,3.4786,3.5005,3.4555,3.3729,3.3462,3.1999,3.0117,2.9752,2.8525,2.704,2.6625,2.6499,2.6499,2.6499,2.6499,2.6499,2.6499,2.6499,2.6524,2.6663,2.7014,2.7216,2.6801,2.7014,2.7165,2.6612,2.6499,2.6499,2.6499,2.7266,2.816,2.9013,2.8674,2.8222,2.7933,2.636,2.521,2.521,2.4264,2.342,2.3135,2.3091,2.3091,2.3091,2.3091,2.3091,2.3091,2.3091,2.3091,2.3091,2.3091,2.3091,2.3091,2.3091,2.3091,2.3091,2.3091,2.3091,2.3091,2.3091,2.3091,3.4129,3.4981,3.5594,3.5968,3.5833,3.5282,3.3918,3.3095,3.1988,2.9684,2.8139,2.7076,2.6791,2.7021,2.7934,2.9896,3.133,3.2886,3.4891,3.5684,3.6193,3.6537,3.706,3.7165,3.6552,3.6806,3.709,3.7315,3.7644,3.7719,3.7419,3.7689,3.7419,3.6507,3.6133,3.5804,3.5504,3.5504,3.5504,3.5504,3.5504,3.5504,3.5504,3.5504,3.5504,3.5489,3.519,3.4996,3.4936,3.5026,3.4996,3.4934,3.4871,3.4259,3.3345,3.2925,3.1663,3.0065,2.9471,2.8709,2.7833,2.6839,2.6499,2.6499,2.6499,2.6499,2.6499,2.6499,2.6499,2.6549,2.6788,2.709,2.7205,2.6927,2.709,2.7165,2.6612,2.6499,2.6637,2.7115,2.7871,2.8587,2.8959,2.8518,2.7763,2.6808,2.5619,2.4628,2.4125,2.3507,2.3091,2.3091,2.3091,2.3091,2.3091,2.3091,2.3091,2.3091,2.3091,2.3091,2.3091,2.3091,2.3091,2.3091,2.3091,2.3091,2.3091,2.3091,2.3091,2.3091,2.3091,2.3091,3.4578,3.5115,3.5534,3.5609,3.4981,3.4039,3.2677,3.1645,3.0285,2.7839,2.6746,2.6048,2.557,2.5615,2.6393,2.8412,2.9804,3.1375,3.3469,3.4771,3.5564,3.5744,3.6821,3.73,3.6671,3.6776,3.7255,3.8197,3.8347,3.8108,3.7449,3.7868,3.7584,3.6402,3.6357,3.6088,3.5504,3.5504,3.5504,3.5504,3.5504,3.5504,3.5504,3.5504,3.5504,3.5474,3.4876,3.4906,3.5325,3.4673,3.4731,3.5094,3.4182,3.3241,3.2321,3.1499,3.0595,2.9704,2.9126,2.8838,2.8537,2.709,2.66,2.6587,2.6512,2.6499,2.6499,2.6499,2.6499,2.66,2.709,2.7266,2.7268,2.7228,2.7231,2.7165,2.6612,2.6549,2.6901,2.7908,2.8437,2.8569,2.816,2.7844,2.7012,2.5073,2.466,2.4211,2.3222,2.3091,2.3091,2.3091,2.3091,2.3091,2.3091,2.3091,2.3091,2.3091,2.3091,2.3091,2.3091,2.3091,2.3091,2.3091,2.3091,2.3091,2.3091,2.3091,2.3091,2.3091,2.3091,2.3091,3.5836,3.5833,3.5639,3.6178,3.4981,3.332,3.1974,2.9924,0.0,2.6273,2.4971,2.4253,2.4694,2.5689,2.7081,2.9112,3.0507,3.2213,3.4801,3.5355,3.5893,3.6956,3.7749,3.7958,3.7315,3.8257,3.8542,3.7644,3.8078,3.8108,3.7449,3.703,3.6462,3.5699,3.5669,3.5624,3.5504,3.5504,3.5504,3.5504,3.5504,3.5504,3.5504,3.5504,3.5504,3.5489,3.5385,3.507,3.465,3.4259,3.3854,3.3483,3.3023,3.2285,3.1426,3.1241,3.0595,2.9704,2.9126,2.8599,2.8122,2.7381,2.7178,2.709,2.6637,2.6499,2.6499,2.6499,2.6499,2.6512,2.6612,2.6977,2.7203,2.6751,2.6989,2.7165,2.6612,2.6851,2.7331,2.7984,2.7826,2.7684,2.804,2.6562,2.5241,2.4872,2.4006,2.3299,2.3135,2.3091,2.3091,2.3091,2.3091,2.3091,2.3091,2.3091,2.3091,2.3091,2.3091,2.3091,2.3091,2.3091,2.3091,2.3091,2.3091,2.3091,2.3091,2.3091,2.3091,2.3091,2.3091,2.3091,3.5699,3.5744,3.5579,3.5893,3.4218,3.2138,3.0821,0.0,0.0,2.4837,2.4044,2.3699,2.4007,2.4874,2.6108,2.7754,2.9146,3.0926,3.3574,3.4532,3.534,3.6312,3.7285,3.7629,3.6985,3.7509,3.7764,3.7434,3.709,3.6896,3.6926,3.6327,3.5833,3.5519,3.5504,3.5504,3.5504,3.5504,3.5504,3.5504,3.5504,3.5504,3.5504,3.5504,3.5504,3.5489,3.513,3.4996,3.4931,3.3962,3.3547,3.3489,3.2849,3.2033,3.1217,3.1217,3.0595,2.9754,2.9478,2.9001,2.8448,2.7896,2.7318,2.6889,2.6914,2.6725,2.6499,2.6499,2.6499,2.6499,2.6499,2.6688,2.6826,2.6562,2.67,2.6813,2.6549,2.7153,2.7795,2.8059,2.8349,2.8307,2.7406,2.6378,2.5294,2.4082,2.3464,2.3091,2.3091,2.3091,2.3091,2.3091,2.3091,2.3091,2.3091,2.3091,2.3091,2.3091,2.3091,2.3091,2.3091,2.3091,2.3091,2.3091,2.3091,2.3091,2.3091,2.3091,2.3091,2.3091,2.3091,2.3091,3.51,3.5385,3.5504,3.5504,3.3395,3.0972,2.9849,2.741,0.0,2.3849,2.3595,2.3595,2.3595,2.4141,2.5038,0.0,2.759,2.9295,3.1914,3.332,3.4367,3.519,3.6432,3.7015,3.6537,3.6611,3.6836,3.718,3.6148,3.5729,3.6252,3.5789,3.5504,3.5504,3.5504,3.5504,3.5504,3.5504,3.5504,3.5504,3.5504,3.5504,3.5504,3.5504,3.5504,3.5474,3.4713,3.4708,3.5055,3.3389,3.297,3.331,3.2357,3.1536,3.0895,3.0895,3.0419,2.9779,2.9654,2.9239,2.865,2.8247,2.7444,2.6738,2.7052,2.6839,2.6499,2.6499,2.6499,2.6499,2.6499,2.6499,2.6524,2.6637,2.6663,2.67,2.6826,2.7595,2.8285,2.8285,2.8734,2.8542,2.6812,2.6099,2.5136,2.3387,2.3091,2.3091,2.3091,2.3091,2.3091,2.3091,2.3091,2.3091,2.3091,2.3091,2.3091,2.3091,2.3091,2.3091,2.3091,2.3091,2.3091,2.3091,2.3091,2.3091,2.3091,2.3091,2.3091,2.3091,2.3091,2.3091,3.4429,3.5026,3.5504,3.5504,3.3036,3.0417,2.9756,0.0,2.4485,2.3744,2.3595,2.3595,2.3595,2.4141,2.5038,2.6378,0.0,2.8592,3.1212,3.2213,3.3155,3.4459,3.5791,3.6552,3.6525,3.7,3.7105,3.6611,3.5908,3.5534,3.5594,3.5534,3.5504,3.5504,3.5504,3.5504,3.5504,3.5504,3.5504,3.5504,3.5504,3.5504,3.5504,3.5504,3.5504,3.5457,3.447,3.4071,3.3993,3.2159,3.1422,3.1352,3.0419,2.9998,2.9934,2.9934,2.9856,2.9716,2.9189,2.8649,2.8172,2.8122,2.7695,2.7118,2.6713,2.6537,2.6499,2.6499,2.6499,2.6499,2.6499,2.6499,2.6612,2.7115,2.7241,2.7379,2.7846,2.8423,2.8813,2.8813,2.7727,2.673,2.6524,2.4766,2.3343,2.3135,2.3091,2.3091,2.3091,2.3091,2.3091,2.3091,2.3091,2.3091,2.3091,2.3091,2.3091,2.3091,2.3091,2.3091,2.3091,2.3091,2.3091,2.3091,2.3091,2.3091,2.3091,2.3091,2.3091,2.3091,2.3091,2.3091,3.3484,3.4681,3.54,3.4996,3.2392,2.9789,2.9131,0.0,2.3924,2.3655,2.3595,2.3595,2.3595,2.4141,2.4903,2.5854,0.0,0.0,3.0043,3.0582,3.1539,3.3634,3.4367,3.4996,3.5818,3.6118,3.6163,3.5908,3.5654,3.5504,3.5504,3.5504,3.5504,3.5504,3.5504,3.5504,3.5504,3.5504,3.5504,3.5504,3.5504,3.5504,3.5504,3.5504,3.5504,3.5424,3.4428,3.3993,3.3842,3.196,3.1217,3.1106,3.0177,2.9792,2.9792,2.9792,2.9792,2.9704,2.9126,2.8561,2.8047,2.772,2.7266,2.6839,2.6952,2.6763,2.6499,2.6499,2.6499,2.6499,2.6499,2.6499,2.6549,2.6763,2.7077,2.7379,2.7557,2.8298,2.8888,2.8888,2.8117,2.725,2.6595,2.5179,2.3877,2.3222,2.3091,2.3091,2.3091,2.3091,2.3091,2.3091,2.3091,2.3091,2.3091,2.3091,2.3091,2.3091,2.3091,2.3091,2.3091,2.3091,2.3091,2.3091,2.3091,2.3091,2.3091,2.3091,2.3091,2.3091,2.3091,2.3091,3.1554,3.3021,3.3918,3.3425,3.1164,2.8843,0.0,0.0,2.3595,2.3595,2.3595,2.3595,2.3595,2.3999,2.459,0.0,0.0,2.7006,2.9011,2.9487,3.0342,3.2362,3.2796,3.3348,3.4389,3.4845,3.5067,3.5067,3.5067,3.5067,3.5067,3.5067,3.518,3.5504,3.5504,3.5504,3.5504,3.5504,3.5504,3.5504,3.5504,3.5504,3.5504,3.5504,3.5504,3.5439,3.4143,3.3602,3.3449,3.1536,3.0796,3.0733,3.0075,2.9792,2.9792,2.9792,2.9679,2.9453,2.8888,2.8323,2.777,2.7253,2.6813,2.6562,2.6952,2.6801,2.6499,2.6499,2.6499,2.6537,2.67,2.6738,2.6826,2.714,2.7494,2.7736,2.7581,2.8138,2.8567,2.8246,2.7596,2.6901,2.613,2.5041,2.4006,2.3222,2.3091,2.3091,2.3091,2.3091,2.3091,2.3091,2.3091,2.3091,2.3091,2.3091,2.3091,2.3091,2.3091,2.3091,2.3091,2.3091,2.3091,2.3091,2.3091,2.3091,2.3091,2.3091,2.3091,2.3091,2.3091,2.3091,2.8278,2.9579,3.0552,3.0552,2.9056,2.745,0.0,0.0,2.3595,2.3595,2.3595,2.3595,2.3595,2.361,2.4044,2.5367,2.5615,0.0,2.8323,2.9175,2.9819,3.0462,3.1107,3.1679,3.2118,3.3293,3.4027,3.4027,3.4027,3.4027,3.4027,3.4027,3.4461,3.5472,3.5504,3.5504,3.5504,3.5504,3.5504,3.5504,3.5504,3.5504,3.5504,3.5504,3.5504,3.5392,3.3463,3.2593,3.2464,3.0608,2.983,2.9792,2.9792,2.9792,2.9792,2.9792,2.9428,2.8813,2.8298,2.7758,2.7241,2.6688,2.6499,2.6499,2.6499,2.6499,2.6499,2.6499,2.6499,2.6612,2.7165,2.7268,2.7544,2.8599,2.8863,2.8735,2.8203,2.8112,2.7792,2.6707,2.563,2.483,2.483,2.3887,2.3091,2.3091,2.3091,2.3091,2.3091,2.3091,2.3091,2.3091,2.3091,2.3091,2.3091,2.3091,2.3091,2.3091,2.3091,2.3091,2.3091,2.3091,2.3091,2.3091,2.3091,2.3091,2.3091,2.3091,2.3091,2.3091,2.3091,2.3091,2.6871,2.8517,2.9759,2.9325,2.8038,2.6746,2.6078,0.0,2.3595,2.3595,2.3595,2.3595,2.3595,2.3962,2.456,2.5465,2.5989,0.0,0.0,2.8487,2.9243,3.0119,3.1429,3.2544,3.3312,3.3188,3.3031,3.3031,3.3031,3.3031,3.3031,3.3031,3.3788,3.5439,3.5504,3.5166,3.4461,3.5166,3.5166,3.4461,3.5166,3.5504,3.5472,3.4791,3.4461,3.4361,3.2464,3.1646,3.1536,3.0317,2.9792,2.9792,2.9792,2.9792,2.9741,2.9352,2.9051,2.8762,2.7871,2.7431,2.7228,2.6675,2.6499,2.6499,2.6499,2.6499,2.6575,2.6952,2.7052,2.7102,2.7266,2.7557,2.7833,2.7808,2.8386,2.8648,2.7771,2.7834,2.7763,2.6719,2.5588,2.4787,2.4787,2.3844,2.3091,2.3091,2.3091,2.3091,2.3091,2.3091,2.3091,2.3091,2.3091,2.3091,2.3091,2.3091,2.3091,2.3091,2.3091,2.3091,2.3091,2.3091,2.3091,2.3091,2.3091,2.3091,2.3091,2.3091,2.3091,2.3091,2.3091,2.3091,0.0,2.6004,2.7255,2.6811,2.6273,0.0,0.0,0.0,2.3595,2.3595,2.3595,2.3595,2.3595,2.3954,2.4515,2.5442,2.5959,2.6454,2.7096,2.8211,2.9252,3.0007,3.0829,3.1685,3.2619,3.2331,3.2069,3.2069,3.2069,3.2069,3.2069,3.2069,3.2784,3.4375,3.4739,3.461,3.4027,3.4986,3.518,3.4576,3.5213,3.5504,3.5472,3.4839,3.4361,3.391,3.2393,3.1536,0.0,3.0177,2.9792,2.9792,2.9792,2.9666,2.9415,2.9026,2.8624,2.821,2.7519,2.7178,2.6952,2.6612,2.6499,2.6499,2.6499,2.6499,2.6612,2.7165,2.7281,2.7381,2.7795,2.816,2.8386,2.826,2.8425,2.8295,2.7214,2.6927,2.6532,2.5431,2.4638,2.4168,2.4168,2.3551,2.3091,2.3091,2.3091,2.3091,2.3091,2.3091,2.3091,2.3091,2.3091,2.3091,2.3091,2.3091,2.3091,2.3091,2.3091,2.3091,2.3091,2.3091,2.3091,2.3091,2.3091,2.3091,2.3091,2.3091,2.3091,2.3091,2.3091,2.3091,0.0,2.2562,2.3535,2.3535,2.4044,2.4365,0.0,0.0,0.0,2.3595,2.3595,2.361,2.367,2.367,2.4118,2.545,2.5674,2.5868,2.6416,2.8226,2.9632,3.0088,2.9605,2.9605,3.0508,3.0904,3.1106,3.1106,3.1106,3.1106,3.1106,3.1106,3.1499,3.2393,3.331,3.3808,3.3808,3.4806,3.5246,3.518,3.5246,3.5279,3.5279,3.5279,3.4739,3.3739,3.289,3.196,3.1044,3.0177,2.9792,2.9792,2.9741,2.9402,2.8888,2.88,2.816,2.7268,2.7278,2.6927,2.6499,2.6499,2.6499,2.6499,2.6499,2.6524,2.6663,2.7216,2.7369,2.7632,2.8624,2.8925,2.9076,2.9616,2.8912,2.7804,2.6719,2.5588,2.4457,2.3299,2.3091,2.3091,2.3091,2.3091,2.3091,2.3091,2.3091,2.3091,2.3091,2.3091,2.3091,2.3091,2.3091,2.3091,2.3091,2.3091,2.3091,2.3091,2.3091,2.3091,2.3091,2.3091,2.3091,2.3091,2.3091,2.3091,2.3091,2.3091,2.3091,2.3091,2.3091,2.3091,2.0752,0.0,2.2912,2.2912,2.337,2.3789,0.0,0.0,0.0,0.0,0.0,0.0,0.0,2.4365,2.4799,2.6153,2.6363,2.6411,2.6474,2.7412,2.8712,3.0429,3.0062,2.9866,3.0405,3.0269,3.0139,3.0139,3.0139,3.0139,3.0139,3.0139,3.0216,3.047,3.1365,3.1852,3.1852,3.2784,3.2925,3.2213,3.2939,3.329,3.329,3.329,3.2749,3.1852,3.1609,3.1007,3.0101,2.9895,2.9792,2.9741,2.9302,2.9013,2.8787,2.7984,2.7507,2.7218,2.6839,2.66,2.6499,2.6499,2.6499,2.6499,2.6499,2.6788,2.7241,2.7758,2.821,2.8562,2.8825,2.9252,2.9515,2.9202,2.858,2.7804,2.6719,2.5588,2.4457,2.3299,2.3091,2.3091,2.3091,2.3091,2.3091,2.3091,2.3091,2.3091,2.3091,2.3091,2.3091,2.3091,2.3091,2.3091,2.3091,2.3091,2.3091,2.3091,2.3091,2.3091,2.3091,2.3091,2.3091,2.3091,2.3091,2.3091,2.3091,2.3091,2.3091,2.3091,2.3091,2.3091,2.0139,2.1216,2.2328,2.2628,2.3152,2.3595,2.3595,0.0,0.0,0.0,0.0,0.0,0.0,2.4118,2.4534,2.5926,2.5834,2.5897,2.6747,2.6756,2.7568,2.9922,2.9738,2.9593,3.0094,2.9936,2.9792,2.9792,2.9792,2.9792,2.9792,2.9792,2.9666,2.9402,2.987,3.0485,3.1204,3.2141,3.2357,3.1852,3.2357,3.2455,3.2228,3.2469,3.1956,3.0847,3.1098,3.0658,2.9779,2.9503,2.9402,2.934,2.8775,2.8398,2.8097,2.7507,2.7118,2.6901,2.66,2.6499,2.6499,2.6499,2.6499,2.6499,2.6499,2.7052,2.772,2.8021,2.8323,2.8662,2.9189,2.9566,2.9716,2.9402,2.8313,2.7209,2.6648,2.5179,2.3844,2.3222,2.3091,2.3091,2.3091,2.3091,2.3091,2.3091,2.3091,2.3091,2.3091,2.3091,2.3091,2.3091,2.3091,2.3091,2.3091,2.3091,2.3091,2.3091,2.3091,2.3091,2.3091,2.3091,2.3091,2.3091,2.3091,2.3091,2.3091,2.2536,2.2262,2.2262,2.1721,2.1454,1.9947,2.0755,2.1714,2.2383,2.3008,2.3465,2.3465,0.0,0.0,0.0,0.0,0.0,0.0,2.3566,2.3942,2.5212,2.4906,2.5203,2.7184,2.6543,2.6735,2.9118,2.9206,2.9176,2.9616,2.9741,2.9792,2.9792,2.9792,2.9754,2.9666,2.9666,2.9402,2.8787,2.8762,2.9413,3.0695,3.1604,3.2041,3.2041,3.2041,3.1804,3.1361,3.1891,3.1361,3.0076,3.0682,3.0399,2.9503,2.9001,2.8762,2.8712,2.8197,2.7695,2.7268,2.7228,2.6901,2.6499,2.6499,2.6499,2.6499,2.6499,2.6499,2.6512,2.66,2.7278,2.8009,2.8185,2.8298,2.8586,2.9553,2.9792,2.9792,2.9792,2.8251,2.6678,2.6565,2.4851,2.3299,2.3135,2.3091,2.3091,2.3091,2.3091,2.3091,2.3091,2.3091,2.3091,2.3091,2.3091,2.3091,2.3091,2.3091,2.3091,2.3091,2.3091,2.3091,2.3091,2.3091,2.3091,2.3091,2.3091,2.3091,2.3091,2.2906,2.2818,2.2818,2.1623,2.1025,2.098,1.9988,1.9497,2.1081,2.1127,2.1009,2.1679,2.2355,2.2844,2.2844,2.3231,0.0,0.0,0.0,0.0,0.0,2.3631,2.3824,2.4539,2.4857,2.5743,2.7948,2.7554,2.7528,2.8835,2.9378,2.9503,2.9063,2.9503,2.9792,2.9792,2.9792,2.9578,2.9089,2.9026,2.8775,2.8247,2.8235,2.8346,2.8556,2.9173,2.9476,2.9476,2.9476,2.9425,2.936,2.9757,2.9405,2.8515,2.9382,2.9207,2.836,2.8273,2.8235,2.8185,2.762,2.7356,2.7218,2.6788,2.6562,2.6499,2.6499,2.6499,2.6499,2.6499,2.6499,2.6587,2.7052,2.7268,2.7607,2.8499,2.9164,2.9578,2.9741,2.9792,2.9792,2.9792,2.8819,2.7602,2.6678,2.5473,2.4253,2.3309,2.3091,2.3091,2.3091,2.3091,2.3091,2.3091,2.3091,2.3091,2.3091,2.3091,2.3091,2.3091,2.3091,2.3091,2.3091,2.3091,2.3091,2.3091,2.3091,2.3091,2.3091,2.3091,2.3091,2.3091,2.2076,2.1569,2.1569,2.035,1.9761,1.9761,1.9588,1.9497,2.0106,1.9976,1.9901,2.0562,2.1445,2.2146,2.2146,2.2377,0.0,0.0,0.0,0.0,0.0,2.3034,2.3232,2.4089,2.4955,2.5764,2.6372,2.6413,2.6678,2.7494,2.8097,2.8448,2.8486,2.8725,2.8875,2.8875,2.8875,2.8762,2.8461,2.8486,2.8235,2.767,2.7657,2.7369,2.6753,2.7607,2.8185,2.8486,2.8486,2.8335,2.8047,2.853,2.8341,2.7718,2.8416,2.8507,2.8084,2.7783,2.7657,2.7607,2.709,2.6876,2.6839,2.6587,2.6499,2.6499,2.6499,2.6499,2.6499,2.6499,2.6499,2.66,2.7153,2.7494,2.7896,2.8662,2.9076,2.9402,2.9716,2.9326,2.8897,2.8897,2.8028,2.6912,2.5839,2.5168,2.4457,2.3299,2.3091,2.3091,2.3091,2.3091,2.3091,2.3091,2.3091,2.3091,2.3091,2.3091,2.3091,2.3091,2.3091,2.3091,2.3091,2.3091,2.3091,2.3091,2.2492,2.212,2.212,2.1498,2.1132,2.1132,2.0621,2.035,2.0305,1.9131,1.8549,1.8503,1.7801,1.7483,1.9359,1.9021,1.8965,1.9863,0.0,2.1318,2.1469,2.1701,2.1883,0.0,0.0,0.0,0.0,2.2459,2.2768,2.4009,2.4999,2.5587,2.5401,2.5737,2.6201,2.6813,2.7253,2.7645,2.8059,2.8109,2.8109,2.8109,2.8109,2.8047,2.7921,2.7908,2.7657,2.714,2.6989,2.6477,2.5598,2.6339,2.7042,2.772,2.7846,2.7695,2.7293,2.7444,2.7293,2.6904,2.7205,2.7406,2.7482,2.7055,2.7002,2.7077,2.6663,2.6499,2.6499,2.6499,2.6499,2.6499,2.6499,2.6499,2.6499,2.6499,2.6499,2.66,2.7153,2.767,2.8222,2.8737,2.8988,2.9239,2.9679,2.9157,2.8426,2.8176,2.7695,2.6801,2.5168,2.4999,2.4798,2.3387,2.3091,2.3091,2.3091,2.3091,2.3091,2.3091,2.3091,2.3091,2.3091,2.3091,2.3091,2.3091,2.3091,2.3091,2.3091,2.3091,2.3091,2.3091,2.2217,2.1702,2.1702,2.0576,1.9898,1.9898,1.936,1.9085,1.9085,1.7863,1.7271,1.7225,1.6244,1.5784,2.0283,1.9428,1.8648,2.0315,2.0441,2.0255,2.075,2.1715,0.0,2.1741,0.0,0.0,2.2405,2.2352,2.2828,2.4494,2.4827,2.5413,2.6927,2.7143,2.7369,2.7921,2.8021,2.8059,2.8109,2.8109,2.8109,2.8109,2.8109,2.7883,2.7369,2.7379,2.7115,2.6562,2.6,2.5674,2.5598,2.5197,2.5536,2.6612,2.7128,2.7318,2.7291,2.6239,2.5749,2.5699,2.5247,2.5335,2.5774,2.5737,2.6072,2.6549,2.6512,2.6499,2.6499,2.6499,2.6499,2.6499,2.6499,2.6499,2.6499,2.6499,2.6499,2.66,2.7153,2.767,2.8222,2.8737,2.9315,2.9741,2.9779,2.9753,2.9404,2.8347,2.8858,2.87,2.5493,2.563,2.5724,2.3517,2.3091,2.3091,2.3091,2.3091,2.3091,2.3091,2.3091,2.3091,2.3091,2.3091,2.3091,2.3091,2.3091,2.3091,2.3091,2.3091,2.3091,2.3091,2.3003,2.296,2.296,2.18,2.1159,2.1159,1.8948,1.7824,1.7824,1.6574,1.592,1.592,1.5825,1.5784,1.906,1.8652,1.8363,1.9005,1.9285,0.0,0.0,2.0823,2.1342,2.1092,2.146,0.0,2.2275,2.2913,2.3565,2.4205,2.4562,2.5159,2.6101,2.595,2.6076,2.7014,2.6766,2.6691,2.709,2.7115,2.7115,2.7115,2.7115,2.7027,2.6813,2.6461,2.6138,2.5971,2.5398,2.4946,2.4607,2.4713,2.4858,2.4965,2.5485,2.5762,2.5737,2.531,2.5109,2.5109,2.4876,2.4933,2.5109,2.5109,2.5435,2.5996,2.6348,2.6499,2.6499,2.6499,2.6499,2.6499,2.6499,2.6499,2.6499,2.6499,2.6499,2.66,2.7153,2.7431,2.777,2.8674,2.9051,2.934,2.9691,2.9275,2.8478,2.7371,2.7424,2.7005,2.4339,2.4628,2.4967,2.3387,2.3091,2.3091,2.3091,2.3091,2.3091,2.3091,2.3091,2.3091,2.3091,2.3091,2.3091,2.3091,2.3091,2.3091,2.3091,2.3091,2.3091,2.3091,2.2403,2.1987,2.1987,2.0079,1.9039,1.9039,1.7397,1.6527,1.6527,1.6015,1.5784,1.5784,1.5784,1.5784,1.8458,1.814,1.8009,1.8375,0.0,0.0,1.9648,2.0415,2.0955,2.0955,2.1506,2.2121,2.2468,2.317,2.3791,2.3966,2.4318,2.4745,2.5272,2.5046,2.5096,2.585,2.5737,2.5686,2.5946,2.6285,2.6411,2.6235,2.6223,2.6223,2.6223,2.5649,2.536,2.536,2.4845,2.4381,2.4004,2.4161,2.4073,2.3728,2.4073,2.4449,2.4775,2.4612,2.4556,2.4556,2.4336,2.4362,2.4556,2.4556,2.487,2.5385,2.5787,2.6084,2.6223,2.6223,2.6336,2.6499,2.6499,2.6499,2.6499,2.6499,2.6499,2.6562,2.6952,2.7178,2.7444,2.8197,2.8624,2.8988,2.9415,2.9061,2.8267,2.6842,2.676,2.6295,2.3681,2.4006,2.4457,2.3299,2.3091,2.3091,2.3091,2.3091,2.3091,2.3091,2.3091,2.3091,2.3091,2.3091,2.3091,2.3091,2.3091,2.3091,2.3091,2.3091,2.3091,2.3091,2.235,2.1845,2.1845,1.9906,1.8818,1.8818,1.7217,1.6386,1.6386,1.6015,1.5784,1.5784,1.5784,1.5784,1.8893,1.8125,1.7594,1.8723,0.0,0.0,1.956,2.0677,2.1509,2.1493,2.2372,2.3108,2.3108,2.3108,2.3296,2.3891,2.3991,2.418,2.4713,2.4775,2.4775,2.4788,2.5272,2.5385,2.4838,2.5799,2.6248,2.5636,2.5586,2.5586,2.5586,2.5096,2.4775,2.4775,2.428,2.3991,2.3991,2.3396,2.3108,2.3108,2.3108,2.3697,2.4763,2.4243,2.3991,2.3954,2.3358,2.3434,2.3991,2.4004,2.4318,2.4775,2.4788,2.5146,2.5598,2.5586,2.5996,2.6499,2.6487,2.6487,2.6499,2.6499,2.6499,2.6499,2.6499,2.6876,2.7268,2.7281,2.8072,2.8875,2.8888,2.9352,2.9248,2.7017,2.7319,2.7186,2.3844,2.4006,2.4457,2.3299,2.3091,2.3091,2.3091,2.3091,2.3091,2.3091,2.3091,2.3091,2.3091,2.3091,2.3091,2.3091,2.3091,2.3091,2.3091,2.3091,2.3091,2.3091,2.3091,2.3091,2.3091,2.1943,2.1293,2.1293,1.891,1.7684,1.7692,1.6433,1.5784,1.5784,1.5784,1.5784,1.8341,1.846,0.0,1.8464,0.0,0.0,0.0,2.0402,0.0,0.0,2.2606,2.3108,2.3108,2.3108,2.3158,2.3333,2.3358,2.3559,2.4167,2.386,2.3898,2.47,2.4619,2.4569,2.4763,2.5121,2.5234,2.5059,2.5059,2.5059,2.5059,2.4544,2.4243,2.4243,2.3659,2.3358,2.3358,2.3195,2.3108,2.3108,2.3108,2.3283,2.3597,2.3434,2.3358,2.3358,2.3183,2.3195,2.3396,2.3828,2.4092,2.428,2.4637,2.5146,2.5548,2.5184,2.5649,2.6436,2.6021,2.6147,2.6499,2.6499,2.6499,2.6499,2.6499,2.6612,2.6813,2.7168,2.7519,2.7946,2.8687,2.9013,2.8716,2.6925,2.6719,2.6254,2.3637,2.3387,2.3507,2.3178,2.3091,2.3091,2.3091,2.3091,2.3091,2.3091,2.3091,2.3091,2.3091,2.3091,2.3091,2.3091,2.3091,2.3091,2.3091,2.3091,2.3091,2.3091,2.3091,2.3091,2.3091,2.1943,2.089,2.0034,1.8503,1.7271,1.6339,1.5967,1.5784,1.5784,1.5784,1.5784,1.8224,1.8728,0.0,1.8695,1.9519,2.0371,1.9902,0.0,0.0,2.2133,2.2719,2.3108,2.3108,2.3108,2.3108,2.3108,2.3108,2.3233,2.3572,2.3321,2.3358,2.4036,2.4054,2.4042,2.4111,2.4525,2.47,2.4506,2.4494,2.4494,2.4494,2.3966,2.3653,2.3653,2.3283,2.3108,2.3108,2.3108,2.3108,2.3108,2.3108,2.3108,2.3108,2.3108,2.3108,2.3108,2.3108,2.3108,2.3133,2.3484,2.3653,2.369,2.3998,2.4481,2.4921,2.4607,2.5059,2.5787,2.5649,2.5686,2.5921,2.6348,2.6336,2.6197,2.6424,2.6499,2.6562,2.6901,2.7153,2.7444,2.8109,2.8562,2.8583,2.7417,2.6801,2.6016,2.4178,2.342,2.3091,2.3091,2.3091,2.3091,2.3091,2.3091,2.3091,2.3091,2.3091,2.3091,2.3091,2.3091,2.3091,2.3091,2.3091,2.3091,2.3091,2.3091,2.3091,2.3091,2.3091,2.3091,2.3091,2.1943,2.098,2.0215,1.8549,1.7318,1.6574,1.6062,1.5784,1.5784,1.5784,1.5784,1.8438,1.9058,1.9866,1.9319,1.9645,2.0029,1.9838,2.0639,2.1556,2.2058,2.2656,2.307,2.297,2.3032,2.3083,2.3045,2.307,2.3108,2.3108,2.3108,2.3108,2.3108,2.3572,2.3715,2.3158,2.4036,2.4424,2.3954,2.3916,2.3916,2.3916,2.3396,2.3108,2.3108,2.3108,2.3108,2.3108,2.3108,2.3108,2.3108,2.3108,2.3108,2.3108,2.3108,2.3108,2.3108,2.3108,2.3108,2.3108,2.3108,2.3108,2.3108,2.3108,2.3459,2.3991,2.3941,2.4305,2.4863,2.536,2.5247,2.5059,2.6147,2.6135,2.5774,2.6336,2.6499,2.6499,2.6499,2.6851,2.7253,2.7304,2.8021,2.8636,2.8189,2.7342,2.6307,2.5083,2.4006,2.3222,2.3135,2.3091,2.3091,2.3091,2.3091,2.3091,2.3091,2.3091,2.3091,2.3091,2.3091,2.3091,2.3091,2.3091,2.3091,2.3091,2.3091,2.3091,2.3091,2.3091,2.3091,2.3091,2.2031,2.1426,2.1293,1.9131,1.7917,1.7692,1.6527,1.592,1.5784,1.5784,1.5784,1.8798,1.9703,0.0,1.9895,2.017,2.0478,1.9927,2.0365,2.0905,2.1018,2.2146,2.2844,2.1995,2.2518,2.2957,2.2531,2.2832,2.3108,2.3108,2.3108,2.3108,2.3108,2.3208,2.3246,2.3108,2.3321,2.3421,2.3296,2.3296,2.3296,2.3296,2.317,2.3108,2.3108,2.3108,2.3108,2.3108,2.3108,2.3108,2.3108,2.3108,2.3108,2.3108,2.3108,2.3108,2.3108,2.3108,2.3108,2.3108,2.3108,2.3108,2.3108,2.3108,2.3459,2.3941,2.3459,2.3923,2.4813,2.4913,2.5184,2.5548,2.6273,2.6411,2.6336,2.6461,2.6499,2.6499,2.6499,2.6575,2.6776,2.7203,2.7457,2.7734,2.8015,2.7903,2.7227,2.5241,2.4628,2.4168,2.3256,2.3091,2.3091,2.3091,2.3091,2.3091,2.3091,2.3091,2.3091,2.3091,2.3091,2.3091,2.3091,2.3091,2.3091,2.3091,2.3091,2.3091,2.3091,2.3091,2.3091,2.3091,2.2862,2.2262,2.1337,2.08,1.9579,1.7692,1.7412,1.6763,1.5784,1.5784,1.5784,1.8968,2.006,0.0,2.1246,0.0,2.1465,2.0497,2.072,2.1039,2.0772,2.1769,2.2543,2.1995,2.2347,2.2619,2.2359,2.2518,2.2807,2.3058,2.3108,2.3108,2.3108,2.3108,2.3108,2.3108,2.3108,2.3108,2.3108,2.3108,2.3108,2.3108,2.3108,2.3108,2.3108,2.3108,2.3108,2.3108,2.3108,2.3108,2.3108,2.3108,2.3108,2.3108,2.3108,2.3108,2.3108,2.3108,2.3108,2.3108,2.3108,2.3108,2.3108,2.3108,2.3283,2.3521,2.3221,2.3484,2.4023,2.433,2.4607,2.4971,2.582,2.6084,2.6135,2.6411,2.6499,2.6499,2.6499,2.6499,2.6562,2.6851,2.7115,2.7356,2.7645,2.7713,2.7268,2.556,2.4955,2.4457,2.3299,2.3091,2.3091,2.3091,2.3091,2.3091,2.3091,2.3091,2.3091,2.3091,2.3091,2.3091,2.3091,2.3091,2.3091,2.3091,2.3091,2.3091,2.3091,2.3091,2.3091,2.3091,2.3091,2.2536,2.1337,2.0169,1.8956,1.7692,1.7084,1.6433,1.5784,1.5784,1.5784,1.9169,2.0327,2.1823,2.2395,2.2622,0.0,2.1224,2.1316,2.1509,2.1119,2.1622,2.2171,2.2171,2.2171,2.2171,2.2171,2.2246,2.2443,2.2895,2.3045,2.3108,2.3108,2.3108,2.3108,2.3108,2.3108,2.3108,2.3108,2.3108,2.3108,2.3108,2.3108,2.3108,2.3108,2.3108,2.3108,2.3108,2.3108,2.3108,2.3108,2.3108,2.3108,2.3108,2.3108,2.3108,2.3108,2.3108,2.3108,2.3108,2.3108,2.3108,2.3108,2.3108,2.3108,2.3108,2.3108,2.3108,2.3195,2.3803,2.4004,2.4155,2.5134,2.5523,2.5686,2.6197,2.6411,2.6499,2.6499,2.6499,2.6499,2.6499,2.6839,2.7178,2.7178,2.7238,2.6958,2.5774,2.5139,2.4461,2.3225,2.3042,2.3091,2.3091,2.3091,2.3091,2.3091,2.3091,2.3091,2.3091,2.3091,2.3091,2.3091,2.3091,2.3091,2.3091,2.3091,2.3091,2.3091,2.3091,2.3091,2.3091,2.3091,2.2633,2.1614,1.9451,1.8319,1.8319,1.707,1.6426,1.6426,1.6244,1.6109,1.9603,0.0,2.1718,0.0,2.2269,2.2498,2.1734,2.1647,2.1818,2.2267,2.1955,2.1594,2.1594,2.1594,2.1594,2.1594,2.1995,2.2334,2.241,2.2807,2.3108,2.3108,2.3108,2.3108,2.3108,2.3108,2.3108,2.3108,2.3108,2.3108,2.3108,2.3108,2.3108,2.3108,2.3108,2.3108,2.3108,2.3108,2.3108,2.3108,2.3108,2.3108,2.3108,2.3108,2.3108,2.3108,2.3108,2.3108,2.3108,2.3108,2.3108,2.3108,2.3108,2.3108,2.3108,2.3108,2.3108,2.3195,2.3803,2.4004,2.4104,2.472,2.5222,2.5611,2.5686,2.6097,2.6499,2.6499,2.6499,2.6499,2.6499,2.6549,2.66,2.66,2.6972,2.6895,2.5392,2.5021,2.4494,2.2881,2.2847,2.3091,2.3091,2.3091,2.3091,2.3091,2.3091,2.3091,2.3091,2.3091,2.3091,2.3091,2.3091,2.3091,2.3091,2.3091,2.3091,2.3091,2.3091,2.3091,2.3091,2.3091,2.3003,2.2862,2.1534,2.08,2.08,1.9579,1.8993,1.8993,1.7956,1.7458,2.0581,2.1027,2.1591,0.0,2.2481,2.2608,2.2343,2.2253,2.233,2.255,2.2057,2.1614,2.1547,2.1558,2.1437,2.1111,2.1257,2.1606,2.2221,2.2493,2.2757,2.307,2.3108,2.3108,2.3108,2.3108,2.3108,2.3108,2.3108,2.3108,2.3108,2.3108,2.3108,2.3108,2.3108,2.3108,2.3108,2.3108,2.3108,2.3108,2.3108,2.2945,2.2644,2.2644,2.2807,2.3108,2.3108,2.3108,2.3108,2.3108,2.3108,2.3108,2.3108,2.3108,2.3108,2.3108,2.3108,2.3145,2.3396,2.3728,2.4042,2.428,2.472,2.5159,2.5159,2.5335,2.5548,2.5548,2.5749,2.6009,2.6009,2.6248,2.6499,2.6499,2.6688,2.6516,2.5257,2.5422,2.5266,2.3329,2.2653,2.2441,2.2441,2.2627,2.274,2.274,2.2945,2.3013,2.2779,2.2945,2.3003,2.2769,2.2955,2.3091,2.3091,2.3091,2.3091,2.3091,2.3091,2.3091,2.3091,2.3091,2.3091,2.3091,2.1889,2.1293,2.1293,2.0079,1.9497,1.9497,1.8956,1.8373,2.1039,0.0,2.1439,2.2024,2.2448,2.2697,2.271,2.2818,2.2915,2.2847,2.2494,2.2133,2.1927,2.1733,2.1533,2.1237,2.1185,2.1454,2.2249,2.248,2.2709,2.3086,2.3306,2.3335,2.3138,2.3275,2.3305,2.3108,2.3108,2.3108,2.3108,2.3108,2.3108,2.3108,2.3108,2.3108,2.3108,2.3108,2.3032,2.2895,2.2895,2.2681,2.2309,2.2171,2.2409,2.2904,2.277,2.2769,2.2895,2.2895,2.2982,2.3108,2.3108,2.3108,2.3083,2.2945,2.2982,2.3083,2.2945,2.3271,2.3778,2.3778,2.4155,2.4587,2.4587,2.4675,2.4788,2.4788,2.5197,2.5598,2.5598,2.6059,2.6499,2.6499,2.6499,2.6233,2.5229,2.5473,2.544,2.3856,2.3039,2.2544,2.2308,2.2494,2.2619,2.2386,2.2617,2.2701,2.2539,2.274,2.2857,2.2652,2.2906,2.3091,2.3091,2.3091,2.3091,2.3091,2.3091,2.3091,2.3091,2.3091,2.3091,2.3091,2.2217,2.1756,2.1756,2.0531,2.0124,2.0404,1.977,1.8993,0.0,2.0824,0.0,2.0896,2.1754,2.2703,2.2691,2.3133,2.3566,2.3553,2.3523,2.3334,2.276,2.2133,2.1873,2.2405,2.2501,2.2528,2.2583,2.2978,2.3255,2.3295,2.385,2.3943,2.3155,2.3796,2.3914,2.3168,2.3108,2.3108,2.3108,2.3108,2.3108,2.3108,2.3108,2.3108,2.3108,2.3108,2.2844,2.2347,2.2347,2.2334,2.2297,2.1769,2.1865,2.24,2.1835,2.187,2.2347,2.2347,2.2631,2.3108,2.3108,2.3108,2.3045,2.2518,2.2656,2.3032,2.2506,2.2694,2.3145,2.3145,2.3547,2.4042,2.4042,2.4406,2.4788,2.4788,2.5197,2.5598,2.5598,2.6059,2.6499,2.6499,2.6499,2.6233,2.5229,2.4655,2.431,2.4185,2.4437,2.4355,2.3402,2.3222,2.294,2.207,2.1934,2.209,2.2461,2.2529,2.2685,2.3023,2.3081,2.3091,2.3091,2.3091,2.3091,2.3091,2.3091,2.3091,2.3091,2.3091,2.3091,2.3091,2.3047,2.3003,2.3003,2.18,2.18,2.2862,2.0584,1.9451,0.0,0.0,0.0,2.1155,2.1445,2.1965,2.2575,2.2868,2.3137,2.352,2.3595,2.353,2.3334,2.277,2.2278,2.2062,2.2018,2.2156,2.2545,2.2744,2.2986,2.3338,2.3974,2.4243,2.3952,2.458,2.4709,2.3943,2.3884,2.3649,2.3138,2.3108,2.3108,2.3108,2.2757,2.2406,2.2083,2.2083,2.1983,2.1782,2.1782,2.1805,2.1832,2.1259,2.1115,2.1391,2.1616,2.2173,2.293,2.2943,2.3003,2.307,2.2719,2.2581,2.2556,2.2355,2.2406,2.2606,2.2757,2.2945,2.3108,2.3108,2.3246,2.3409,2.3409,2.3559,2.371,2.371,2.4362,2.5096,2.5096,2.5774,2.6399,2.6021,2.6223,2.6283,2.5555,2.5051,2.4724,2.4724,2.43,2.3853,2.3503,2.3161,2.2785,2.2449,2.2129,2.1943,2.209,2.2344,2.2568,2.2682,2.2935,2.3091,2.3091,2.3091,2.3091,2.3091,2.3091,2.3091,2.3091,2.3091,2.3091,2.3091,2.3091,2.3091,2.3091,2.2677,2.2677,2.3047,2.1445,2.026,2.1735,0.0,0.0,2.1267,2.1255,2.146,2.2089,2.248,2.2808,2.3227,2.3445,2.3595,2.3595,2.3275,2.2875,2.2409,2.234,2.2473,2.2876,2.2915,2.3024,2.3403,2.4014,2.4408,2.4404,2.502,2.5122,2.4366,2.4292,2.3943,2.3125,2.3108,2.302,2.2832,2.2322,2.1769,2.1245,2.1393,2.1393,2.1232,2.1232,2.1344,2.1576,2.0768,2.0797,2.1455,2.1677,2.227,2.3077,2.3273,2.3566,2.3761,2.2714,2.2441,2.2604,2.2182,2.2159,2.2359,2.2706,2.2945,2.3108,2.3108,2.3108,2.3108,2.3108,2.3108,2.3108,2.3108,2.3785,2.4544,2.4544,2.5347,2.6059,2.5473,2.5946,2.6336,2.5724,2.5549,2.5511,2.5511,2.4957,2.4397,2.4072,2.372,2.3254,2.2566,2.2155,2.1879,2.1691,2.1914,2.2197,2.248,2.2721,2.2945,2.3081,2.3091,2.3091,2.3091,2.3091,2.3091,2.3091,2.3091,2.3091,2.3091,2.3091,2.3091,2.3091,2.3091,2.3091,2.3047,2.1845,2.0657,0.0,0.0,0.0,2.1118,2.1153,2.1324,2.1321,2.2026,2.2684,2.2709,2.3167,2.3601,2.3595,2.3595,2.3595,2.3595,2.3595,2.3595,2.3595,2.3535,2.3507,2.3507,2.409,2.4483,2.4414,2.5074,2.5159,2.4359,2.431,2.3975,2.319,2.3113,2.2849,2.2297,2.1757,2.1232,2.0679,2.1207,2.1194,2.0666,2.0666,2.0987,2.1562,2.0373,2.0892,2.2672,2.2021,2.2095,2.2671,2.3174,2.4175,2.5149,2.3111,2.2737,2.3208,2.1952,2.1835,2.2284,2.2297,2.2644,2.3108,2.3108,2.3108,2.3108,2.3108,2.3108,2.3108,2.3108,2.3521,2.4004,2.4017,2.4795,2.5435,2.4888,2.5636,2.6311,2.5699,2.6072,2.6499,2.6499,2.6499,2.6198,2.5229,2.5016,2.436,2.2349,2.2048,2.1817,2.1311,2.12,2.1522,2.2402,2.251,2.2676,2.3042,2.3091,2.3091,2.3091,2.3091,2.3091,2.3091,2.3091,2.3091,2.3091,2.3091,2.3091,2.3091,2.3091,2.3091,2.3047,2.1845,2.0657,2.2135,0.0,0.0,0.0,0.0,0.0,2.1767,2.2004,2.2371,2.2996,2.3269,2.3442,2.3569,2.3595,2.3595,2.3595,2.3595,2.3595,2.3595,2.357,2.3563,2.3563,2.4169,2.4572,2.4546,2.5167,2.5262,2.45,2.4405,2.4272,2.4052,2.3563,2.2819,2.176,2.1207,2.0641,2.0037,2.0188,2.0188,2.0037,2.0037,2.0616,2.1645,2.0873,2.1307,2.2723,2.303,2.325,2.3406,2.3452,2.3659,2.3872,2.2905,2.2338,2.2075,2.1707,2.1628,2.1782,2.2171,2.2644,2.3108,2.3108,2.3108,2.3108,2.3108,2.3108,2.3108,2.3108,2.3521,2.4092,2.4494,2.4808,2.4895,2.4356,2.5046,2.5686,2.5146,2.5787,2.6499,2.6499,2.6499,2.6418,2.6129,2.5814,2.5126,2.3789,2.303,2.2418,2.1804,2.1385,2.1405,2.2002,2.2334,2.2559,2.2676,2.2916,2.3091,2.3091,2.3091,2.3091,2.3091,2.3091,2.3091,2.3091,2.3091,2.3091,2.3091,2.3091,2.3091,2.3047,2.1845,2.0657,0.0,0.0,0.0,2.1974,0.0,0.0,2.1794,2.1922,2.2082,2.2394,2.2682,2.2865,2.281,2.3205,2.3449,2.3248,2.3628,2.3858,2.3638,2.3595,2.3595,2.3595,2.3954,2.4291,2.4575,2.4948,2.4982,2.4527,2.4445,2.4419,2.4404,2.3554,2.2744,2.1994,2.0903,2.015,1.9798,2.008,2.022,2.022,2.0471,2.1148,2.21,2.1462,2.1866,2.3083,2.3221,2.3441,2.3647,2.3564,2.3855,2.4213,2.3058,2.255,2.2451,2.2125,2.1994,2.1994,2.2249,2.2713,2.314,2.2845,2.292,2.3108,2.3108,2.3108,2.3108,2.3108,2.3346,2.3715,2.3998,2.4261,2.433,2.3766,2.4644,2.5448,2.4933,2.5686,2.6499,2.6499,2.6499,2.6499,2.6499,2.6457,2.6057,2.5004,2.4242,2.3484,2.2666,2.1768,2.1424,2.208,2.2207,2.2393,2.2701,2.2955,2.3091,2.3091,2.3091,2.3091,2.3091,2.3091,2.3091,2.3091,2.3091,2.3091,2.3091,2.3091,2.3091,2.3091,2.2403,2.1667,0.0,0.0,0.0,2.2296,2.1988,0.0,2.1673,2.1873,2.1934,2.1518,2.1924,2.2223,2.1901,2.2674,2.3246,2.2904,2.3662,2.4107,2.3666,2.3595,2.3595,2.3595,2.3595,2.3834,2.4425,2.4485,2.4458,2.4394,2.4461,2.444,2.4294,2.3231,2.2605,2.2605,2.0771,1.9824,1.9901,2.0497,2.0795,2.0795,2.14,2.2053,2.2672,2.2077,2.2469,2.3573,2.3031,2.3098,2.3595,2.3595,2.4298,2.5199,2.3396,2.3063,2.3506,2.2846,2.2619,2.2569,2.2445,2.2773,2.3119,2.2588,2.2657,2.2932,2.2995,2.3007,2.302,2.3083,2.3108,2.3108,2.3108,2.3484,2.3766,2.3233,2.4274,2.531,2.4876,2.5636,2.6411,2.6487,2.6499,2.6499,2.6499,2.6952,2.6996,2.602,2.5344,2.4586,2.3602,2.214,2.1483,2.2295,2.2119,2.2256,2.2964,2.3062,2.3091,2.3091,2.3091,2.3091,2.3091,2.3091,2.3091,2.3091,2.3091,2.3091,2.3091,2.3091,2.3091,2.3091,2.3091,2.3091,2.2363,2.2296,2.2296,2.2296,2.2223,0.0,2.2149,2.2209,2.2252,2.2329,2.2459,2.2585,2.272,2.2923,2.3246,2.3762,2.3643,2.3524,2.3584,2.3595,2.3595,2.3595,2.3595,2.3655,2.3789,2.3804,2.3783,2.3792,2.4289,2.4297,2.3621,2.2995,2.2654,2.2604,2.0797,2.0055,2.0597,2.0721,2.0795,2.0795,2.14,2.2053,2.2694,2.2566,2.292,2.3595,2.3486,2.3486,2.3595,2.3595,2.3744,2.3962,2.3555,2.3199,2.2881,2.2744,2.2644,2.2589,2.2563,2.2561,2.2639,2.3,2.2501,2.1895,2.2334,2.2443,2.2543,2.2982,2.3108,2.3108,2.3108,2.3195,2.3246,2.3133,2.371,2.4406,2.4713,2.5322,2.5933,2.6411,2.6499,2.6499,2.6499,2.6952,2.7097,2.6472,2.5248,2.4189,2.357,2.214,2.1259,2.1424,2.2021,2.2461,2.2617,2.2896,2.3091,2.3091,2.3091,2.3091,2.3091,2.3091,2.3091,2.3091,2.3091,2.3091,2.3091,2.3091,2.3091,2.3091,2.3091,2.3091,2.2537,2.25,2.2463,2.2335,2.2398,0.0,0.0,2.2296,2.2267,2.212,2.2094,2.2083,2.2015,2.2469,2.2893,2.3021,2.3303,2.3452,2.3312,2.347,2.3702,2.3985,2.3752,2.3595,2.3595,2.3595,2.3595,2.3595,2.4216,2.4427,2.4019,2.3491,2.3162,2.3138,2.158,2.0904,2.1245,2.1571,2.1752,2.1752,2.2354,2.2823,2.3143,2.3143,2.3312,2.3595,2.3595,2.3595,2.3595,2.3595,2.3595,2.3595,2.3595,2.3421,2.3143,2.3143,2.3146,2.3048,2.2758,2.2791,2.2944,2.2947,2.2497,2.2005,2.226,2.2341,2.2393,2.2945,2.3108,2.3108,2.3108,2.3108,2.3108,2.3108,2.3547,2.4155,2.4675,2.5222,2.5774,2.6386,2.6499,2.6499,2.6499,2.6952,2.7226,2.6944,2.6058,2.5108,2.4334,2.2906,2.192,2.1867,2.207,2.2373,2.275,2.2974,2.3091,2.3091,2.3091,2.3091,2.3091,2.3091,2.3091,2.3091,2.3091,2.3091,2.3091,2.3091,2.3091,2.3091,2.3091,2.3091,2.3092,2.3036,2.2955,2.2582,2.259,2.266,0.0,0.0,0.0,2.1977,2.1903,2.1786,2.1397,2.2087,2.2561,2.2118,2.2851,2.3391,2.3118,2.3301,2.3646,2.4082,2.3773,2.3528,2.3528,2.3584,2.3595,2.3595,2.4096,2.441,2.441,2.3844,2.3551,2.3667,2.24,2.1767,2.1899,2.2429,2.2694,2.2694,2.3312,2.3595,2.3595,2.3595,2.3595,2.3595,2.3595,2.3595,2.3595,2.3595,2.3595,2.3595,2.3595,2.3595,2.3595,2.3595,2.3595,2.353,2.3031,2.3181,2.344,2.2944,2.2525,2.2259,2.2259,2.2185,2.2272,2.2794,2.302,2.3108,2.3108,2.3108,2.3108,2.3108,2.3459,2.4017,2.465,2.5146,2.5649,2.6361,2.6499,2.6499,2.6499,2.6864,2.719,2.7268,2.6664,2.5887,2.4963,2.3615,2.263,2.2431,2.2158,2.2314,2.3033,2.3091,2.3091,2.3091,2.3091,2.3091,2.3091,2.3091,2.3091,2.3091,2.3091,2.3091,2.3091,2.3091,2.3091,2.3091,2.3091,2.3091,2.4539,2.4208,2.4037,2.327,2.2898,2.2772,2.3051,0.0,2.2721,2.2972,0.0,2.2917,2.2574,0.0,0.0,2.231,2.2524,2.2878,2.33,2.3189,2.3085,2.3158,2.3246,2.3323,2.3323,2.3504,2.3595,2.3595,2.367,2.3714,2.3714,2.3148,2.3059,2.3591,2.2383,2.1993,2.2581,2.2672,2.2694,2.2694,2.3312,2.3595,2.3595,2.3595,2.3595,2.3595,2.3595,2.3595,2.3595,2.3595,2.3595,2.3595,2.3595,2.3595,2.3595,2.3595,2.3595,2.3595,2.3508,2.3568,2.3645,2.3464,2.2617,2.1681,2.1681,2.1648,2.1694,2.2246,2.2732,2.3108,2.3108,2.3108,2.3108,2.3108,2.3158,2.3496,2.4562,2.4838,2.5222,2.6298,2.6499,2.6499,2.6499,2.6549,2.6751,2.7241,2.6067,2.4976,2.4438,2.341,2.2517,2.2018,2.2246,2.2627,2.3052,2.3091,2.3091,2.3091,2.3091,2.3091,2.3091,2.3091,2.3091,2.3091,2.3091,2.3091,2.3091,2.3091,2.3091,2.3091,2.3091,2.3091,2.5541,2.5503,2.5337,2.4177,2.4039,2.4022,2.3348,2.3093,2.3033,2.3165,0.0,0.0,0.0,0.0,0.0,0.0,2.2889,2.2962,2.2987,2.2902,2.2969,2.337,2.3233,2.3014,2.2748,2.2571,2.2503,2.2503,2.2868,2.3092,2.3092,2.3163,2.3334,2.3595,2.3069,2.2935,2.3209,2.3209,2.3209,2.3224,2.3486,2.3595,2.3595,2.3595,2.3595,2.3595,2.3595,2.3595,2.3595,2.3595,2.3595,2.3595,2.3595,2.3595,2.3595,2.3595,2.3595,2.3595,2.3595,2.3621,2.3576,2.3152,2.2951,2.2674,2.1859,2.2073,2.2577,2.2349,2.2681,2.3108,2.3108,2.3108,2.3108,2.3108,2.3108,2.3409,2.455,2.4788,2.5146,2.6285,2.6499,2.6499,2.6499,2.6499,2.6575,2.6801,2.6278,2.5596,2.482,2.3791,2.296,2.2409,2.2246,2.2314,2.2744,2.2955,2.3091,2.3091,2.3091,2.3091,2.3091,2.3091,2.3091,2.3091,2.3091,2.3091,2.3091,2.3091,2.3091,2.3091,2.3091,2.3091,2.6791,2.6847,2.6667,2.5341,2.5255,2.522,2.4073,2.3724,2.3636,2.3502,2.3471,0.0,0.0,0.0,0.0,0.0,0.0,2.3047,2.2606,2.262,2.2839,2.3267,2.3061,2.2787,2.2524,2.2232,2.1998,2.1862,2.2315,2.2616,2.2709,2.3122,2.343,2.3595,2.3595,2.3595,2.3595,2.3595,2.3595,2.3595,2.3595,2.3595,2.3595,2.3595,2.3595,2.3595,2.3595,2.3595,2.3595,2.3595,2.3595,2.3595,2.3595,2.3595,2.3595,2.3595,2.3595,2.3595,2.3595,2.3595,2.356,2.3296,2.3316,2.323,2.2205,2.2614,2.3295,2.2542,2.2865,2.3365,2.3168,2.3108,2.3108,2.3108,2.3108,2.3409,2.455,2.4788,2.5146,2.6285,2.6499,2.6499,2.6499,2.6499,2.6499,2.6499,2.6499,2.6129,2.5123,2.4373,2.3605,2.2794,2.2351,2.2234,2.2461,2.275,2.2974,2.3091,2.3091,2.3091,2.3091,2.3091,2.3091,2.3091,2.3091,2.3091,2.3091,2.3091,2.3091,2.3091,2.3091,2.3091,2.8571,2.8242,2.7963,2.6819,2.6297,2.5937,2.545,2.5081,2.4715,2.4258,2.417,2.4074,2.3735,0.0,0.0,0.0,0.0,0.0,0.0,2.2438,2.2616,2.2375,2.2506,2.272,2.2964,2.2972,2.2776,2.2315,2.2293,2.2424,2.2679,2.2718,2.3002,2.358,2.3595,2.3595,2.3595,2.3595,2.3595,2.3595,2.3595,2.3595,2.3595,2.3595,2.3595,2.3595,2.3595,2.3595,2.3595,2.3595,2.3595,2.3595,2.3595,2.3595,2.3595,2.3595,2.3595,2.3595,2.3595,2.3595,2.3699,2.4328,2.3723,2.2723,2.2678,2.309,2.3435,2.2631,2.3311,2.4089,2.3305,2.3108,2.3108,2.3108,2.3108,2.3409,2.455,2.4788,2.5146,2.6285,2.6499,2.6499,2.6499,2.6499,2.6499,2.6499,2.6499,2.6129,2.5123,2.4969,2.4388,2.2872,2.2663,2.2622,2.2526,2.2519,2.2705,2.3071,2.3091,2.3091,2.3091,2.3091,2.3091,2.3091,2.3091,2.3091,2.3091,2.3091,2.3091,2.3091,2.3091,2.3091,2.9422,2.941,2.9236,2.7923,2.7233,2.6637,2.5628,2.4901,2.4393,2.4225,2.419,2.417,2.4046,0.0,0.0,0.0,0.0,0.0,0.0,2.2881,2.2673,2.259,2.2197,2.1965,2.2069,2.1544,2.115,2.0994,2.113,2.128,2.1365,2.2224,2.2793,2.3002,2.3385,2.3595,2.3595,2.3595,2.3595,2.3595,2.3595,2.3595,2.3595,2.3595,2.3595,2.3595,2.3595,2.3595,2.3595,2.3595,2.3595,2.3595,2.3595,2.3595,2.3595,2.3595,2.3595,2.3595,2.3595,2.3595,2.364,2.3864,2.3933,2.3798,2.2952,2.3707,2.4631,2.3517,2.4082,2.4951,2.4696,2.425,2.3884,2.3884,2.3484,2.3321,2.4104,2.4537,2.5034,2.5749,2.6235,2.6499,2.6499,2.6499,2.6499,2.6499,2.6499,2.6383,2.6025,2.5406,2.4943,2.4786,2.4419,2.4072,2.367,2.3172,2.2945,2.3081,2.3091,2.3091,2.3091,2.3091,2.3091,2.3091,2.3091,2.3091,2.3091,2.3091,2.3091,2.3091,2.3091,2.3091,3.0059,3.0114,2.9917,2.8601,2.7983,2.7309,2.5847,2.5115,2.4727,2.4737,2.445,2.432,2.4772,2.4487,0.0,0.0,0.0,0.0,0.0,2.3335,2.2972,2.2733,2.2206,2.1794,2.1628,2.1228,2.0813,2.0348,2.0624,2.088,2.1055,2.1859,2.2553,2.3017,2.3385,2.3595,2.3595,2.3595,2.3595,2.3595,2.3595,2.3595,2.3595,2.3595,2.3595,2.3595,2.3595,2.3595,2.3595,2.3595,2.3595,2.3595,2.3595,2.3595,2.3595,2.3595,2.3595,2.3595,2.3595,2.3595,2.3595,2.3595,2.3894,2.4089,2.3252,2.4206,2.5313,2.4222,2.4803,2.5728,2.5481,2.5035,2.4624,2.435,2.3914,2.3671,2.418,2.4569,2.5034,2.5762,2.6235,2.6499,2.6499,2.6499,2.6499,2.6499,2.6499,2.6499,2.6499,2.5943,2.5599,2.5767,2.548,2.5149,2.4789,2.4124,2.3714,2.3714,2.3299,2.3091,2.3091,2.3091,2.3091,2.3091,2.3091,2.3091,2.3091,2.3091,2.3091,2.3091,2.3091,2.3091]}]]